[[{"header":{"parameterUnit":"m.s-1","parameterCategory":1,"la1":30.6,"la2":29.2853,"lo1":-89.7004,"lo2":-87.6739,"dy":0.0162,"dx":0.0183,"nx":112,"ny":82,"refTime":"2025-07-05T12:00:00:Z","depth":0,"parameterNumber":2,"parameterNumberName":"U-component_of_WINDS"},"data":[0.0,0.0,0.0,0.0,0.0,0.0,0.0,0.0,0.0,0.0,0.0,0.0,0.0,0.0,0.0,0.0,0.0,0.0,0.0,0.0,0.0,0.0,0.0,0.0,0.0,0.0,0.0,0.0,0.0,0.0,0.0,0.0,0.0,0.0,0.0,0.0,0.0,0.0,0.0,0.0,0.0,0.0,0.0,0.0,0.0,0.0,0.0,0.0,0.0,0.0,0.0,0.0,0.0,0.0,0.0,0.0,0.0,0.0,0.0,0.0,0.0,0.0,0.0,0.0,0.0,0.0,0.0,0.0,0.0,0.0,0.0,0.0,0.0,0.0,0.0,0.0,0.0,0.0,0.0,0.0,0.0,0.0,0.0,0.0,0.0,0.0,0.0,0.0,0.0,0.0,0.6185,0.686,0.7526,0.7901,0.7901,0.7901,0.7452,0.6483,0.0,0.0,0.0,0.0,0.0,0.0,0.0,0.0,0.0,0.0,0.0,0.0,0.0,0.0,0.0,0.0,0.0,0.0,0.0,0.0,0.0,0.0,0.0,0.0,0.0,0.0,0.0,0.0,0.0,0.0,0.0,0.0,0.0,0.0,0.0,0.0,0.0,0.0,0.0,0.0,0.0,0.0,0.0,0.0,0.0,0.0,0.0,0.0,0.0,0.0,0.0,0.0,0.0,0.0,0.0,0.0,0.0,0.0,0.0,0.0,0.0,0.0,0.0,0.0,0.0,0.0,0.0,0.0,0.0,0.0,0.0,0.0,0.0,0.0,0.0,0.0,0.0,0.0,0.0,0.0,0.0,0.0,0.0,0.0,0.0,0.0,0.0,0.0,0.0,0.0,0.0,0.0,0.0,0.0,0.0,0.0,0.0,0.0,0.0,0.0,0.0,0.0,0.0,0.0,0.6125,0.7346,0.7744,0.7901,0.7901,0.7901,0.7452,0.6483,0.0,0.0,0.0,0.0,0.0,0.0,0.0,0.0,0.0,0.0,0.0,0.0,0.0,0.0,0.0,0.0,0.0,0.0,0.0,0.0,0.0,0.0,0.0,0.0,0.0,0.0,0.0,0.0,0.0,0.0,0.0,0.0,0.0,0.0,0.0,0.0,0.0,0.0,0.0,0.0,0.0,0.0,0.0,0.0,0.0,0.0,0.0,0.0,0.0,0.0,0.0,0.0,0.0,0.0,0.0,0.0,0.0,0.0,0.0,0.0,0.0,0.0,0.0,0.0,0.0,0.0,0.0,0.0,0.0,0.0,0.0,0.0,0.0,0.0,0.0,0.0,0.0,0.0,0.0,0.0,0.0,0.0,0.0,0.0,0.0,0.0,0.0,0.0,0.0,0.0,0.0,0.0,0.0,0.0,0.0,0.0,0.0,0.0,0.0,0.0,0.0,0.0,0.0,0.6027,0.6653,0.7653,0.7823,0.7901,0.7901,0.7901,0.7452,0.6483,0.59,0.0,0.0,0.0,0.0,0.0,0.0,0.0,0.0,0.0,0.0,0.0,0.0,0.0,0.0,0.0,0.0,0.0,0.0,0.0,0.0,0.0,0.0,0.0,0.0,0.0,0.0,0.0,0.0,0.0,0.0,0.0,0.0,0.0,0.0,0.0,0.0,0.0,0.0,0.0,0.0,0.0,0.0,0.0,0.0,0.0,0.0,0.0,0.0,0.0,0.0,0.0,0.0,0.0,0.0,0.0,0.0,0.0,0.0,0.0,0.0,0.0,0.0,0.0,0.0,0.0,0.0,0.0,0.0,0.0,0.0,0.0,0.0,0.0,0.0,0.0,0.0,0.0,0.0,0.0,0.0,0.0,0.0,0.0,0.0,0.0,0.0,0.0,0.0,0.0,0.0,0.0,0.0,0.0,0.0,0.0,0.0,0.0,0.0,0.0,0.0,0.0,0.0,0.6878,0.7206,0.7829,0.7901,0.7901,0.7901,0.7787,0.7369,0.6471,0.5784,0.0,0.0,0.0,0.0,0.0,0.0,0.0,0.0,0.0,0.0,0.0,0.0,0.0,0.0,0.0,0.0,0.0,0.0,0.0,0.0,0.0,0.0,0.0,0.0,0.0,0.0,0.0,0.0,0.0,0.0,0.0,0.0,0.0,0.0,0.0,0.0,0.0,0.0,0.0,0.0,0.0,0.0,0.0,0.0,0.0,0.0,0.0,0.0,0.0,0.0,0.0,0.0,0.0,0.0,0.0,0.0,0.0,0.0,0.0,0.0,0.0,0.0,0.0,0.0,0.0,0.0,0.0,0.0,0.0,0.0,0.0,0.0,0.0,0.0,0.0,0.0,0.0,0.0,0.0,0.0,0.0,0.0,0.0,0.0,0.0,0.0,0.0,0.0,0.0,0.0,0.0,0.0,0.0,0.0,0.0,0.0,0.0,0.0,0.0,0.0,0.0,0.0,0.7085,0.7662,0.7865,0.7901,0.7901,0.7901,0.7496,0.7018,0.6453,0.5438,0.0,0.0,0.0,0.0,0.0,0.0,0.0,0.0,0.0,0.0,0.0,0.0,0.0,0.0,0.0,0.0,0.0,0.0,0.0,0.0,0.0,0.0,0.0,0.0,0.0,0.0,0.0,0.0,0.0,0.0,0.0,0.0,0.0,0.0,0.0,0.0,0.0,0.0,0.0,0.0,0.0,0.0,0.0,0.0,0.0,0.0,0.0,0.0,0.0,0.0,0.0,0.0,0.0,0.0,0.0,0.0,0.0,0.0,0.0,0.0,0.0,0.0,0.0,0.0,0.0,0.0,0.0,0.0,0.0,0.0,0.0,0.0,0.0,0.0,0.0,0.0,0.0,0.0,0.0,0.0,0.0,0.0,0.0,0.0,0.0,0.0,0.0,0.0,0.0,0.0,0.0,0.0,0.0,0.0,0.0,0.0,0.0,0.0,0.0,0.0,0.0,0.0,0.6963,0.7472,0.0,0.7901,0.7901,0.7901,0.7715,0.7285,0.6471,0.0,0.0,0.0,0.0,0.0,0.0,0.0,0.0,0.0,0.0,0.0,0.0,0.0,0.0,0.0,0.0,0.0,0.0,0.0,0.0,0.0,0.0,0.0,0.0,0.0,0.0,0.0,0.0,0.0,0.0,0.0,0.0,0.0,0.0,0.0,0.0,0.0,0.0,0.0,0.0,0.0,0.0,0.0,0.0,0.0,0.0,0.0,0.0,0.0,0.0,0.0,0.0,0.0,0.0,0.0,0.0,0.0,0.0,0.0,0.0,0.0,0.0,0.0,0.0,0.0,0.0,0.0,0.0,0.0,0.0,0.0,0.0,0.0,0.0,0.0,0.0,0.0,0.0,0.0,0.0,0.0,0.0,0.0,0.0,0.0,0.0,0.0,0.0,0.0,0.0,0.0,0.0,0.0,0.0,0.0,0.0,0.0,0.0,0.0,0.0,0.0,0.0,0.6295,0.6977,0.755,0.0,0.7901,0.7901,0.7901,0.7745,0.7321,0.6471,0.0,0.0,0.0,0.0,0.0,0.0,0.0,0.0,0.0,0.0,0.0,0.0,0.0,0.0,0.0,0.0,0.0,0.0,0.0,0.0,0.0,0.0,0.0,0.0,0.0,0.0,0.0,0.0,0.0,0.0,0.0,0.0,0.0,0.0,0.0,0.0,0.0,0.0,0.0,0.0,0.0,0.0,0.0,0.0,0.0,0.0,0.0,0.0,0.0,0.0,0.0,0.0,0.0,0.0,0.0,0.0,0.0,0.0,0.0,0.0,0.0,0.0,0.0,0.0,0.0,0.0,0.0,0.0,0.0,0.0,0.0,0.0,0.0,0.0,0.0,0.0,0.0,0.0,0.0,0.0,0.0,0.0,0.0,0.0,0.0,0.0,0.0,0.0,0.0,0.0,0.0,0.0,0.0,0.0,0.0,0.0,0.0,0.0,0.0,0.0,0.0,0.0,0.6343,0.7297,0.7901,0.7901,0.7901,0.7901,0.7901,0.7466,0.6981,0.0,0.0,0.0,0.0,0.0,0.0,0.0,0.0,0.0,0.0,0.0,0.0,0.0,0.0,0.0,0.0,0.0,0.0,0.0,0.0,0.0,0.0,0.0,0.0,0.0,0.0,0.0,0.0,0.0,0.0,0.0,0.0,0.0,0.0,0.0,0.0,0.0,0.0,0.0,0.0,0.0,0.0,0.0,0.0,0.0,0.0,0.0,0.0,0.0,0.0,0.0,0.0,0.0,0.0,0.0,0.0,0.0,0.0,0.0,0.0,0.0,0.0,0.0,0.0,0.0,0.0,0.0,0.0,0.0,0.0,0.0,0.0,0.0,0.0,0.0,0.0,0.0,0.0,0.0,0.0,0.0,0.0,0.0,0.0,0.0,0.0,0.0,0.0,0.0,0.0,0.0,0.0,0.0,0.0,0.0,0.0,0.0,0.0,0.0,0.0,0.0,0.0,0.0,0.6343,0.7297,0.7901,0.7901,0.7901,0.7901,0.7901,0.7757,0.7333,0.6471,0.0,0.0,0.0,0.0,0.0,0.0,0.0,0.0,0.0,0.0,0.0,0.0,0.0,0.0,0.0,0.0,0.0,0.0,0.0,0.0,0.0,0.0,0.0,0.0,0.0,0.0,0.0,0.0,0.0,0.0,0.0,0.0,0.0,0.0,0.0,0.0,0.0,0.0,0.0,0.0,0.0,0.0,0.0,0.0,0.0,0.0,0.0,0.0,0.0,0.0,0.0,0.0,0.0,0.0,0.0,0.0,0.0,0.0,0.0,0.0,0.0,0.0,0.0,0.0,0.0,0.0,0.0,0.0,0.0,0.0,0.0,0.0,0.0,0.0,0.0,0.0,0.0,0.0,0.0,0.0,0.0,0.0,0.0,0.0,0.0,0.0,0.0,0.0,0.0,0.0,0.0,0.0,0.0,0.0,0.0,0.0,0.0,0.0,0.0,0.0,0.0,0.0,0.6489,0.7363,0.7901,0.7901,0.7901,0.7901,0.7901,0.7901,0.75,0.6635,0.0,0.0,0.0,0.0,0.0,0.0,0.0,0.0,0.0,0.0,0.0,0.0,0.0,0.0,0.0,0.0,0.0,0.0,0.0,0.0,0.0,0.0,0.0,0.0,0.0,0.0,0.0,0.0,0.0,0.0,0.0,0.0,0.0,0.0,0.0,0.0,0.0,0.0,0.0,0.0,0.0,0.0,0.0,0.0,0.0,0.0,0.0,0.0,0.0,0.0,0.0,0.0,0.0,0.0,0.0,0.0,0.0,0.0,0.0,0.0,0.0,0.0,0.0,0.0,0.0,0.0,0.0,0.0,0.0,0.0,0.0,0.0,0.0,0.0,0.0,0.0,0.0,0.0,0.0,0.0,0.0,0.0,0.0,0.0,0.0,0.0,0.0,0.0,0.0,0.0,0.0,0.0,0.0,0.0,0.0,0.0,0.0,0.0,0.0,0.0,0.0,0.0,0.6708,0.746,0.7901,0.7901,0.7901,0.7901,0.7901,0.7901,0.7572,0.689,0.0,0.0,0.0,0.0,0.0,0.0,0.0,0.0,0.0,0.0,0.0,0.0,0.0,0.0,0.0,0.0,0.0,0.0,0.0,0.0,0.0,0.0,0.0,0.0,0.0,0.0,0.0,0.0,0.0,0.0,0.0,0.0,0.0,0.0,0.0,0.0,0.0,0.0,0.0,0.0,0.0,0.0,0.0,0.0,0.0,0.0,0.0,0.0,0.0,0.0,0.0,0.0,0.0,0.0,0.0,0.0,0.0,0.0,0.0,0.0,0.7153,0.6585,0.0,0.0,0.0,0.0,0.0,0.0,0.0,0.0,0.0,0.0,0.0,0.0,0.0,0.0,0.0,0.0,0.0,0.0,0.0,0.0,0.0,0.0,0.0,0.0,0.0,0.0,0.0,0.0,0.0,0.0,0.0,0.0,0.0,0.0,0.0,0.0,0.0,0.0,0.0,0.0,0.6732,0.746,0.7901,0.7901,0.7901,0.7901,0.7901,0.7901,0.765,0.7158,0.6617,0.0,0.0,0.0,0.0,0.0,0.0,0.0,0.0,0.0,0.0,0.0,0.0,0.0,0.0,0.0,0.0,0.0,0.0,0.0,0.0,0.0,0.0,0.0,0.0,0.0,0.0,0.0,0.0,0.0,0.0,0.0,0.0,0.0,0.0,0.0,0.0,0.0,0.0,0.0,0.0,0.0,0.0,0.0,0.0,0.0,0.0,0.0,0.0,0.0,0.0,0.0,0.0,0.0,0.0,0.0,0.0,0.0,0.0,0.0,0.8455,0.7865,0.0,0.0,0.0,0.0,0.0,0.0,0.0,0.0,0.0,0.0,0.0,0.0,0.0,0.0,0.0,0.0,0.0,0.0,0.0,0.0,0.0,0.0,0.0,0.0,0.0,0.0,0.0,0.0,0.0,0.0,0.0,0.0,0.0,0.0,0.0,0.0,0.0,0.0,0.0,0.0,0.723,0.7757,0.8135,0.8261,0.8165,0.8087,0.8087,0.7973,0.778,0.7419,0.7012,0.0,0.0,0.0,0.0,0.0,0.0,0.0,0.0,0.0,0.0,0.0,0.0,0.0,0.0,0.0,0.0,0.0,0.0,0.0,0.0,0.0,0.0,0.0,0.0,0.0,0.0,0.0,0.0,0.0,0.0,0.0,0.0,0.0,0.0,0.0,0.0,0.0,0.0,0.0,0.0,0.0,0.0,0.0,0.0,0.0,0.0,0.0,0.0,0.0,0.0,0.0,0.0,0.0,0.9606,0.9967,1.0605,1.0653,1.0599,1.0497,0.9976,0.9502,0.9166,0.8741,0.0,0.0,0.0,0.0,0.0,0.0,0.0,0.0,0.0,0.0,0.0,0.0,0.0,0.0,0.0,0.0,0.0,0.0,0.0,0.0,0.0,0.0,0.8239,0.88,0.8884,0.8649,0.755,0.0,0.0,0.0,0.0,0.0,0.0,0.0,0.0,0.0,0.0,0.0,0.7834,0.8165,0.8441,0.8657,0.8489,0.8339,0.8291,0.8203,0.8059,0.7833,0.7659,0.7355,0.0,0.0,0.0,0.0,0.0,0.0,0.0,0.0,0.0,0.0,0.0,0.0,0.0,0.0,0.0,0.0,0.0,0.0,0.0,0.0,0.0,0.0,0.0,0.0,0.0,0.0,0.0,0.0,0.0,0.0,0.0,0.0,0.5276,0.582,0.0,0.0,0.0,0.0,0.0,0.0,0.0,0.0,0.0,0.0,0.0,0.0,0.0,0.9028,0.9729,0.9987,1.0329,1.0698,1.1149,1.1503,1.1909,1.2046,1.2224,1.2385,1.2282,0.0,0.9616,0.9563,0.0,0.0,0.0,0.0,0.0,0.0,0.0,0.0,0.0,0.0,0.0,0.0,0.0,0.0,0.0,0.0,0.0,0.0,0.0,0.0,0.0,0.0,0.9928,0.9742,0.9712,0.9664,0.9554,0.8555,0.7629,0.715,0.6927,0.6761,0.0,0.0,0.0,0.0,0.0,0.0,0.7853,0.8327,0.8639,0.8675,0.8651,0.8537,0.8309,0.8756,0.8943,0.8633,0.8847,0.8897,0.8859,0.7969,0.0,0.0,0.0,0.0,0.0,0.0,0.0,0.0,0.0,0.0,0.0,0.0,0.0,0.0,0.0,0.0,0.0,0.0,0.0,0.0,0.0,0.0,0.0,0.0,0.0,0.0,0.0,0.0,0.0,0.5475,0.6264,0.6385,0.6449,0.6466,0.0,0.0,0.0,0.0,0.0,0.0,0.0,0.0,0.0,0.9535,0.974,1.0177,1.0987,1.1107,1.1432,1.2005,1.2178,1.2504,1.2913,1.3021,1.3069,1.3163,1.3163,1.2529,1.1594,1.0932,1.0377,0.9826,0.0,0.0,0.0,0.0,0.9526,0.9478,1.0109,1.0128,0.9874,0.9687,0.0,0.0,0.0,0.0,0.0,0.0,0.0,0.8825,0.9238,0.9694,1.0152,1.0339,1.0381,1.0381,1.0381,0.9922,0.9278,0.8557,0.8448,0.83,0.7726,0.775,0.0,0.0,0.0,0.8234,0.854,0.8753,0.8956,0.9112,0.8992,0.8849,0.8735,0.8744,0.8786,0.9025,0.9006,0.9096,0.9409,0.9059,0.8815,0.0,0.0,0.0,0.0,0.0,0.0,0.0,0.0,0.0,0.0,0.0,0.0,0.0,0.0,0.0,0.0,0.0,0.0,0.0,0.0,0.0,0.0,0.0,0.0,0.0,0.0,0.0,0.0,0.6373,0.6951,0.681,0.7192,0.7366,0.0,0.0,0.0,0.0,0.0,0.0,0.9181,0.9276,0.9729,1.064,1.0839,1.126,1.2026,1.2037,1.2434,1.3058,1.3058,1.3278,1.3713,1.3713,1.3713,1.3713,1.3713,1.3568,1.3248,1.2246,1.1552,1.1099,1.084,1.0737,1.0767,1.1033,1.1003,1.093,1.16,1.1648,1.1365,1.1039,1.0797,1.0478,0.9608,0.0,0.0,0.0,0.0,0.9747,1.0224,1.0329,1.0544,1.0936,1.1027,1.1027,1.1027,1.0972,1.0621,0.9711,0.9691,0.9575,0.8871,0.8844,0.0,0.8534,0.8609,0.8796,0.9053,0.9186,0.925,0.946,0.9298,0.9204,0.9132,0.8826,0.8858,0.9377,0.9259,0.9458,1.0028,1.0042,0.989,0.9673,0.0,0.0,0.0,0.0,0.0,0.0,0.0,0.0,0.0,0.0,0.0,0.0,0.0,0.0,0.0,0.0,0.0,0.0,0.0,0.0,0.0,0.0,0.0,0.0,0.0,0.0,0.0,0.0,0.0,0.709,0.7881,0.0,0.0,0.0,0.0,0.8645,0.9069,0.9488,0.9985,1.0302,1.069,1.1257,1.1767,1.2288,1.2723,1.3012,1.333,1.3863,1.3863,1.4002,1.4256,1.4256,1.4256,1.4256,1.4256,1.4111,1.3803,1.2982,1.2481,1.2204,1.1944,1.1842,1.1872,1.2137,1.2228,1.2252,1.2542,1.2475,1.2288,1.2512,1.2077,1.1413,1.1087,1.0647,0.0,0.0,1.0816,1.1075,1.1377,1.1636,1.183,1.1854,1.186,1.186,1.186,1.1667,1.1172,1.0085,0.9886,0.9906,0.9925,0.0,0.9203,0.9472,0.926,0.9083,0.912,0.9298,0.9466,0.9484,0.9472,0.9352,0.915,0.9347,0.9633,0.994,1.0166,1.0608,1.1167,1.0685,1.0464,1.0654,0.9379,0.0,0.0,0.0,0.0,0.0,0.0,0.0,0.0,0.0,0.0,0.0,0.0,0.0,0.0,0.0,0.0,0.0,0.0,0.0,0.0,0.0,0.0,0.0,0.0,0.0,0.0,0.0,0.0,0.8283,0.8802,0.0,0.8695,0.9238,0.9645,0.9862,1.0242,1.0643,1.1126,1.1234,1.1625,1.2461,1.2579,1.2927,1.3732,1.3549,1.3601,1.3886,1.3886,1.3933,1.4022,1.4202,1.4298,1.4298,1.4298,1.4244,1.4135,1.3845,1.3471,1.3079,1.2988,1.2946,1.2958,1.3055,1.3085,1.3097,1.3194,1.3163,1.3073,1.3,1.2548,1.2017,1.1914,1.1636,1.1371,1.1467,1.1564,1.1655,1.1757,1.1854,1.192,1.192,1.192,1.192,1.192,1.1848,1.1618,1.1069,1.0683,1.0341,1.0003,0.978,0.9685,0.9779,0.9719,0.9646,0.988,0.9778,0.9736,0.961,0.945,0.9302,0.9265,0.9348,0.9562,0.9953,1.0113,1.0344,1.0769,1.0565,1.0509,1.0589,1.0034,0.942,0.0,0.0,0.0,0.0,0.0,0.0,0.0,0.0,0.0,0.0,0.0,0.0,0.0,0.0,0.0,0.0,0.0,0.0,0.0,0.0,0.0,0.0,0.0,0.0,0.0,0.0,0.9164,0.9037,0.9615,1.0003,0.9761,1.0231,1.0584,1.0914,1.1207,1.1515,1.1919,1.1941,1.2303,1.3081,1.3003,1.3183,1.3913,1.363,1.3545,1.3738,1.3835,1.3931,1.3931,1.4208,1.4298,1.4298,1.4298,1.4298,1.4298,1.4298,1.4093,1.3779,1.3779,1.3779,1.3779,1.3779,1.3779,1.3779,1.3779,1.3719,1.3616,1.3351,1.2903,1.2546,1.2454,1.2336,1.2206,1.229,1.2224,1.2159,1.2242,1.2258,1.2186,1.2186,1.2186,1.2186,1.2186,1.2119,1.2005,1.183,1.1359,1.0828,1.029,1.02,1.0176,1.0018,1.0,1.0065,1.017,1.0039,0.987,0.974,0.9634,0.9598,0.9598,0.9576,0.9764,1.0326,1.0132,1.0177,1.0637,1.0629,1.0616,1.0616,1.0287,0.9681,0.8877,0.0,0.0,0.0,0.0,0.0,0.0,0.0,0.0,0.0,0.0,0.0,0.0,0.0,0.0,0.0,0.0,0.0,0.0,0.0,0.0,0.0,0.0,0.0,0.8861,0.9297,0.9607,0.9297,1.0304,1.0842,1.039,1.1182,1.172,1.172,1.1935,1.2178,1.2414,1.2425,1.2527,1.2754,1.2953,1.3147,1.3147,1.3346,1.3443,1.3539,1.3738,1.3931,1.3931,1.4208,1.4298,1.4298,1.4298,1.4298,1.4298,1.4298,1.4298,1.4298,1.4298,1.4298,1.4298,1.4298,1.4298,1.4298,1.4298,1.4129,1.3824,1.3631,1.3367,1.3065,1.2786,1.2689,1.2774,1.3053,1.2872,1.2774,1.3039,1.2922,1.2717,1.2711,1.2705,1.2705,1.2705,1.2506,1.2324,1.2312,1.1822,1.1306,1.084,1.0737,1.0575,1.0323,1.0281,0.0,1.0009,1.0003,0.9927,0.9788,0.9968,1.014,1.0128,1.0133,1.0333,1.0907,1.0367,1.024,1.0801,1.0869,1.0887,1.0887,1.013,0.9238,0.8248,0.0,0.0,0.0,0.0,0.0,0.0,0.0,0.0,0.0,0.0,0.0,0.0,0.0,0.0,0.0,0.0,0.0,0.0,0.0,0.0,0.0,1.0413,1.0578,0.9887,1.068,1.1203,1.0746,1.1348,1.1704,1.158,1.1962,1.2215,1.2215,1.2436,1.2597,1.2662,1.2667,1.2791,1.305,1.305,1.3147,1.3346,1.3249,1.3346,1.3539,1.3539,1.3738,1.3931,1.4208,1.4298,1.4298,1.4298,1.4298,1.4298,1.4298,1.4298,1.4298,1.4298,1.4298,1.4298,1.4298,1.4298,1.4298,1.4298,1.416,1.3921,1.382,1.3449,1.3042,1.3042,1.2825,1.2683,1.2774,1.2723,1.2721,1.2638,1.2533,1.2435,1.225,1.2369,1.2448,1.2448,1.2395,1.2289,1.2105,1.1782,1.1525,1.1324,1.0992,1.0757,1.0686,1.0528,1.046,1.0386,1.0225,1.0254,1.0805,1.0514,1.035,1.0473,1.0371,1.0032,0.9394,0.9681,0.9839,0.9893,1.0186,1.0402,1.0631,1.0143,0.9634,0.0,0.0,0.0,0.0,0.0,0.0,0.0,0.0,0.0,0.0,0.0,0.0,0.0,0.0,0.0,0.0,0.0,0.0,0.0,0.0,0.0,0.0,1.1194,1.1278,1.0774,1.128,1.1775,1.2037,1.215,1.2199,1.2199,1.242,1.256,1.256,1.2689,1.2764,1.2764,1.2764,1.2861,1.2953,1.2953,1.305,1.3249,1.305,1.305,1.3249,1.3249,1.3443,1.3738,1.4022,1.4202,1.4298,1.4298,1.4298,1.4298,1.4298,1.4298,1.4298,0.0,0.0,0.0,0.0,1.4298,1.4298,1.4298,1.4208,1.4022,1.3829,1.3532,1.3216,1.302,1.2831,1.272,1.2813,1.2834,1.2721,1.2666,1.2643,1.25,1.2254,1.2279,1.2331,1.2227,1.2198,1.2157,1.2012,1.1807,0.0,1.1588,1.1152,1.0836,1.0836,1.0663,1.0443,1.0368,1.0244,1.0369,1.1016,1.0861,1.0779,1.0816,1.0978,0.0,0.0,0.0,0.9855,0.9532,0.9911,0.0,0.0,0.0,0.0,0.0,0.9824,0.0,0.0,0.8928,0.9013,0.0,0.0,0.0,0.0,0.0,0.0,0.0,0.0,0.0,0.0,0.0,0.0,0.0,0.0,0.0,0.0,1.2031,1.2085,1.169,1.1554,1.1794,1.2939,1.2763,1.2547,1.2452,1.2641,1.2764,1.2764,1.2764,1.2764,1.2764,1.2764,0.0,0.0,0.0,1.2802,1.2802,1.2829,1.2845,1.2943,1.3133,1.3327,1.3625,1.3819,1.4093,1.4346,1.4346,1.4328,1.4298,1.4298,1.4202,1.4202,1.4298,1.4298,1.4298,1.4298,1.4298,1.4298,1.4298,0.0,0.0,1.363,1.3443,1.3346,1.2958,1.2764,1.2861,1.305,1.2901,1.2825,1.2969,1.2794,1.2666,1.2422,1.2343,1.2263,1.2042,1.1974,1.1957,1.1957,1.1764,1.1606,1.1606,1.1197,1.0869,1.084,1.0636,1.0402,1.0223,1.0143,1.0368,1.0812,1.1113,0.0,1.1287,1.1734,1.1802,1.1166,1.0573,1.0103,0.976,1.0161,1.0314,1.0278,1.0805,1.0927,1.0646,1.0654,1.069,1.0726,1.0166,1.0081,0.0,0.0,0.0,0.0,0.0,0.0,0.0,0.0,0.0,0.0,0.0,0.0,0.0,0.0,0.0,1.2939,1.3176,1.3548,1.3865,1.2934,1.2242,1.2516,1.321,1.3358,1.2791,1.2737,1.2764,1.2764,1.2764,1.2764,1.2764,1.2764,1.2764,1.2764,1.2942,1.3039,1.3039,1.3238,1.3442,1.365,1.3746,0.0,1.4127,1.4441,1.4436,1.4335,1.4538,1.4418,1.4027,1.4027,1.3829,1.3732,1.4106,1.4298,1.4298,1.4298,1.4298,1.4298,1.4298,1.4016,1.3636,1.3539,1.3249,1.2958,1.2861,1.2764,0.0,1.2861,1.2829,1.2748,1.2558,1.2471,1.2373,1.2221,1.2103,1.2037,1.1993,1.1832,1.1785,1.1785,1.1574,1.1364,1.1364,1.1134,1.0823,1.0712,1.0484,1.0225,1.0019,0.9992,1.0293,1.1186,1.1508,1.1674,1.1793,1.1984,1.1771,1.0811,1.0778,1.0863,1.1185,1.1308,1.1185,1.0923,1.1299,1.1306,1.0982,1.1058,1.1305,1.1736,1.1093,1.0886,0.0,0.0,0.0,0.0,0.0,0.0,0.0,0.0,0.0,0.0,0.0,1.1764,1.2506,0.0,1.314,1.3153,1.3157,1.3135,1.3491,1.3637,1.372,1.372,1.3544,1.3335,1.3335,1.305,1.2764,1.2764,1.2764,1.2764,1.2764,1.2872,1.2931,1.2931,1.3168,1.3292,1.3292,1.3416,1.3583,1.3685,1.3685,1.3782,1.4083,1.4191,1.432,1.4294,1.44,1.4255,1.3912,1.379,1.3636,1.3539,1.3823,1.3919,1.3919,1.3919,1.3919,1.3919,1.3919,1.3732,1.3443,1.3346,1.3152,1.2958,1.2861,1.2764,1.2764,1.2764,1.2764,1.2737,1.2619,1.2587,1.2527,1.2291,1.2232,1.2171,1.1925,1.1783,1.1669,1.1548,1.1354,1.1262,1.1262,1.1149,1.0995,1.0838,1.0621,1.0417,1.0293,1.018,1.0406,1.1229,1.1265,1.1279,1.1351,1.1579,1.1326,1.0356,1.0929,1.1179,1.0844,1.1383,1.1646,1.1425,1.1833,1.1963,1.1794,1.1854,1.2011,1.227,1.1781,1.1689,0.0,0.0,0.0,0.0,0.0,0.0,0.0,0.0,1.0403,1.2473,1.2654,1.2711,1.3433,1.3419,1.3342,1.315,1.2879,1.2669,1.2669,1.3778,1.4765,1.5051,1.4004,1.3335,1.3619,1.3141,1.2764,1.2764,1.2802,1.2829,1.2829,1.305,1.3179,1.3179,1.3416,1.3545,1.3545,1.3593,1.362,1.362,1.362,1.3724,1.3931,1.4034,1.4099,1.4242,1.4197,1.4066,1.3868,1.3571,1.3459,1.3413,1.3413,1.3385,1.3346,1.3443,1.3539,1.3539,1.3539,1.3443,1.3346,1.3147,1.305,1.305,1.2861,1.2764,1.2764,1.2764,1.2764,1.2764,1.2764,1.2764,1.2716,1.2527,1.2447,1.2307,1.1925,1.1801,1.1698,1.1462,1.1418,1.1402,1.1273,1.1262,1.1268,1.102,1.0826,1.0686,1.0643,1.0476,1.0494,1.0973,1.0936,1.0865,1.0968,1.1205,1.0988,1.0355,1.1203,1.1303,1.0317,1.1106,1.1573,1.1573,1.2032,1.2265,1.2265,1.2192,1.222,1.2365,1.2033,1.2127,0.825,0.8819,0.9053,0.8581,0.9425,1.0563,0.0,0.0,1.2321,1.3818,1.3269,1.2984,1.4421,1.4027,1.3507,1.3374,1.3601,1.3765,1.3765,1.3318,1.3528,1.4956,1.4956,1.4382,1.305,1.2861,1.2764,1.2764,1.2953,1.3066,1.3066,1.3303,1.3437,1.3437,1.3658,1.3782,1.3782,1.4003,1.4116,1.4116,1.4116,1.4116,1.4223,1.4421,1.4406,1.419,1.3979,1.3873,1.3846,1.3614,1.3366,1.3165,1.3165,1.304,1.2958,1.3346,1.3539,1.3539,1.3539,1.3346,1.3147,1.3147,1.2953,1.2861,1.2764,1.2764,1.2764,1.2764,1.2764,1.2764,1.2764,1.2764,1.2759,1.2732,1.2565,1.2398,1.2344,1.2161,1.1941,1.1704,1.1661,1.1596,1.13,1.1262,1.1268,1.102,1.0961,1.0869,1.0659,1.0611,1.0519,1.0388,1.0873,1.1288,1.1577,1.1601,1.1575,1.1544,1.1376,1.1236,1.1093,1.0931,1.0798,1.0798,1.1179,1.1378,1.1307,1.1126,1.1243,1.1765,1.1444,1.1596,0.8703,0.0,0.0,0.0,1.009,1.0855,1.1927,1.1954,1.2108,1.3841,1.365,1.3385,1.3919,1.387,1.3654,0.0,1.3171,1.3238,1.3238,1.3335,1.3528,1.3715,1.41,1.419,1.3528,1.305,1.2764,1.2764,1.2974,1.3104,1.3104,1.347,1.368,1.368,1.3911,1.404,1.404,1.4143,1.4196,1.4196,1.4196,1.4196,1.4196,1.4293,1.4347,1.4237,1.3991,1.3888,1.3877,1.4134,1.3812,1.3409,1.3757,1.354,1.2942,1.3105,1.3055,1.3055,1.3055,1.305,1.2958,1.2958,1.2861,1.2764,1.2764,1.2764,1.2764,1.2764,1.2764,1.2764,1.2764,1.2764,1.2764,1.2764,1.2689,1.2581,1.2441,1.2334,1.2194,1.1946,1.179,1.1666,1.1569,1.1782,1.1735,1.1214,1.1198,1.1165,1.0979,1.0929,1.0751,1.0514,1.0721,1.0914,1.1042,1.1343,1.1361,1.0906,1.1389,1.1477,1.1022,1.1197,1.1285,1.1285,1.1556,1.1695,1.1695,1.175,1.1887,1.2125,1.1612,1.1546,0.8845,0.0,0.0,1.0239,1.0708,1.1302,1.215,1.2043,1.2187,1.372,1.3683,1.3449,1.3531,1.3588,1.3426,1.2861,1.2764,1.2856,1.305,1.3431,1.3426,1.3147,1.3431,1.3619,1.3619,1.3147,1.2883,1.3144,1.3463,1.3428,1.3297,1.3899,1.4128,1.3922,1.4099,1.4196,1.4196,1.4196,1.4196,1.4196,1.4196,1.4196,1.4196,1.4196,1.4196,1.4186,1.4003,1.3922,1.3906,1.4348,1.4138,1.3659,1.4078,1.3763,1.319,1.3023,1.2877,1.2764,1.2764,1.2764,1.2764,1.2764,1.2764,1.2764,1.2764,1.2764,1.2764,1.2764,1.2764,1.2764,1.2764,1.2764,1.2764,1.2764,1.2764,1.2716,1.2549,1.2511,1.2441,1.2194,1.2011,1.1876,1.1806,1.2031,1.2042,1.1532,1.1392,1.1262,1.1262,1.1139,1.0918,1.0751,1.067,1.0638,1.0638,1.1036,1.0964,1.0401,1.1233,1.1373,1.0806,1.1176,1.1411,1.1411,1.1599,1.169,1.1696,1.1817,1.1914,1.1914,1.1503,1.1375,0.0,0.0,1.032,1.0562,1.1322,1.2162,1.2323,1.256,1.3011,1.3782,1.3318,1.3039,1.38,1.3329,1.2861,1.2764,1.2764,1.305,1.3811,1.3238,1.305,1.3811,1.3238,1.2861,0.0,1.2764,1.3241,1.4155,1.4507,1.4362,1.3787,1.4876,1.5018,1.418,1.4191,1.4196,1.4196,1.4196,1.4196,1.4196,1.4196,1.4196,1.4196,1.4196,1.4196,1.4196,1.4186,1.4186,1.4186,1.4175,1.4029,1.3809,1.3803,1.3663,1.347,1.3459,1.3163,1.2764,1.2764,1.2764,1.2764,1.2764,1.2764,1.2764,1.2764,1.2764,1.2764,1.2764,1.2764,1.2764,1.2764,1.2764,1.2764,1.2764,1.2764,1.2759,1.2754,1.2754,1.2684,1.2452,1.2398,1.2318,1.2081,1.1844,1.1688,1.1688,1.1494,1.1262,1.1262,1.1139,1.0982,1.0977,1.0772,1.0638,1.0638,1.0632,1.0632,1.0622,1.0622,1.0622,1.0616,1.0611,1.0616,1.0616,1.0622,1.0622,1.0622,1.0632,1.0632,1.0638,1.0869,1.1055,0.0,0.0,1.109,1.1478,1.1935,1.2355,1.2592,1.2711,1.2856,1.3141,1.2827,1.2628,1.2813,1.2718,1.2533,1.2533,1.2662,1.2861,1.3147,1.2953,1.2861,1.3147,1.2953,0.0,0.0,0.0,0.0,1.348,1.3729,1.3876,1.3809,1.4371,1.4509,1.4196,1.4196,1.4196,1.4196,1.4196,1.4196,1.4196,1.4196,1.4196,1.4196,1.4196,1.4196,1.4196,1.4196,1.4196,1.4191,1.4826,1.4669,1.4158,1.4517,1.4294,1.3685,1.3534,1.3378,1.3217,1.305,1.299,1.2964,1.2813,1.2764,1.2764,1.2764,1.2764,1.2764,1.2764,1.2764,1.2764,1.2764,1.2764,1.2764,1.2764,1.2764,1.2764,1.2764,1.2764,1.2737,1.2662,1.2522,1.2388,1.2307,1.2459,1.2654,1.2654,1.1861,1.1262,1.1262,1.1278,1.1225,1.1225,1.1155,1.1027,1.1027,1.1027,1.1042,1.0875,1.0869,1.0799,1.0643,1.0638,1.0638,1.0638,1.0789,1.0869,1.0869,1.1031,1.1027,1.1027,1.1192,1.1225,0.0,1.1176,1.1591,1.2064,1.2361,1.2576,1.2727,1.2764,1.2737,1.2657,1.2447,1.2258,1.2172,1.2091,1.2091,1.2258,1.2409,1.2571,1.2743,1.2764,1.2797,1.2872,1.2883,1.3111,0.0,0.0,0.0,1.3624,1.3868,1.4014,1.3943,1.4421,1.4509,1.4196,1.4196,1.4196,1.4196,1.4196,1.4196,1.4196,1.4196,1.4196,1.4196,1.4196,1.4196,1.4196,1.4196,1.4196,1.4191,1.4826,1.4724,1.4288,1.4652,1.4479,1.3938,1.3787,1.3733,1.3685,1.3357,1.3179,1.3077,1.2931,1.2829,1.2764,1.2764,1.2764,1.2764,1.2764,1.2764,1.2764,1.2764,1.2764,1.2764,1.2764,1.2764,1.2764,1.2764,1.2764,1.2764,1.2764,1.2641,1.2538,1.2538,1.2714,1.2796,1.2791,1.2059,1.1569,1.1488,1.1402,1.1262,1.1262,1.1262,1.1262,1.1262,1.1262,1.1284,1.1128,1.1112,1.1047,1.0896,1.0891,1.0891,1.0891,1.1036,1.1112,1.1117,1.1273,1.1262,1.1262,1.1262,1.1262,1.1198,1.1564,1.186,1.2318,1.2603,1.2764,1.2764,1.2754,1.2678,1.2431,1.2172,1.1919,0.0,0.0,1.1494,1.1941,1.2145,1.2335,1.27,1.2775,1.2861,0.0,0.0,0.0,0.0,0.0,0.0,1.4503,0.0,1.4773,1.418,1.4928,1.5035,1.4196,1.4196,1.4196,1.4196,1.4196,1.4196,1.4196,1.4196,1.4196,1.4196,1.4196,1.4196,1.4196,1.4196,1.4196,1.4196,1.4196,1.4196,1.4196,1.4196,1.4196,1.4196,1.4196,1.4196,1.4126,1.3674,1.3351,1.3136,1.3114,1.2958,1.2775,1.2764,1.2764,1.2764,1.2764,1.2764,1.2764,1.2764,1.2764,1.2764,1.2764,1.2764,1.2764,1.2764,1.2764,1.2764,1.2764,1.2764,1.2764,1.2764,1.2581,1.2355,1.2118,1.2167,1.1978,1.1747,1.1526,1.13,1.13,1.13,1.1381,1.1283,1.1283,1.1278,1.1262,1.1262,1.1273,1.1283,1.1273,1.1278,1.13,1.1289,1.1289,1.13,1.13,1.13,1.13,1.13,1.13,1.1774,1.2172,1.2522,1.2646,1.2721,1.2764,1.2764,1.263,1.2382,1.1968,1.1548,1.1128,0.0,0.0,0.0,1.151,1.2124,0.0,1.2748,1.291,0.0,1.3098,0.0,1.341,1.3475,1.3631,0.0,0.0,1.4096,1.4139,1.418,1.4407,1.4401,1.4196,1.4196,1.4196,1.4196,1.4196,1.4196,1.4196,1.4196,1.4196,1.4196,1.4196,1.4196,1.4196,1.4196,1.4196,1.4196,1.4196,1.4196,1.4196,1.4196,1.4196,1.4196,1.4196,1.4196,1.4175,1.4056,1.3846,1.3577,1.3222,1.3066,1.2985,1.2813,1.2764,1.2764,1.2764,1.2764,1.2764,1.2764,1.2764,1.2764,1.2764,1.2764,1.2764,1.2764,1.2764,1.2764,1.2764,1.2764,1.2764,1.2764,1.2716,1.2651,1.2592,1.2431,1.2231,1.1989,1.1903,1.1871,1.1871,1.1871,1.1801,1.1628,1.1607,1.1537,1.1278,1.1262,1.1429,1.1602,1.1445,1.1515,1.186,1.1698,1.1698,1.1871,1.1871,1.1871,1.1871,1.1871,1.1871,1.2269,1.256,1.2764,1.2764,1.2764,1.2678,1.2366,1.2194,1.1876,1.1079,1.0702,0.0,0.0,0.0,0.0,0.0,0.0,0.0,1.2721,1.2958,1.3147,0.0,1.348,0.0,1.3782,1.3911,1.3986,0.0,1.3986,1.4046,1.4186,1.4196,1.4239,1.4342,1.4245,1.4196,1.4196,1.4293,1.4293,1.4196,1.4196,1.4196,1.4196,1.4196,1.4196,1.4196,1.4196,1.4196,1.4196,1.4196,1.4196,1.4196,1.4196,1.4196,1.4196,1.4196,1.4196,1.4196,1.4196,1.4099,1.3906,1.3427,1.3195,1.306,1.2829,1.2764,1.2764,1.2764,1.2764,1.2764,1.2764,1.2764,1.2764,1.2764,1.2764,1.2764,1.2764,1.2764,1.2764,1.2764,1.2764,1.2764,1.2764,1.2764,1.2764,1.2764,1.2651,1.2517,1.2377,1.227,1.214,1.214,1.214,1.1995,1.1865,1.1855,1.1795,1.1666,1.1655,1.1715,1.1849,1.1725,1.1779,1.2135,1.1919,1.1919,1.214,1.214,1.214,1.214,1.214,1.214,1.2651,1.2764,1.2764,1.2764,1.2737,1.2538,1.1855,1.1628,1.123,1.0062,0.0,0.9534,0.8888,0.0,1.0003,1.0546,0.0,1.1951,1.2662,1.2985,1.3233,1.3453,1.3712,1.3954,1.4175,1.4196,1.4196,1.4196,1.4196,1.4196,1.4196,1.4196,1.4283,1.4482,1.4299,1.4196,1.4196,1.439,1.439,1.4196,1.4196,1.4196,1.4196,1.4196,1.4196,1.4196,1.4196,1.4196,1.4196,1.4196,1.4196,1.4196,1.4196,1.4196,1.4196,1.4196,1.4196,1.4196,1.4196,1.4196,1.4121,1.3669,1.3357,1.3109,1.2877,1.2786,1.2764,1.2764,1.2764,1.2764,1.2764,1.2764,1.2764,1.2764,1.2764,1.2764,1.2764,1.2764,1.2764,1.2764,1.2764,1.2764,1.2764,1.2764,1.2764,1.2764,1.2764,1.2764,1.2764,1.2398,1.2232,1.2232,1.2232,1.2221,1.2097,1.2097,1.2173,1.214,1.214,1.2151,1.2097,1.2064,1.2167,1.2232,1.2205,1.2205,1.2232,1.2232,1.2232,1.2232,1.2232,1.2232,1.264,1.2764,1.2764,1.2764,1.2619,1.2339,1.1817,1.1241,0.0,0.0,0.0,0.8662,0.8397,0.8851,0.0,1.0492,0.0,0.0,0.0,0.0,1.3432,0.0,0.0,0.0,0.0,0.0,0.0,0.0,1.4196,1.4196,1.4196,1.4196,1.4213,1.425,1.4213,1.4196,1.4196,1.4234,1.4234,1.4196,1.4196,1.4196,1.4196,1.4196,1.4196,1.4196,1.4196,1.4196,1.4196,1.4196,1.4196,1.4196,1.4196,1.4196,1.4196,1.4196,1.4196,1.4196,1.4196,1.4196,1.4148,1.3857,1.3604,1.3367,1.312,1.2915,1.2764,1.2764,1.2764,1.2764,1.2764,1.2764,1.2764,1.2764,1.2764,1.2764,1.2764,1.2764,1.2764,1.2764,1.2764,1.2764,1.2764,1.2764,1.2764,1.2764,1.2764,1.2764,1.2764,1.2689,1.2641,1.2641,1.2641,1.256,1.2366,1.235,1.2264,1.2151,1.214,1.214,1.2339,1.2156,1.2231,1.263,1.2447,1.2447,1.2641,1.2641,1.2641,1.2641,1.2641,1.2641,1.263,1.2764,1.2764,1.2764,1.249,1.2038,1.1311,0.0,0.0,0.0,0.0,0.8027,0.7661,0.0,0.0,0.0,0.0,0.0,0.0,0.0,0.0,0.0,0.0,0.0,0.0,0.0,0.0,1.4196,1.4196,1.4196,1.4196,1.4309,1.4315,1.4196,1.4428,1.4439,1.4196,1.4315,1.4309,1.4196,1.4196,1.4196,1.4196,1.4196,1.4196,1.4196,1.4196,1.4196,1.4196,1.4196,1.4196,1.4196,1.4196,1.4196,1.4196,1.4196,1.4196,1.4196,1.4196,1.4196,1.4175,1.4051,1.3771,1.3432,1.3179,1.2947,1.2764,1.2764,1.2764,1.2764,1.2764,1.2764,1.2764,1.2764,1.2764,1.2764,1.2764,1.2764,1.2764,1.2764,1.2764,1.2764,1.2764,1.2764,1.2764,1.2764,1.2764,1.2764,1.2764,1.2764,1.2764,1.2764,1.2764,1.2716,1.2608,1.2597,1.2549,1.2431,1.242,1.2474,1.2592,1.2484,1.2527,1.2759,1.2651,1.2651,1.2764,1.2764,1.2764,1.2764,1.2764,1.2764,1.2485,1.2764,1.2764,1.2764,1.2366,1.1741,1.0842,1.0008,0.0,0.0,0.0,0.7548,0.7225,0.0,0.0,0.0,0.0,0.0,0.0,0.0,0.0,0.0,0.0,0.0,0.0,0.0,0.0,1.4196,1.4196,1.4196,1.4196,1.4363,1.4379,1.4202,1.4546,1.4562,1.4196,1.4374,1.4374,1.4196,1.4196,1.4196,1.4196,1.4196,1.4196,1.4196,1.4196,1.4196,1.4196,1.4196,1.4196,1.4196,1.4196,1.4196,1.4196,1.4196,1.4196,1.4196,1.4196,1.4196,1.4196,1.4196,1.3868,1.3443,1.3243,1.299,1.2764,1.2764,1.2764,1.2764,1.2764,1.2764,1.2764,1.2764,1.2764,1.2764,1.2764,1.2764,1.2764,1.2764,1.2764,1.2764,1.2764,1.2764,1.2764,1.2764,1.2764,1.2764,1.2764,1.2764,1.2764,1.2764,1.2764,1.2764,1.2764,1.2764,1.2764,1.2764,1.2764,1.2764,1.2764,1.2764,1.2764,1.2764,1.2764,1.2764,1.2764,1.2764,1.2764,1.2764,1.2764,1.2764,1.2245,1.2764,1.2764,1.2764,1.2242,1.1537,1.0799,0.0,0.0,0.0,0.7451,0.7203,0.733,0.0,0.0,0.0,0.0,0.0,0.0,0.0,0.0,0.0,0.0,0.0,0.0,0.0,0.0,1.4196,1.4196,1.4196,1.4196,1.4213,1.4218,1.4196,1.4234,1.4239,1.4196,1.4213,1.4213,1.4196,1.4196,1.4196,1.4196,1.4196,1.4196,1.4196,1.4196,1.4196,1.4196,1.4196,1.4196,1.4196,1.4196,1.4196,1.4196,1.4196,1.4196,1.4196,1.4196,1.4196,1.4196,1.4196,1.3868,1.3475,1.3448,1.3125,1.2764,1.2764,1.2764,1.2764,1.2764,1.2764,1.2764,1.2764,1.2764,1.2764,1.2764,1.2764,1.2764,1.2764,1.2764,1.2764,1.2764,1.2764,1.2764,1.2764,1.2764,1.2764,1.2764,1.2764,1.2764,1.2764,1.2764,1.2764,1.2764,1.2764,1.2764,1.2764,1.2764,1.2764,1.2764,1.2764,1.2764,1.2764,1.2764,1.2764,1.2764,1.2764,1.2764,1.2764,1.2764,1.2764,1.2013,1.2544,1.2727,1.2587,1.2016,1.1305,1.0589,0.0,0.0,0.7919,0.7419,0.7117,0.7209,0.7298,0.0,0.0,0.0,0.0,0.0,0.0,0.0,0.0,0.0,0.0,0.0,0.0,1.4196,1.4196,1.4196,1.4196,1.4196,1.4196,1.4196,1.4196,1.4196,1.4196,1.4196,1.4196,1.4196,1.4196,1.4196,1.4196,1.4196,1.4196,1.4196,1.4196,1.4196,1.4196,1.4196,1.4196,1.4196,1.4196,1.4196,1.4196,1.4196,1.4196,1.4196,1.4196,1.4196,1.4196,1.4196,1.4196,1.3868,1.348,1.348,1.3141,1.2764,1.2764,1.2764,1.2764,1.2764,1.2764,1.2764,1.2764,1.2764,1.2764,1.2764,1.2764,1.2764,1.2764,1.2764,1.2764,1.2764,1.2764,1.2764,1.2764,1.2764,1.2764,1.2764,1.2764,1.2764,1.2764,1.2764,1.2764,1.2764,1.2764,1.2764,1.2764,1.2764,1.2764,1.2764,1.2764,1.2764,1.2764,1.2764,1.2764,1.2764,1.2764,1.2764,1.2764,1.2764,1.2764,1.1222,1.2042,1.2425,1.2328,1.1768,1.1058,0.0,0.0,0.8361,0.7812,0.737,0.7085,0.7085,0.7225,0.7521,0.0,0.0,0.0,0.0,0.0,0.0,0.0,0.0,0.0,0.0,0.0,1.4196,1.4196,1.4196,1.4196,1.4196,1.4196,1.4196,1.4196,1.4196,1.4196,1.4196,1.4196,1.4196,1.4196,1.4196,1.4196,1.4196,1.4196,1.4196,1.4196,1.4196,1.4196,1.4196,1.4196,1.4196,1.4196,1.4196,1.4196,1.4196,1.4196,1.4196,1.4196,1.4196,1.4196,1.4196,1.4196,1.3868,1.348,1.348,1.3141,1.2764,1.2764,1.2764,1.2764,1.2764,1.2764,1.2764,1.2764,1.2764,1.2764,1.2764,1.2764,1.2764,1.2764,1.2764,1.2764,1.2764,1.2764,1.2764,1.2764,1.2764,1.2764,1.2764,1.2764,1.2764,1.2764,1.2764,1.2764,1.2764,1.2764,1.2764,1.2764,1.2764,1.2764,1.2764,1.2764,1.2764,1.2764,1.2764,1.2764,1.2764,1.2764,1.2764,1.2764,1.2764,1.2764,0.9809,1.0994,1.1763,1.1995,1.1515,1.0799,0.0,0.919,0.8312,0.7544,0.7257,0.7085,0.7085,0.7085,0.7322,0.8093,0.0,0.0,0.0,0.0,0.0,0.0,0.0,0.0,0.0,0.0,1.4196,1.4196,1.4196,1.4196,1.4196,1.4196,1.4196,1.4196,1.4196,1.4196,1.4196,1.4196,1.4196,1.4196,1.4196,1.4196,1.4196,1.4196,1.4196,1.4196,1.4196,1.4196,1.4196,1.4196,1.4196,1.4196,1.4196,1.4196,1.4196,1.4196,1.4196,1.4196,1.4196,1.4196,1.4196,1.4196,1.3868,1.348,1.348,1.3141,1.2764,1.2764,1.2764,1.2764,1.2764,1.2764,1.2764,1.2764,1.2764,1.2764,1.2764,1.2764,1.2764,1.2764,1.2764,1.2764,1.2764,1.2764,1.2764,1.2764,1.2764,1.2764,1.2764,1.2764,1.2764,1.2764,1.2764,1.2764,1.2764,1.2764,1.2764,1.2764,1.2764,1.2764,1.2764,1.2764,1.2764,1.2764,1.2764,1.2764,1.2764,1.2764,1.2764,1.2764,1.2764,1.2764,0.942,1.0142,1.0681,1.0423,1.0191,0.9836,0.9125,0.8597,0.8113,0.7506,0.7257,0.7085,0.7085,0.7085,0.7424,0.8533,0.8831,0.0,0.0,0.0,0.0,0.0,0.0,0.0,0.0,0.0,1.4196,1.4196,1.4196,1.4196,1.4196,1.4196,1.4196,1.4196,1.4196,1.4196,1.4196,1.4196,1.4196,1.4196,1.4196,1.4196,1.4196,1.4196,1.4196,1.4196,1.4196,1.4196,1.4196,1.4196,1.4196,1.4196,1.4196,1.4196,1.4196,1.4196,1.4196,1.4196,1.4196,1.4196,1.4196,1.4196,1.3868,1.348,1.348,1.3141,1.2764,1.2764,1.2764,1.2764,1.2764,1.2764,1.2764,1.2764,1.2764,1.2764,1.2764,1.2764,1.2764,1.2764,1.2764,1.2764,1.2764,1.2764,1.2764,1.2764,1.2764,1.2764,1.2764,1.2764,1.2764,1.2764,1.2764,1.2764,1.2764,1.2764,1.2764,1.2764,1.2764,1.2764,1.2764,1.2764,1.2764,1.2764,1.2764,1.2764,1.2764,1.2764,1.2764,1.2764,1.2764,1.2764,0.0,0.9122,0.9707,0.9491,0.9373,0.9147,0.8522,0.8188,0.7881,0.7413,0.7192,0.7085,0.7085,0.716,0.7494,0.8328,0.8689,0.0,0.0,0.0,0.0,0.0,0.0,0.0,0.0,1.4218,1.432,1.432,1.4406,1.4455,1.4455,1.4455,1.4417,1.4326,1.4239,1.4196,1.4196,1.4196,1.4196,1.4196,1.4196,1.4196,1.4196,1.4196,1.4196,1.4196,1.4196,1.4196,0.0,1.4196,1.4196,1.4196,1.4196,1.4196,1.4196,1.4196,1.4196,1.4196,1.4196,1.4196,1.4196,1.4196,1.3868,1.3443,1.3265,1.3001,1.2764,1.2764,1.2764,1.2764,1.2764,1.2764,1.2764,1.2764,1.2764,1.2764,1.2764,1.2764,1.2764,1.2764,1.2764,1.2764,1.2764,1.2764,1.2764,1.2764,1.2764,1.2764,1.2764,1.2764,1.2764,1.2764,1.2764,1.2764,1.2764,1.2764,1.2764,1.2764,1.2764,1.2764,1.2764,1.2764,1.2764,1.2764,1.2764,1.2764,1.2764,1.2764,1.2764,1.2764,1.2764,1.2764,0.0,0.8118,0.8813,0.9007,0.891,0.8641,0.824,0.7919,0.0,0.7176,0.7085,0.7101,0.7149,0.7322,0.7512,0.7919,0.8533,0.0,0.0,0.0,0.0,0.0,0.0,0.0,1.3825,1.425,1.4509,1.4509,1.4713,1.4837,1.4837,1.4837,1.4735,1.4519,1.4304,1.4196,1.4196,1.4196,1.4196,1.4196,1.4213,1.4213,1.4196,1.4229,1.4223,1.4196,1.4213,1.4207,1.4196,1.4196,1.4196,1.4196,1.4196,1.4196,1.4196,1.4196,1.4196,1.4196,1.4196,1.4196,1.4186,1.4153,1.3841,1.3389,1.291,1.2764,1.2764,1.2764,1.2764,1.2764,1.2764,1.2764,1.2764,1.2764,1.2764,1.2764,1.2764,1.2764,1.2764,1.2764,1.2764,1.2764,1.2764,1.2764,1.2764,1.2764,1.2764,1.2764,1.2764,1.2764,1.2764,1.2764,1.2764,1.2764,1.2764,1.2764,1.2764,1.2764,1.2764,1.2764,1.2764,1.2764,1.2764,1.2764,1.2764,1.2764,1.2764,1.2764,1.2764,1.2764,1.2764,1.2764,0.7154,0.0,0.7752,0.7618,0.7682,0.7704,0.0,0.744,0.0,0.0,0.0,0.0,0.0,0.0,0.0,0.0,0.0,0.0,0.0,0.0,0.0,0.0,0.0,0.0,1.4099,1.4207,1.4272,1.4272,1.4326,1.4352,1.4352,1.4352,1.4331,1.4277,1.4223,1.4196,1.4196,1.4196,1.4196,1.4196,1.4369,1.4363,1.4207,1.4557,1.453,1.4202,1.4379,1.4358,1.4196,1.4196,1.4196,1.4196,1.4196,1.4196,1.4196,1.4196,1.4196,1.4196,1.4196,1.4196,1.4132,1.3766,1.3572,1.3389,1.291,1.2764,1.2764,1.2764,1.2764,1.2764,1.2764,1.2764,1.2764,1.2764,1.2764,1.2764,1.2764,1.2764,1.2764,1.2764,1.2764,1.2764,1.2764,1.2764,1.2764,1.2764,1.2764,1.2764,1.2764,1.2764,1.2764,1.2764,1.2764,1.2764,1.2764,1.2764,1.2764,1.2764,1.2764,1.2764,1.2764,1.2764,1.2764,1.2764,1.2764,1.2764,1.2764,1.2764,1.2764,1.2764,1.2764,1.2764,0.6891,0.7127,0.7389,0.7419,0.7429,0.7389,0.7419,0.0,0.0,0.0,0.0,0.0,0.0,0.0,0.0,0.0,0.0,0.0,0.0,0.0,0.0,0.0,0.0,1.4196,0.0,1.4288,1.4352,1.4352,1.4449,1.4509,1.4509,1.4509,1.446,1.4352,1.4352,1.4299,1.4196,1.4196,1.4196,1.4196,1.432,1.4315,1.4202,1.4455,1.4428,1.4202,1.4326,1.4309,1.4196,1.4196,1.4196,1.4196,1.4196,1.4196,1.4196,1.4196,1.4196,1.4196,1.4196,1.4196,1.4116,1.3631,1.348,1.3389,1.291,1.2764,1.2764,1.2764,1.2764,1.2764,1.2764,1.2764,1.2764,1.2764,1.2764,1.2764,1.2764,1.2764,1.2764,1.2764,1.2764,1.2764,1.2764,1.2764,1.2764,1.2764,1.2764,1.2764,1.2764,1.2764,1.2764,1.2764,1.2764,1.2764,1.2764,1.2764,1.2764,1.2764,1.2764,1.2764,1.2764,1.2764,1.2764,1.2764,1.2764,1.2764,1.2764,1.2764,1.2764,1.2764,1.2764,1.2764,0.671,0.7084,0.748,0.7661,0.7596,0.749,0.0,0.0,0.0,0.0,0.0,0.0,0.0,0.0,0.0,0.0,0.0,0.0,0.0,0.0,0.0,0.0,0.0,0.0,1.4196,1.4369,1.4482,1.4482,1.4665,1.4778,1.4778,1.4778,1.4686,1.4487,1.4482,1.439,1.4196,1.4196,1.4196,1.4196,1.4229,1.4229,1.4196,1.4266,1.4261,1.4196,1.4229,1.4223,1.4196,1.4196,1.4196,1.4196,1.4196,1.4196,1.4196,1.4196,1.4196,1.4196,1.4196,1.4169,1.4067,1.362,1.3453,1.334,1.2899,1.2764,1.2764,1.2764,1.2764,1.2764,1.2764,1.2764,1.2764,1.2764,1.2764,1.2764,1.2764,1.2764,1.2764,1.2764,1.2764,1.2764,1.2764,1.2764,1.2764,1.2764,1.2764,1.2764,1.2764,1.2764,1.2764,1.2764,1.2764,1.2764,1.2764,1.2764,1.2764,1.2764,1.2764,1.2764,1.2764,1.2764,1.2764,1.2764,1.2764,1.2764,1.2764,1.2764,1.2764,1.2764,1.2764,1.2764,0.6869,0.7381,0.7655,0.7289,0.7472,0.7704,0.0,0.0,0.0,0.0,0.0,0.0,0.0,0.0,0.0,0.0,0.0,0.0,0.0,0.0,0.0,0.0,0.0,1.4196,1.4196,1.4223,1.4245,1.4245,1.4283,1.4299,1.4299,1.4299,1.4283,1.425,1.4245,1.4229,1.4196,1.4196,1.4196,1.4196,1.439,1.4379,1.4207,1.46,1.4562,1.4207,1.4401,1.4374,1.4196,1.4196,1.4196,1.4196,1.4196,1.4196,1.4196,1.4196,1.4196,1.4196,1.4196,1.4056,1.383,1.3566,1.3335,1.3109,1.2845,1.2764,1.2764,1.2764,1.2764,1.2764,1.2764,1.2764,1.2764,1.2764,1.2764,1.2764,1.2764,1.2764,1.2764,1.2764,1.2764,1.2764,1.2764,1.2764,1.2764,1.2764,1.2764,1.2764,1.2764,1.2764,1.2764,1.2764,1.2764,1.2764,1.2764,1.2764,1.2764,1.2764,1.2764,1.2764,1.2764,1.2764,1.2764,1.2764,1.2764,1.2764,1.2764,1.2764,1.2764,1.2764,1.2764,1.2764,0.6589,0.7052,0.7424,0.7462,0.7925,0.8344,0.0,0.0,0.0,0.0,0.0,0.0,0.0,0.0,0.0,0.0,0.0,0.0,0.0,0.0,0.0,0.0,0.0,1.4196,1.4196,1.4196,1.4196,1.4196,1.4196,1.4196,1.4196,1.4196,1.4196,1.4196,1.4196,1.4196,1.4196,1.4196,1.4196,1.4196,1.4299,1.4299,1.4202,1.4417,1.4396,1.4202,1.4304,1.4293,1.4196,1.4196,1.4196,1.4196,1.4196,1.4196,1.4196,1.4196,1.4196,1.4196,1.4196,1.4121,1.3959,1.3593,1.34,1.3238,1.2872,1.2764,1.2764,1.2764,1.2764,1.2764,1.2764,1.2764,1.2764,1.2764,1.2764,1.2764,1.2764,1.2764,1.2764,1.2764,1.2764,1.2764,1.2764,1.2764,1.2764,1.2764,1.2764,1.2764,1.2764,1.2764,1.2764,1.2764,1.2764,1.2764,1.2764,1.2764,1.2764,1.2764,1.2764,1.2764,1.2764,1.2764,1.2764,1.2764,1.2764,1.2764,1.2764,1.2764,1.2764,1.2764,1.2467,1.2565,0.646,0.6816,0.7198,0.0,0.0,0.0,0.0,0.0,0.0,0.0,0.0,0.0,0.0,0.0,0.0,0.0,0.0,0.0,0.0,1.3125,1.3394,1.3394,1.3766,1.4024,1.4024,1.4024,1.4024,1.4024,1.4024,1.4024,1.4024,1.4024,1.4051,1.4105,1.411,1.4132,1.4196,1.4196,1.4196,1.4196,1.4196,1.4196,1.4196,1.4196,1.4196,1.4196,1.4196,1.4196,1.4196,1.4196,1.4196,1.4196,1.4196,1.4196,1.4196,1.4196,1.4196,1.4196,1.4196,1.4121,1.3965,1.3599,1.34,1.3243,1.2877,1.2764,1.2764,1.2764,1.2764,1.2764,1.2764,1.2764,1.2764,1.2764,1.2764,1.2764,1.2764,1.2764,1.2764,1.2764,1.2764,1.2764,1.2764,1.2764,1.2764,1.2764,1.2764,1.2764,1.2764,1.2764,1.2764,1.2764,1.2764,1.2764,1.2764,1.2764,1.2764,1.2764,1.2764,1.2764,1.2764,1.2764,1.2764,1.2764,1.2764,1.2764,1.2764,1.2662,1.257,1.2565,1.2073,1.2078,0.6848,0.7058,0.7198,0.7677,0.0,0.0,0.0,0.0,0.0,0.0,0.0,0.0,0.0,0.0,0.0,0.0,0.0,0.0,0.0,0.0,1.313,1.313,1.3367,1.3529,1.3529,1.3529,1.3529,1.3529,1.3529,1.3529,1.3529,1.3529,1.3626,1.3841,1.3846,1.3959,1.4191,1.4196,1.4196,1.4196,1.4196,1.4196,1.4196,1.4196,1.4196,1.4196,1.4196,1.4196,1.4196,1.4196,1.4196,1.4196,1.4196,1.4196,1.4196,1.4196,1.4196,1.4196,1.4196,1.39,1.3523,1.3491,1.3179,1.2807,1.2775,1.2764,1.2764,1.2764,1.2764,1.2764,1.2764,1.2764,1.2764,1.2764,1.2764,1.2764,1.2764,1.2764,1.2764,1.2764,1.2764,1.2764,1.2764,1.2764,1.2764,1.2764,1.2764,1.2764,1.2764,1.2764,1.2764,1.2764,1.2764,1.2764,1.2764,1.2764,1.2764,1.2764,1.2764,1.2764,1.2764,1.2764,1.2764,1.2764,1.2764,1.2764,1.2764,1.2273,1.2078,1.2078,1.1487,1.1292,0.6676,0.6972,0.0,0.0,0.0,0.0,0.0,0.0,0.0,0.0,0.0,0.0,0.0,0.0,0.0,0.0,0.0,0.0,1.2764,1.2958,1.3104,1.3104,1.3324,1.348,1.348,1.348,1.348,1.348,1.348,1.348,1.348,1.348,1.3518,1.3604,1.3604,1.3653,1.375,1.375,1.375,1.3755,1.4051,1.4116,1.3965,1.4121,1.411,1.3959,1.3959,1.4051,1.4186,1.4029,1.4051,1.4196,1.4196,1.4196,1.4175,1.4019,1.3959,1.3943,1.3798,1.3631,1.3453,1.3297,1.312,1.2947,1.2807,1.2764,1.2764,1.2764,1.2764,1.2764,1.2764,1.2764,1.2764,1.2764,1.2764,1.2764,1.2764,1.2764,1.2764,1.2764,1.2764,1.2764,1.2764,1.2764,1.2764,1.2764,1.2764,1.2764,1.2764,1.2764,1.2764,1.2764,1.2764,1.2764,1.2764,1.2764,1.2764,1.2764,1.2764,1.2764,1.2764,1.2764,1.2764,1.2764,1.2764,1.2662,1.2273,1.2078,1.178,1.1487,1.0998,1.09,0.6584,0.6957,0.0,0.0,0.0,0.0,0.0,0.0,0.0,0.0,0.0,0.0,0.0,0.0,0.0,0.0,0.0,1.2764,1.2764,1.2899,1.2996,1.2996,1.3147,1.3254,1.3254,1.3254,1.3254,1.3254,1.3254,1.3254,1.3254,1.3254,1.3287,1.3357,1.3362,1.34,1.348,1.348,1.348,1.348,1.3809,1.3879,1.3717,1.389,1.3873,1.3712,1.3712,1.3809,1.3954,1.3782,1.3857,1.4078,1.4078,1.4126,1.4153,1.383,1.3755,1.3787,1.3556,1.3427,1.333,1.3157,1.3055,1.2969,1.2813,1.2764,1.2764,1.2764,1.2764,1.2764,1.2764,1.2764,1.2764,1.2764,1.2764,1.2764,1.2764,1.2764,1.2764,1.2764,1.2764,1.2764,1.2764,1.2764,1.2764,1.2764,1.2764,1.2764,1.2764,1.2764,1.2764,1.2764,1.2764,1.2764,1.2764,1.2764,1.2764,1.2764,1.2764,1.2764,1.2764,1.2764,1.2764,1.2764,1.2662,1.237,1.198,1.1683,1.1292,1.09,1.0413,1.0314,0.6766,0.0,0.0,0.0,0.0,0.0,0.0,0.0,0.0,0.0,0.0,0.0,0.0,0.0,0.0,1.2684,1.2764,1.2764,1.2764,1.2764,1.2764,1.2764,1.2764,1.2764,1.2764,1.2764,1.2764,1.2764,1.2764,1.2764,1.2764,1.2764,1.2867,1.3093,1.3104,1.3217,1.347,1.3475,1.3475,1.3475,1.3475,1.3475,1.3475,1.348,1.348,1.3475,1.3475,1.3475,1.348,1.348,1.3615,1.382,1.382,1.397,1.4126,1.3653,1.362,1.3782,1.355,1.3308,1.3104,1.3104,1.2947,1.2764,1.2764,1.2764,1.2764,1.2764,1.2764,1.2764,1.2764,1.2764,1.2764,1.2764,1.2764,1.2764,1.2764,1.2764,1.2764,1.2764,1.2764,1.2764,1.2764,1.2764,1.2764,1.2764,1.2764,1.2764,1.2764,1.2764,1.2764,1.2764,1.2764,1.2764,1.2764,1.2764,1.2764,1.2764,1.2764,1.2764,1.2764,1.2764,1.2764,1.2764,1.2273,1.198,1.1975,1.09,1.0413,1.0413,0.9826,0.9628,0.7372,0.0,0.0,0.0,0.0,0.0,0.0,0.0,0.0,0.0,0.0,0.0,0.0,0.0,0.0,1.2743,1.2764,1.2764,1.2764,1.2764,1.2764,1.2764,1.2764,1.2764,1.2764,1.2764,1.2764,1.2764,1.2764,1.2764,1.2764,1.2764,1.2797,1.2861,1.2867,1.2899,1.2974,1.2974,1.2974,1.2974,1.2974,1.306,1.3222,1.34,1.3383,1.3217,1.3217,1.3313,1.348,1.348,1.3518,1.3583,1.3583,1.3626,1.3653,1.333,1.326,1.3287,1.3055,1.2926,1.2867,1.2867,1.2818,1.2764,1.2764,1.2764,1.2764,1.2764,1.2764,1.2764,1.2764,1.2764,1.2764,1.2764,1.2764,1.2764,1.2764,1.2764,1.2764,1.2764,1.2764,1.2764,1.2764,1.2764,1.2764,1.2764,1.2764,1.2764,1.2764,1.2764,1.2764,1.2764,1.2764,1.2764,1.2764,1.2764,1.2764,1.2764,1.2764,1.2764,1.2764,1.2764,1.2662,1.2273,1.2078,1.1585,1.09,1.0609,1.0216,0.9821,0.9628,0.9628,0.0,0.0,0.0,0.0,0.0,0.0,0.0,0.0,0.0,0.0,0.0,0.0,0.0,0.0,0.0,1.2748,1.2764,1.2764,1.2764,1.2764,1.2764,1.2764,1.2764,1.2764,1.2764,1.2764,1.2764,1.2764,1.2764,1.2764,1.2764,1.2764,1.2764,1.2764,1.2764,1.2764,1.2764,1.2764,1.2764,1.2764,1.2764,1.2834,1.2974,1.3125,1.3109,1.2969,1.2969,1.3055,1.32,1.3292,1.333,1.333,1.333,1.3394,1.3437,1.3093,1.3028,1.3071,1.2845,1.2764,1.2764,1.2764,1.2764,1.2764,1.2764,1.2764,1.2764,1.2764,1.2764,1.2764,1.2764,1.2764,1.2764,1.2764,1.2764,1.2764,1.2764,1.2764,1.2764,1.2764,1.2764,1.2764,1.2764,1.2764,1.2764,1.2764,1.2764,1.2764,1.2764,1.2764,1.2764,1.2764,1.2764,1.2764,1.2764,1.2764,1.2764,1.2764,1.2764,1.2764,1.2764,1.2764,1.2565,1.198,1.178,1.1296,1.0413,1.0216,0.992,0.9628,0.9628,0.9628,0.0,0.0,0.0,0.0,0.0,0.0,0.0,0.0,0.0,0.0,0.0,0.0,0.0,1.2587,1.2517,1.2727,1.2764,1.2764,1.2764,1.2764,1.2764,1.2764,1.2764,1.2764,1.2764,1.2764,1.2764,1.2764,1.2764,1.2764,1.2764,1.2764,1.2764,1.2764,1.2764,1.2764,1.2764,1.2764,1.2764,1.2764,1.2764,1.2764,1.2764,1.2764,1.2764,1.2764,1.2764,1.2764,1.278,1.2985,1.3071,1.3071,1.3071,1.3211,1.3362,1.2926,1.2894,1.3044,1.2834,1.2764,1.2764,1.2764,1.2764,1.2764,1.2764,1.2764,1.2764,1.2764,1.2764,1.2764,1.2764,1.2764,1.2764,1.2764,1.2764,1.2764,1.2764,1.2764,1.2764,1.2764,1.2764,1.2764,1.2764,1.2764,1.2764,1.2764,1.2764,1.2764,1.2764,1.2764,1.2764,1.2764,1.2764,1.2764,1.2764,1.2764,1.2764,1.2764,1.2764,1.2764,1.2764,1.2764,1.2467,1.198,1.1389,1.09,1.0314,0.9821,0.9628,0.9628,0.9628,0.9628,0.0,0.0,0.0,0.0,0.0,0.0,0.0,0.0,0.0,0.0,0.0,0.0,1.2754,1.2721,1.2705,1.2754,1.2764,1.2764,1.2764,1.2764,1.2764,1.2764,1.2764,1.2764,1.2764,1.2764,1.2764,1.2764,1.2764,1.2764,1.2764,1.2764,1.2764,1.2764,1.2764,1.2764,1.2764,1.2764,1.2764,1.2764,1.2764,1.2764,1.2764,1.2764,1.2764,1.2764,1.2764,1.2764,1.2764,1.2818,1.2834,1.2834,1.2834,1.2867,1.2904,1.2802,1.2797,1.2829,1.278,1.2764,1.2764,1.2764,1.2764,1.2764,1.2764,1.2764,1.2764,1.2764,1.2764,1.2764,1.2764,1.2764,1.2764,1.2764,1.2764,1.2764,1.2764,1.2764,1.2764,1.2764,1.2764,1.2764,1.2764,1.2764,1.2764,1.2764,1.2764,1.2764,1.2764,1.2764,1.2764,1.2764,1.2764,1.2764,1.2764,1.2764,1.2764,1.2764,1.2764,1.257,1.2175,1.2175,1.1883,1.1389,1.0806,1.0314,0.9727,0.9628,0.9628,0.9628,0.9628,0.9628,0.0,0.0,0.0,0.0,0.0,0.0,0.0,0.0,0.0,0.0,0.0,0.0,1.2861,1.2764,1.2764,1.2764,1.2764,1.2764,1.2764,1.2764,1.2764,1.2764,1.2764,1.2764,1.2764,1.2764,1.2764,1.2764,1.2764,1.2764,1.2764,1.2764,1.2764,1.2764,1.2764,1.2764,1.2764,1.2764,1.2764,1.2764,1.2764,1.2764,1.2764,1.2764,1.2764,1.2764,1.2764,1.2764,1.2764,1.2764,1.2764,1.2764,1.2764,1.2764,1.2764,1.2764,1.2764,1.2764,1.2764,1.2764,1.2764,1.2764,1.2764,1.2764,1.2764,1.2764,1.2764,1.2764,1.2764,1.2764,1.2764,1.2764,1.2764,1.2764,1.2764,1.2764,1.2764,1.2764,1.2764,1.2764,1.2764,1.2764,1.2764,1.2764,1.2764,1.2764,1.2764,1.2764,1.2764,1.2764,1.2764,1.2764,1.2764,1.2764,1.2764,1.2764,1.2764,1.2764,1.2764,1.2565,1.1975,1.178,1.1389,1.0801,1.0507,1.0117,0.9628,0.9628,0.9628,0.9628,0.9628,0.9628,0.0,0.0,0.0,0.0,0.0,0.0,0.0,0.0,0.0,0.0,0.0,1.3567,1.2948,1.2764,1.2764,1.2764,1.2764,1.2764,1.2764,1.2764,1.2764,1.2764,1.2764,1.2764,1.2764,1.2764,1.2764,1.2764,1.2764,1.2764,1.2764,1.2764,1.2764,1.2764,1.2764,1.2764,1.2764,1.2764,1.2764,1.2764,1.2764,1.2764,1.2764,1.2764,1.2764,1.2764,1.2764,1.2764,1.2764,1.2764,1.2764,1.2764,1.2764,1.2764,1.2764,1.2764,1.2764,1.2764,1.2764,1.2764,1.2764,1.2764,1.2764,1.2764,1.2764,1.2764,1.2764,1.2764,1.2764,1.2764,1.2764,1.2764,1.2764,1.2764,1.2764,1.2764,1.2764,1.2764,1.2764,1.2764,1.2764,1.2764,1.2764,1.2764,1.2764,1.2764,1.2764,1.2764,1.2764,1.2764,1.2764,1.2764,1.2764,1.2764,1.2764,1.2764,1.2764,1.2764,1.2764,1.2565,1.1883,1.1487,1.09,1.0314,1.0216,1.0019,0.9628,0.9628,0.9628,0.9628,0.9628,0.9628,0.0,0.0,0.0,0.0,0.0,0.0,0.0,0.0,0.0,0.0,0.0,1.336,1.2915,1.2764,1.2764,1.2764,1.2764,1.2764,1.2764,1.2764,1.2764,1.2764,1.2764,1.2764,1.2764,1.2764,1.2764,1.2764,1.2764,1.2764,1.2764,1.2764,1.2764,1.2764,1.2764,1.2764,1.2764,1.2764,1.2764,1.2764,1.2764,1.2764,1.2764,1.2764,1.2764,1.2764,1.2764,1.2764,1.2764,1.2764,1.2764,1.2764,1.2764,1.2764,1.2764,1.2764,1.2764,1.2764,1.2764,1.2764,1.2764,1.2764,1.2764,1.2764,1.2764,1.2764,1.2764,1.2764,1.2764,1.2764,1.2764,1.2764,1.2764,1.2764,1.2764,1.2764,1.2764,1.2764,1.2764,1.2764,1.2764,1.2764,1.2764,1.2764,1.2764,1.2764,1.2764,1.2764,1.2764,1.2764,1.2764,1.2764,1.2764,1.2764,1.2764,1.2764,1.2764,1.2764,1.2764,1.237,1.1389,1.1194,1.0708,0.9727,0.9727,0.9628,0.9628,0.9628,0.9628,0.9628,0.9628,0.9628,0.0,0.0,0.0,0.0,0.0,0.0,0.0,0.0,0.0,0.0,1.3721,1.3391,1.2685,1.2571,1.2614,1.2743,1.2764,1.2764,1.2764,1.2764,1.2764,1.2764,1.2764,1.2764,1.2764,1.2764,1.2764,1.2764,1.2764,1.2764,1.2764,1.2764,1.2764,1.2764,1.2764,1.2764,1.2764,1.2764,1.2764,1.2764,1.2764,1.2764,1.2764,1.2764,1.2764,1.2764,1.2764,1.2764,1.2764,1.2764,1.2764,1.2764,1.2764,1.2764,1.2764,1.2764,1.2764,1.2764,1.2764,1.2764,1.2764,1.2764,1.2764,1.2764,1.2764,1.2764,1.2764,1.2764,1.2764,1.2764,1.2764,1.2764,1.2764,1.2764,1.2764,1.2764,1.2764,1.2764,1.2764,1.2764,1.2764,1.2764,1.2764,1.2764,1.2764,1.2764,1.2764,1.2764,1.2764,1.2764,1.2764,1.2764,1.2764,1.2764,1.2764,1.2764,1.2764,1.2764,1.2764,1.2273,1.1194,1.1194,1.0708,0.9628,0.9628,0.9628,0.9628,0.9628,0.9628,0.9628,0.9628,0.9628,0.0,0.0,0.0,0.0,0.0,0.0,0.0,0.0,0.0,0.0,1.3646,1.3404,1.2607,1.2373,1.2382,1.2554,1.2635,1.2678,1.2678,1.2727,1.2764,1.2764,1.2764,1.2764,1.2764,1.2764,1.2764,1.2764,1.2764,1.2764,1.2764,1.2764,1.2764,1.2764,1.2764,1.2764,1.2764,1.2764,1.2764,1.2764,1.2764,1.2764,1.2764,1.2764,1.2764,1.2764,1.2764,1.2764,1.2764,1.2764,1.2764,1.2764,1.2764,1.2764,1.2764,1.2764,1.2764,1.2764,1.2764,1.2764,1.2764,1.2764,1.2764,1.2764,1.2764,1.2764,1.2764,1.2764,1.2764,1.2764,1.2764,1.2764,1.2764,1.2764,1.2764,1.2764,1.2764,1.2764,1.2764,1.2764,1.2764,1.2764,1.2764,1.2764,1.2764,1.2764,1.2764,1.2764,1.2764,1.2764,1.2764,1.2764,1.2764,1.2764,1.2764,1.2764,1.2764,1.2764,1.2764,1.2273,1.1194,1.1194,1.0708,0.9628,0.9628,0.9628,0.9628,0.9628,0.9628,0.9628,0.9628,0.9529,0.0,0.0,0.0,0.0,0.0,0.0,0.0,0.0,0.0,0.0,1.3638,1.3243,1.2727,1.2355,1.2162,1.2173,1.228,1.2431,1.2431,1.2624,1.2764,1.2764,1.2764,1.2764,1.2764,1.2764,1.2764,1.2764,1.2764,1.2764,1.2764,1.2764,1.2764,1.2764,1.2764,1.2764,1.2764,1.2764,1.2764,1.2764,1.2764,1.2764,1.2764,1.2764,1.2764,1.2764,1.2764,1.2764,1.2764,1.2764,1.2764,1.2764,1.2764,1.2764,1.2764,1.2764,1.2764,1.2764,1.2764,1.2764,1.2764,1.2764,1.2764,1.2764,1.2764,1.2764,1.2764,1.2764,1.2764,1.2764,1.2764,1.2764,1.2764,1.2764,1.2764,1.2764,1.2764,1.2764,1.2764,1.2764,1.2764,1.2764,1.2764,1.2764,1.2764,1.2764,1.2764,1.2764,1.2764,1.2764,1.2764,1.2764,1.2764,1.2764,1.2764,1.2764,1.2764,1.2764,1.2764,1.2273,1.1194,1.1194,1.0708,0.9628,0.9628,0.9628,0.9628,0.9628,0.9628,0.9628,0.9628,0.9229,0.0,0.0,0.0,0.0,0.0,0.0,0.0,0.0,0.0,1.3402,1.3198,1.29,1.2318,1.1992,1.1876,1.2118,1.2124,1.2183,1.2183,1.2248,1.2361,1.2522,1.2404,1.2366,1.2527,1.2538,1.2538,1.2538,1.2678,1.2764,1.2764,1.2764,1.2764,1.2764,1.2764,1.2764,1.2764,1.2764,1.2764,1.2764,1.2764,1.2764,1.2764,1.2764,1.2764,1.2764,1.2764,1.2764,1.2764,1.2764,1.2764,1.2764,1.2764,1.2764,1.2764,1.2764,1.2764,1.2764,1.2764,1.2764,1.2764,1.2764,1.2764,1.2764,1.2764,1.2764,1.2764,1.2764,1.2764,1.2764,1.2764,1.2764,1.2764,1.2764,1.2764,1.2764,1.2764,1.2764,1.2764,1.2764,1.2764,1.2764,1.2764,1.2764,1.2764,1.2764,1.2764,1.2764,1.2764,1.2764,1.2764,1.2764,1.2764,1.2764,1.2764,1.2764,1.2764,1.2764,1.2467,1.198,1.1194,1.09,1.0314,0.9628,0.913,0.913,0.9628,0.9628,0.9327,0.8832,0.8832,0.8432,0.0,0.0,0.0,0.0,0.0,0.0,0.0,0.0,0.0,1.2755,1.2835,1.2711,1.1986,1.1708,1.1706,1.1852,1.1881,1.193,1.193,1.2,1.2108,1.2269,1.2145,1.2113,1.2274,1.2291,1.2291,1.2291,1.2436,1.2522,1.2522,1.2603,1.2684,1.2759,1.2764,1.2764,1.2764,1.2764,1.2764,1.2764,1.2764,1.2764,1.2764,1.2764,1.2764,1.2764,1.2764,1.2764,1.2764,1.2764,1.2764,1.2764,1.2764,1.2764,1.2764,1.2764,1.2764,1.2764,1.2764,1.2764,1.2764,1.2764,1.2764,1.2764,1.2764,1.2764,1.2764,1.2764,1.2764,1.2764,1.2764,1.2764,1.2764,1.2764,1.2764,1.2764,1.2764,1.2764,1.2764,1.2764,1.2764,1.2764,1.2764,1.2764,1.2764,1.2764,1.2764,1.2764,1.2764,1.2764,1.2764,1.2764,1.2764,1.2764,1.2764,1.2764,1.2764,1.2764,1.2273,1.1683,1.0797,1.0306,0.962,0.8829,0.8233,0.8233,0.8829,0.8829,0.8531,0.8035,0.8035,0.7537,0.0,0.0,0.0,0.0,0.0,0.0,0.0,0.0,1.2351,1.2109,1.2512,1.2632,1.183,1.1576,1.1426,1.1337,1.1526,1.1682,1.1688,1.1887,1.2124,1.2129,1.2124,1.2124,1.2129,1.2129,1.2129,1.2129,1.2135,1.214,1.214,1.2274,1.2506,1.2732,1.2748,1.2754,1.2754,1.2759,1.2764,1.2764,1.2764,1.2764,1.2764,1.2764,1.2764,1.2764,1.2764,1.2764,1.2764,1.2764,1.2764,1.2764,1.2764,1.2764,1.2764,1.2764,1.2764,1.2764,1.2764,1.2764,1.2764,1.2764,1.2764,1.2764,1.2764,1.2764,1.2764,1.2764,1.2764,1.2764,1.2764,1.2764,1.2764,1.2764,1.2764,1.2764,1.2764,1.2764,1.2764,1.2764,1.2764,1.2764,1.2764,1.2764,1.2764,1.2764,1.2764,1.2764,1.2764,1.2764,1.2764,1.2764,1.2764,1.2764,1.2764,1.2764,1.2759,1.2759,1.2273,1.1385,0.9998,0.941,0.8524,0.7235,0.7138,0.7138,0.7138,0.7238,0.7238,0.7138,0.7138,0.6739,0.7355,0.0,0.0,0.0,0.0,0.0,0.0,0.0,0.0,1.1132,1.1233,1.1291,1.1093,1.0806,1.0647,1.0783,1.1031,1.1241,1.1424,1.1499,1.1607,1.1774,1.1645,1.1607,1.1779,1.1795,1.1795,1.1795,1.1951,1.214,1.214,1.2113,1.2178,1.2335,1.2414,1.2511,1.2511,1.2678,1.2764,1.2764,1.2764,1.2764,1.2764,1.2764,1.2764,1.2764,1.2764,1.2764,1.2764,1.2764,1.2764,1.2764,1.2764,1.2764,1.2764,1.2764,1.2764,1.2764,1.2764,1.2764,1.2764,1.2764,1.2764,1.2764,1.2764,1.2764,1.2764,1.2764,1.2764,1.2764,1.2764,1.2764,1.2764,1.2764,1.2764,1.2764,1.2764,1.2764,1.2764,1.2764,1.2764,1.2764,1.2764,1.2764,1.2764,1.2764,1.2764,1.2764,1.2764,1.2764,1.2764,1.2764,1.2764,1.2764,1.2764,1.2764,1.2365,1.1375,1.0886,0.9998,0.8616,0.8028,0.7534,0.7238,0.6639,0.6339,0.6339,0.6939,0.6939,0.6342,0.5737,0.5336,0.0,0.0,0.0,0.0,0.0,0.0,0.9687,1.0119,0.0,0.0,1.0351,1.0444,1.0095,1.0031,1.0135,1.0266,1.0449,1.0659,1.092,1.0968,1.1139,1.1375,1.1278,1.1289,1.1532,1.1553,1.1553,1.1553,1.1677,1.1801,1.1898,1.1903,1.1946,1.2135,1.2188,1.2264,1.2264,1.2495,1.2619,1.2619,1.2716,1.2764,1.2764,1.2764,1.2764,1.2764,1.2764,1.2764,1.2764,1.2764,1.2764,1.2764,1.2764,1.2764,1.2764,1.2764,1.2764,1.2764,1.2764,1.2764,1.2764,1.2764,1.2764,1.2764,1.2764,1.2764,1.2764,1.2764,1.2764,1.2764,1.2764,1.2764,1.2764,1.2764,1.2764,1.2764,1.2764,1.2764,1.2764,1.2764,1.2764,1.2764,1.2764,1.2764,1.2764,1.2764,1.2764,1.2764,1.2764,1.2764,1.2764,1.2764,1.2764,1.2662,1.2165,1.2165,1.1575,1.0391,0.9698,0.881,0.772,0.7033,0.6539,0.6234,0.5737,0.5539,0.5539,0.5937,0.5937,0.5438,0.5035,0.4834,0.0,0.0,0.0,0.0,0.0,0.0,0.9877,1.0024,0.9866,0.0,0.9761,0.9991,0.9151,0.938,0.974,0.9805,0.9862,0.9997,1.0557,1.0638,1.0713,1.0918,1.0945,1.1031,1.1166,1.1187,1.1187,1.1187,1.1209,1.1413,1.1645,1.1661,1.1752,1.1962,1.1995,1.2102,1.2102,1.2253,1.2377,1.2377,1.2587,1.2694,1.2727,1.2727,1.2737,1.2764,1.2764,1.2764,1.2764,1.2764,1.2764,1.2764,1.2764,1.2764,1.2764,1.2764,1.2764,1.2764,1.2764,1.2764,1.2764,1.2764,1.2764,1.2764,1.2764,1.2764,1.2764,1.2764,1.2764,1.2764,1.2764,1.2764,1.2764,1.2764,1.2764,1.2764,1.2764,1.2764,1.2764,1.2764,1.2764,1.2764,1.2764,1.2764,1.2764,1.2662,1.2662,1.2565,1.2462,1.2467,1.2467,1.2467,1.2467,1.2068,1.1077,1.0974,1.0583,0.9406,0.8612,0.7819,0.6924,0.6237,0.5539,0.4834,0.4834,0.4834,0.4834,0.4834,0.4834,0.4834,0.4834,0.4834,0.0,0.0,0.0,0.0,0.0,0.0,0.9387,0.9541,0.9645,0.0,0.9471,0.9522,0.9309,0.9407,0.9403,0.9262,0.9417,0.979,1.0487,1.0638,1.0654,1.0697,1.0702,1.0724,1.0767,1.0778,1.0778,1.0778,1.095,1.116,1.1408,1.1418,1.144,1.1483,1.1671,1.1768,1.1768,1.2,1.2118,1.2124,1.2167,1.2291,1.2484,1.2484,1.2587,1.2764,1.2764,1.2764,1.2764,1.2764,1.2764,1.2764,1.2764,1.2764,1.2764,1.2764,1.2764,1.2764,1.2764,1.2764,1.2764,1.2764,1.2764,1.2764,1.2764,1.2764,1.2764,1.2764,1.2764,1.2764,1.2764,1.2764,1.2764,1.2764,1.2764,1.2764,1.2764,1.2764,1.2764,1.2764,1.2764,1.2764,1.2764,1.2764,1.2462,1.1668,1.1468,1.1175,1.0297,1.0199,1.0199,1.0199,1.0199,1.01,0.9899,0.9899,0.9304,0.772,0.7521,0.6825,0.5331,0.5135,0.4935,0.4834,0.4834,0.4834,0.4834,0.4834,0.4834,0.4834,0.4834,0.4834,0.0,0.0,0.0,0.9431,0.0,0.0,0.0,0.9621,0.9552,0.9446,0.9173,0.8909,0.9008,0.8646,0.8454,0.8646,0.8851,0.9096,0.9497,0.9776,0.997,1.0094,1.0207,1.0326,1.0455,1.0568,1.0638,1.0638,1.074,1.0918,1.1155,1.1165,1.1225,1.1262,1.1462,1.1526,1.1526,1.1758,1.1876,1.1876,1.2086,1.2113,1.2231,1.2231,1.2361,1.2587,1.2587,1.2657,1.2764,1.2764,1.2764,1.2764,1.2764,1.2764,1.2764,1.2764,1.2764,1.2764,1.2764,1.2764,1.2764,1.2764,1.2764,1.2764,1.2764,1.2764,1.2764,1.2764,1.2764,1.2764,1.2764,1.2764,1.2764,1.2764,1.2764,1.2764,1.2764,1.2764,1.2662,1.2068,1.1965,1.1965,1.1965,1.1575,1.0984,1.0489,1.0391,1.019,0.9501,0.9402,0.9304,0.9205,0.9205,0.9011,0.8619,0.8517,0.7918,0.6631,0.6331,0.5834,0.5037,0.4834,0.4834,0.4834,0.4834,0.4834,0.4834,0.4834,0.4834,0.4834,0.4834,0.4834,0.0,0.0,0.0,0.0,0.0,0.9994,0.0,0.0,0.0,0.0,0.0,0.0,0.0,0.0,0.0,0.8061,0.0,0.0,0.0,0.8673,0.0,0.934,0.9577,0.9793,0.9997,1.0186,1.0353,1.0487,1.046,1.0573,1.0902,1.0961,1.1074,1.1273,1.1241,1.1262,1.1262,1.1537,1.1634,1.1634,1.1822,1.1935,1.1978,1.1978,1.2113,1.2344,1.2299,1.2331,1.2603,1.2549,1.2565,1.2667,1.2764,1.2764,1.2764,1.2764,1.2764,1.2764,1.2764,1.2764,1.2764,1.2764,1.2764,1.2764,1.2764,1.2764,1.2764,1.2764,1.2764,1.2764,1.2764,1.2764,1.2764,1.2565,1.2462,1.2462,1.2268,1.217,1.1868,1.0974,1.0681,1.0583,1.0881,1.0194,0.9509,0.9308,0.9312,0.911,0.8609,0.8605,0.851,0.8212,0.8212,0.7918,0.7229,0.7027,0.6631,0.5842,0.5441,0.514,0.514,0.4937,0.4834,0.4834,0.4834,0.4834,0.4834,0.4834,0.4834,0.4834,0.4834,0.4834,0.0,0.0,0.0,0.0,1.0726,1.1048,0.9929,0.0,0.9972,0.9671,0.0,0.0,0.0,0.0,0.0,0.0,0.0,0.0,0.7569,0.7795,0.8124,0.8581,0.884,0.8996,0.9023,0.905,0.9324,0.9954,0.9814,0.9986,1.0638,1.0869,1.0999,1.1025,1.1235,1.1262,1.1262,1.1289,1.1392,1.1392,1.1418,1.1542,1.1741,1.1741,1.1865,1.2102,1.1848,1.1667,1.1707,1.1507,1.1683,1.2175,1.257,1.2764,1.2764,1.2764,1.2764,1.2764,1.2764,1.2764,1.2764,1.2764,1.2764,1.2764,1.2764,1.2764,1.2764,1.2764,1.2764,1.2764,1.2764,1.2764,1.2559,1.157,1.137,1.1077,1.0199,1.0002,0.9899,0.9493,0.8612,0.8418,0.9608,0.9706,0.9308,0.8319,0.8219,0.7726,0.6537,0.6337,0.6237,0.6032,0.5932,0.5934,0.5834,0.5834,0.5636,0.534,0.524,0.514,0.4834,0.4834,0.4834,0.4834,0.4834,0.4834,0.4834,0.4834,0.4834,0.4834,0.4834,0.4834,0.0,0.0,0.0,0.0,1.0697,1.0799,1.006,0.9855,0.9833,0.9885,0.0,0.0,0.0,0.0,0.0,0.0,0.7726,0.0,0.0,0.0,0.7564,0.8043,0.8307,0.8625,0.8907,0.8929,0.8985,0.9281,0.9217,0.9416,0.9992,1.0245,1.0557,1.0972,1.0831,1.0952,1.1262,1.0997,1.0997,1.1262,1.1262,1.1402,1.1499,1.1226,1.117,1.1403,1.1034,1.0959,1.1101,1.102,1.1202,1.1409,1.1731,1.2273,1.2764,1.2764,1.2565,1.237,1.237,1.237,1.237,1.2667,1.2764,1.2759,1.2467,1.2565,1.2764,1.2467,1.2565,1.2764,1.2764,1.2365,1.177,1.1272,1.0681,1.0194,0.9706,0.9608,0.9312,0.8414,0.7925,0.7528,0.7325,0.7325,0.7126,0.6631,0.6631,0.6334,0.5641,0.5541,0.5441,0.5135,0.5135,0.5236,0.5338,0.5236,0.5135,0.524,0.5037,0.4937,0.4834,0.4834,0.4834,0.4834,0.4834,0.4834,0.4834,0.4834,0.4834,0.4834,0.4834,0.4834,1.0924,1.1092,1.1216,1.0711,1.0653,1.0587,1.0082,0.9921,0.9899,0.9958,0.9731,0.0,0.0,0.0,0.0,0.0,0.0,0.7472,0.0,0.6976,0.0,0.0,0.0,0.8118,0.8533,0.8517,0.8528,0.8723,0.8608,0.8807,0.9351,0.959,0.9935,1.0513,1.0243,1.0333,1.0823,1.0555,1.0585,1.1084,1.1084,1.1084,1.1084,1.0727,1.0644,1.0721,1.023,1.0157,1.0412,1.043,1.0508,1.0622,1.083,1.1497,1.2281,1.2344,1.2078,1.178,1.178,1.178,1.1878,1.237,1.2565,1.2467,1.2078,1.2273,1.2467,1.1775,1.1873,1.2073,1.197,1.1375,1.0681,1.0386,0.9698,0.9114,0.8814,0.8616,0.8322,0.7229,0.7033,0.6634,0.5534,0.5534,0.5636,0.5636,0.5636,0.5536,0.524,0.524,0.514,0.4834,0.4834,0.4834,0.5037,0.4937,0.4834,0.5039,0.4937,0.4834,0.4834,0.4834,0.4834,0.4834,0.4834,0.4834,0.4834,0.4834,0.4834,0.4834,0.4834,0.4834,1.1593,1.1765,1.178,1.0821,1.0828,1.0806,0.9848,1.0111,1.0382,0.9753,1.0375,1.0726,0.9681,0.0,0.0,0.0,0.0,0.0,0.0,0.0,0.0,0.0,0.0,0.0,0.7812,0.7628,0.7682,0.8196,0.7962,0.814,0.8918,0.8964,0.9099,0.9347,0.9368,0.9523,0.9742,0.9747,1.0013,1.0636,1.0636,1.0636,1.0636,1.0636,1.0386,0.9975,0.9634,0.9538,0.9556,0.9305,0.9478,0.9957,1.0048,1.05,1.1001,1.1215,1.1194,1.1194,1.1194,1.1194,1.1292,1.1883,1.2078,1.1975,1.198,1.198,1.178,1.0783,1.0489,1.0391,0.9801,0.9706,0.941,0.8319,0.812,0.7723,0.6734,0.6339,0.6039,0.5737,0.5438,0.514,0.4834,0.5233,0.5636,0.5636,0.5636,0.5536,0.524,0.524,0.514,0.4834,0.4834,0.4834,0.4834,0.4834,0.4834,0.4834,0.4834,0.4834,0.4834,0.4834,0.4834,0.4834,0.4834,0.4834,0.4834,0.4834,0.4834,0.4834,0.4834,0.4834,1.0853,1.1056,1.1182,1.0788,1.0753,1.0707,1.0046,1.0272,1.0404,0.9746,1.0221,1.0493,0.9692,0.0,0.0,0.0,0.0,0.0,0.0,0.0,0.0,0.0,0.0,0.0,0.0,0.7402,0.7394,0.7445,0.7666,0.7852,0.8052,0.8511,0.8787,0.8927,0.882,0.8981,0.9518,0.9321,0.9507,1.0008,1.0144,1.0207,1.0207,0.9864,0.9689,0.9524,0.9063,0.8916,0.8932,0.8931,0.9005,0.9204,0.9393,0.963,1.0045,1.0919,1.1002,1.0703,1.0703,1.0703,1.0801,1.1296,1.1487,1.1389,1.1096,1.0797,1.0493,0.9805,0.96,0.9592,0.9399,0.8909,0.8418,0.812,0.7428,0.6833,0.6239,0.6039,0.5842,0.5438,0.524,0.514,0.4834,0.4935,0.5035,0.5035,0.5035,0.5035,0.4937,0.4937,0.4937,0.4834,0.4834,0.4834,0.4834,0.4834,0.4834,0.4834,0.4834,0.4834,0.4834,0.4834,0.4834,0.4834,0.4834,0.4834,0.4834,0.4834,0.4834,0.4834,0.4834,0.4834,0.9925,1.0104,1.0276,1.0078,1.0034,1.0008,0.9802,1.0091,1.021,0.9535,1.0158,1.0465,0.9573,0.9685,0.0,0.0,0.0,0.0,0.0,0.6459,0.0,0.0,0.0,0.0,0.0,0.0,0.7111,0.709,0.7184,0.7328,0.7406,0.7717,0.8012,0.8217,0.804,0.823,0.8815,0.8699,0.8831,0.948,0.9605,0.9707,0.9777,0.9432,0.9174,0.9003,0.874,0.8568,0.8576,0.8686,0.8731,0.8755,0.9003,0.9165,0.9382,1.0237,1.0351,1.0117,1.0117,1.0117,1.0216,1.0703,1.09,1.0806,1.0507,1.0109,0.9604,0.8817,0.8418,0.8113,0.8011,0.7521,0.7126,0.7126,0.6631,0.6037,0.5939,0.5741,0.5641,0.524,0.514,0.5037,0.4834,0.4834,0.4834,0.4834,0.4834,0.4834,0.4834,0.4834,0.4834,0.4834,0.4834,0.4834,0.4834,0.4834,0.4834,0.4834,0.4834,0.4834,0.4834,0.4834,0.4834,0.4834,0.4834,0.4834,0.4834,0.4834,0.4834,0.4834,0.4834,0.4834]},{"header":{"parameterUnit":"m.s-1","parameterCategory":1,"la1":30.6,"la2":29.2853,"lo1":-89.7004,"lo2":-87.6739,"dy":0.0162,"dx":0.0183,"nx":112,"ny":82,"refTime":"2025-07-05T12:00:00:Z","depth":0,"parameterNumber":3,"parameterNumberName":"V-component_of_WINDS"},"data":[0.0,0.0,0.0,0.0,0.0,0.0,0.0,0.0,0.0,0.0,0.0,0.0,0.0,0.0,0.0,0.0,0.0,0.0,0.0,0.0,0.0,0.0,0.0,0.0,0.0,0.0,0.0,0.0,0.0,0.0,0.0,0.0,0.0,0.0,0.0,0.0,0.0,0.0,0.0,0.0,0.0,0.0,0.0,0.0,0.0,0.0,0.0,0.0,0.0,0.0,0.0,0.0,0.0,0.0,0.0,0.0,0.0,0.0,0.0,0.0,0.0,0.0,0.0,0.0,0.0,0.0,0.0,0.0,0.0,0.0,0.0,0.0,0.0,0.0,0.0,0.0,0.0,0.0,0.0,0.0,0.0,0.0,0.0,0.0,0.0,0.0,0.0,0.0,0.0,0.0,-1.8896,-2.0957,-2.3163,-2.45,-2.45,-2.45,-2.3105,-1.9806,0.0,0.0,0.0,0.0,0.0,0.0,0.0,0.0,0.0,0.0,0.0,0.0,0.0,0.0,0.0,0.0,0.0,0.0,0.0,0.0,0.0,0.0,0.0,0.0,0.0,0.0,0.0,0.0,0.0,0.0,0.0,0.0,0.0,0.0,0.0,0.0,0.0,0.0,0.0,0.0,0.0,0.0,0.0,0.0,0.0,0.0,0.0,0.0,0.0,0.0,0.0,0.0,0.0,0.0,0.0,0.0,0.0,0.0,0.0,0.0,0.0,0.0,0.0,0.0,0.0,0.0,0.0,0.0,0.0,0.0,0.0,0.0,0.0,0.0,0.0,0.0,0.0,0.0,0.0,0.0,0.0,0.0,0.0,0.0,0.0,0.0,0.0,0.0,0.0,0.0,0.0,0.0,0.0,0.0,0.0,0.0,0.0,0.0,0.0,0.0,0.0,0.0,0.0,0.0,-1.8711,-2.2442,-2.3832,-2.45,-2.45,-2.45,-2.3105,-1.9806,0.0,0.0,0.0,0.0,0.0,0.0,0.0,0.0,0.0,0.0,0.0,0.0,0.0,0.0,0.0,0.0,0.0,0.0,0.0,0.0,0.0,0.0,0.0,0.0,0.0,0.0,0.0,0.0,0.0,0.0,0.0,0.0,0.0,0.0,0.0,0.0,0.0,0.0,0.0,0.0,0.0,0.0,0.0,0.0,0.0,0.0,0.0,0.0,0.0,0.0,0.0,0.0,0.0,0.0,0.0,0.0,0.0,0.0,0.0,0.0,0.0,0.0,0.0,0.0,0.0,0.0,0.0,0.0,0.0,0.0,0.0,0.0,0.0,0.0,0.0,0.0,0.0,0.0,0.0,0.0,0.0,0.0,0.0,0.0,0.0,0.0,0.0,0.0,0.0,0.0,0.0,0.0,0.0,0.0,0.0,0.0,0.0,0.0,0.0,0.0,0.0,0.0,0.0,-1.8414,-2.0325,-2.3553,-2.4258,-2.45,-2.45,-2.45,-2.3105,-1.9806,-1.8024,0.0,0.0,0.0,0.0,0.0,0.0,0.0,0.0,0.0,0.0,0.0,0.0,0.0,0.0,0.0,0.0,0.0,0.0,0.0,0.0,0.0,0.0,0.0,0.0,0.0,0.0,0.0,0.0,0.0,0.0,0.0,0.0,0.0,0.0,0.0,0.0,0.0,0.0,0.0,0.0,0.0,0.0,0.0,0.0,0.0,0.0,0.0,0.0,0.0,0.0,0.0,0.0,0.0,0.0,0.0,0.0,0.0,0.0,0.0,0.0,0.0,0.0,0.0,0.0,0.0,0.0,0.0,0.0,0.0,0.0,0.0,0.0,0.0,0.0,0.0,0.0,0.0,0.0,0.0,0.0,0.0,0.0,0.0,0.0,0.0,0.0,0.0,0.0,0.0,0.0,0.0,0.0,0.0,0.0,0.0,0.0,0.0,0.0,0.0,0.0,0.0,0.0,-2.1012,-2.2179,-2.4276,-2.45,-2.45,-2.45,-2.4146,-2.268,-1.9769,-1.7671,0.0,0.0,0.0,0.0,0.0,0.0,0.0,0.0,0.0,0.0,0.0,0.0,0.0,0.0,0.0,0.0,0.0,0.0,0.0,0.0,0.0,0.0,0.0,0.0,0.0,0.0,0.0,0.0,0.0,0.0,0.0,0.0,0.0,0.0,0.0,0.0,0.0,0.0,0.0,0.0,0.0,0.0,0.0,0.0,0.0,0.0,0.0,0.0,0.0,0.0,0.0,0.0,0.0,0.0,0.0,0.0,0.0,0.0,0.0,0.0,0.0,0.0,0.0,0.0,0.0,0.0,0.0,0.0,0.0,0.0,0.0,0.0,0.0,0.0,0.0,0.0,0.0,0.0,0.0,0.0,0.0,0.0,0.0,0.0,0.0,0.0,0.0,0.0,0.0,0.0,0.0,0.0,0.0,0.0,0.0,0.0,0.0,0.0,0.0,0.0,0.0,0.0,-2.1643,-2.3407,-2.4388,-2.45,-2.45,-2.45,-2.307,-2.1439,-1.9713,-1.6613,0.0,0.0,0.0,0.0,0.0,0.0,0.0,0.0,0.0,0.0,0.0,0.0,0.0,0.0,0.0,0.0,0.0,0.0,0.0,0.0,0.0,0.0,0.0,0.0,0.0,0.0,0.0,0.0,0.0,0.0,0.0,0.0,0.0,0.0,0.0,0.0,0.0,0.0,0.0,0.0,0.0,0.0,0.0,0.0,0.0,0.0,0.0,0.0,0.0,0.0,0.0,0.0,0.0,0.0,0.0,0.0,0.0,0.0,0.0,0.0,0.0,0.0,0.0,0.0,0.0,0.0,0.0,0.0,0.0,0.0,0.0,0.0,0.0,0.0,0.0,0.0,0.0,0.0,0.0,0.0,0.0,0.0,0.0,0.0,0.0,0.0,0.0,0.0,0.0,0.0,0.0,0.0,0.0,0.0,0.0,0.0,0.0,0.0,0.0,0.0,0.0,0.0,-2.1272,-2.2996,0.0,-2.45,-2.45,-2.45,-2.3923,-2.242,-1.9769,0.0,0.0,0.0,0.0,0.0,0.0,0.0,0.0,0.0,0.0,0.0,0.0,0.0,0.0,0.0,0.0,0.0,0.0,0.0,0.0,0.0,0.0,0.0,0.0,0.0,0.0,0.0,0.0,0.0,0.0,0.0,0.0,0.0,0.0,0.0,0.0,0.0,0.0,0.0,0.0,0.0,0.0,0.0,0.0,0.0,0.0,0.0,0.0,0.0,0.0,0.0,0.0,0.0,0.0,0.0,0.0,0.0,0.0,0.0,0.0,0.0,0.0,0.0,0.0,0.0,0.0,0.0,0.0,0.0,0.0,0.0,0.0,0.0,0.0,0.0,0.0,0.0,0.0,0.0,0.0,0.0,0.0,0.0,0.0,0.0,0.0,0.0,0.0,0.0,0.0,0.0,0.0,0.0,0.0,0.0,0.0,0.0,0.0,0.0,0.0,0.0,0.0,-1.923,-2.1473,-2.3238,0.0,-2.45,-2.45,-2.45,-2.4016,-2.2532,-1.9769,0.0,0.0,0.0,0.0,0.0,0.0,0.0,0.0,0.0,0.0,0.0,0.0,0.0,0.0,0.0,0.0,0.0,0.0,0.0,0.0,0.0,0.0,0.0,0.0,0.0,0.0,0.0,0.0,0.0,0.0,0.0,0.0,0.0,0.0,0.0,0.0,0.0,0.0,0.0,0.0,0.0,0.0,0.0,0.0,0.0,0.0,0.0,0.0,0.0,0.0,0.0,0.0,0.0,0.0,0.0,0.0,0.0,0.0,0.0,0.0,0.0,0.0,0.0,0.0,0.0,0.0,0.0,0.0,0.0,0.0,0.0,0.0,0.0,0.0,0.0,0.0,0.0,0.0,0.0,0.0,0.0,0.0,0.0,0.0,0.0,0.0,0.0,0.0,0.0,0.0,0.0,0.0,0.0,0.0,0.0,0.0,0.0,0.0,0.0,0.0,0.0,0.0,-1.9379,-2.2458,-2.45,-2.45,-2.45,-2.45,-2.45,-2.2978,-2.1328,0.0,0.0,0.0,0.0,0.0,0.0,0.0,0.0,0.0,0.0,0.0,0.0,0.0,0.0,0.0,0.0,0.0,0.0,0.0,0.0,0.0,0.0,0.0,0.0,0.0,0.0,0.0,0.0,0.0,0.0,0.0,0.0,0.0,0.0,0.0,0.0,0.0,0.0,0.0,0.0,0.0,0.0,0.0,0.0,0.0,0.0,0.0,0.0,0.0,0.0,0.0,0.0,0.0,0.0,0.0,0.0,0.0,0.0,0.0,0.0,0.0,0.0,0.0,0.0,0.0,0.0,0.0,0.0,0.0,0.0,0.0,0.0,0.0,0.0,0.0,0.0,0.0,0.0,0.0,0.0,0.0,0.0,0.0,0.0,0.0,0.0,0.0,0.0,0.0,0.0,0.0,0.0,0.0,0.0,0.0,0.0,0.0,0.0,0.0,0.0,0.0,0.0,0.0,-1.9379,-2.2458,-2.45,-2.45,-2.45,-2.45,-2.45,-2.4053,-2.2569,-1.9769,0.0,0.0,0.0,0.0,0.0,0.0,0.0,0.0,0.0,0.0,0.0,0.0,0.0,0.0,0.0,0.0,0.0,0.0,0.0,0.0,0.0,0.0,0.0,0.0,0.0,0.0,0.0,0.0,0.0,0.0,0.0,0.0,0.0,0.0,0.0,0.0,0.0,0.0,0.0,0.0,0.0,0.0,0.0,0.0,0.0,0.0,0.0,0.0,0.0,0.0,0.0,0.0,0.0,0.0,0.0,0.0,0.0,0.0,0.0,0.0,0.0,0.0,0.0,0.0,0.0,0.0,0.0,0.0,0.0,0.0,0.0,0.0,0.0,0.0,0.0,0.0,0.0,0.0,0.0,0.0,0.0,0.0,0.0,0.0,0.0,0.0,0.0,0.0,0.0,0.0,0.0,0.0,0.0,0.0,0.0,0.0,0.0,0.0,0.0,0.0,0.0,0.0,-1.9824,-2.2662,-2.45,-2.45,-2.45,-2.45,-2.45,-2.45,-2.3254,-2.027,0.0,0.0,0.0,0.0,0.0,0.0,0.0,0.0,0.0,0.0,0.0,0.0,0.0,0.0,0.0,0.0,0.0,0.0,0.0,0.0,0.0,0.0,0.0,0.0,0.0,0.0,0.0,0.0,0.0,0.0,0.0,0.0,0.0,0.0,0.0,0.0,0.0,0.0,0.0,0.0,0.0,0.0,0.0,0.0,0.0,0.0,0.0,0.0,0.0,0.0,0.0,0.0,0.0,0.0,0.0,0.0,0.0,0.0,0.0,0.0,0.0,0.0,0.0,0.0,0.0,0.0,0.0,0.0,0.0,0.0,0.0,0.0,0.0,0.0,0.0,0.0,0.0,0.0,0.0,0.0,0.0,0.0,0.0,0.0,0.0,0.0,0.0,0.0,0.0,0.0,0.0,0.0,0.0,0.0,0.0,0.0,0.0,0.0,0.0,0.0,0.0,0.0,-2.0493,-2.2959,-2.45,-2.45,-2.45,-2.45,-2.45,-2.45,-2.3477,-2.1049,0.0,0.0,0.0,0.0,0.0,0.0,0.0,0.0,0.0,0.0,0.0,0.0,0.0,0.0,0.0,0.0,0.0,0.0,0.0,0.0,0.0,0.0,0.0,0.0,0.0,0.0,0.0,0.0,0.0,0.0,0.0,0.0,0.0,0.0,0.0,0.0,0.0,0.0,0.0,0.0,0.0,0.0,0.0,0.0,0.0,0.0,0.0,0.0,0.0,0.0,0.0,0.0,0.0,0.0,0.0,0.0,0.0,0.0,0.0,0.0,-2.2688,-2.1045,0.0,0.0,0.0,0.0,0.0,0.0,0.0,0.0,0.0,0.0,0.0,0.0,0.0,0.0,0.0,0.0,0.0,0.0,0.0,0.0,0.0,0.0,0.0,0.0,0.0,0.0,0.0,0.0,0.0,0.0,0.0,0.0,0.0,0.0,0.0,0.0,0.0,0.0,0.0,0.0,-2.0567,-2.2959,-2.45,-2.45,-2.45,-2.45,-2.45,-2.45,-2.3719,-2.1866,-2.0214,0.0,0.0,0.0,0.0,0.0,0.0,0.0,0.0,0.0,0.0,0.0,0.0,0.0,0.0,0.0,0.0,0.0,0.0,0.0,0.0,0.0,0.0,0.0,0.0,0.0,0.0,0.0,0.0,0.0,0.0,0.0,0.0,0.0,0.0,0.0,0.0,0.0,0.0,0.0,0.0,0.0,0.0,0.0,0.0,0.0,0.0,0.0,0.0,0.0,0.0,0.0,0.0,0.0,0.0,0.0,0.0,0.0,0.0,0.0,-2.6414,-2.4757,0.0,0.0,0.0,0.0,0.0,0.0,0.0,0.0,0.0,0.0,0.0,0.0,0.0,0.0,0.0,0.0,0.0,0.0,0.0,0.0,0.0,0.0,0.0,0.0,0.0,0.0,0.0,0.0,0.0,0.0,0.0,0.0,0.0,0.0,0.0,0.0,0.0,0.0,0.0,0.0,-2.2253,-2.4053,-2.5224,-2.5615,-2.5317,-2.5076,-2.5076,-2.4723,-2.3944,-2.2664,-2.1421,0.0,0.0,0.0,0.0,0.0,0.0,0.0,0.0,0.0,0.0,0.0,0.0,0.0,0.0,0.0,0.0,0.0,0.0,0.0,0.0,0.0,0.0,0.0,0.0,0.0,0.0,0.0,0.0,0.0,0.0,0.0,0.0,0.0,0.0,0.0,0.0,0.0,0.0,0.0,0.0,0.0,0.0,0.0,0.0,0.0,0.0,0.0,0.0,0.0,0.0,0.0,0.0,0.0,-3.07,-3.161,-3.2883,-3.3032,-3.3111,-3.3041,-3.0931,-2.9463,-2.8422,-2.7102,0.0,0.0,0.0,0.0,0.0,0.0,0.0,0.0,0.0,0.0,0.0,0.0,0.0,0.0,0.0,0.0,0.0,0.0,0.0,0.0,0.0,0.0,-2.517,-2.7083,-2.7548,-2.6618,-2.3238,0.0,0.0,0.0,0.0,0.0,0.0,0.0,0.0,0.0,0.0,0.0,-2.4111,-2.5317,-2.6172,-2.6842,-2.6321,-2.5856,-2.5708,-2.5059,-2.4263,-2.3412,-2.2564,-2.1512,0.0,0.0,0.0,0.0,0.0,0.0,0.0,0.0,0.0,0.0,0.0,0.0,0.0,0.0,0.0,0.0,0.0,0.0,0.0,0.0,0.0,0.0,0.0,0.0,0.0,0.0,0.0,0.0,0.0,0.0,0.0,0.0,-1.8399,-2.0295,0.0,0.0,0.0,0.0,0.0,0.0,0.0,0.0,0.0,0.0,0.0,0.0,0.0,-2.953,-3.1092,-3.2667,-3.3523,-3.3673,-3.5906,-3.7044,-3.7203,-3.7917,-3.8189,-3.8116,-3.7801,0.0,-3.0267,-3.0099,0.0,0.0,0.0,0.0,0.0,0.0,0.0,0.0,0.0,0.0,0.0,0.0,0.0,0.0,0.0,0.0,0.0,0.0,0.0,0.0,0.0,0.0,-3.0556,-3.0206,-3.0113,-2.9965,-2.9405,-2.6526,-2.3479,-2.1684,-2.0852,-1.9775,0.0,0.0,0.0,0.0,0.0,0.0,-2.4351,-2.5819,-2.6786,-2.6897,-2.6823,-2.647,-2.5764,-2.5429,-2.4908,-2.4044,-2.3048,-2.2441,-2.2204,-2.0895,0.0,0.0,0.0,0.0,0.0,0.0,0.0,0.0,0.0,0.0,0.0,0.0,0.0,0.0,0.0,0.0,0.0,0.0,0.0,0.0,0.0,0.0,0.0,0.0,0.0,0.0,0.0,0.0,0.0,-1.8483,-2.0979,-2.2267,-2.2492,-2.2365,0.0,0.0,0.0,0.0,0.0,0.0,0.0,0.0,0.0,-3.1682,-3.262,-3.3814,-3.5384,-3.6614,-3.7393,-3.7787,-3.892,-3.9657,-4.0039,-4.0374,-4.0523,-4.0513,-4.0513,-3.885,-3.595,-3.4152,-3.2177,-3.0241,0.0,0.0,0.0,0.0,-2.9537,-2.9388,-3.1114,-3.1169,-3.0389,-2.9813,0.0,0.0,0.0,0.0,0.0,0.0,0.0,-2.7362,-2.8645,-3.0057,-3.1244,-3.1819,-3.1949,-3.1949,-3.1949,-3.0538,-2.8344,-2.5208,-2.4709,-2.3768,-2.0528,-2.0727,0.0,0.0,0.0,-2.4431,-2.6284,-2.7139,-2.7771,-2.8254,-2.7883,-2.7436,-2.7083,-2.6134,-2.5336,-2.4795,-2.3928,-2.3391,-2.3288,-2.2144,-2.0892,0.0,0.0,0.0,0.0,0.0,0.0,0.0,0.0,0.0,0.0,0.0,0.0,0.0,0.0,0.0,0.0,0.0,0.0,0.0,0.0,0.0,0.0,0.0,0.0,0.0,0.0,0.0,0.0,-2.1008,-2.3281,-2.375,-2.5083,-2.548,0.0,0.0,0.0,0.0,0.0,0.0,-3.0748,-3.1066,-3.2582,-3.5633,-3.6592,-3.771,-3.9029,-3.9679,-4.0354,-4.1101,-4.1101,-4.1481,-4.2203,-4.2203,-4.2203,-4.2203,-4.2203,-4.1757,-4.0773,-3.7689,-3.5553,-3.416,-3.3361,-3.3045,-3.3138,-3.3956,-3.3863,-3.364,-3.5702,-3.585,-3.4977,-3.3974,-3.3231,-3.2247,-2.9572,0.0,0.0,0.0,0.0,-2.9999,-3.1467,-3.2028,-3.2451,-3.3658,-3.3937,-3.3937,-3.3937,-3.377,-3.2446,-2.8405,-2.8144,-2.7419,-2.3728,-2.3655,0.0,-2.3934,-2.4653,-2.5911,-2.7863,-2.8272,-2.8682,-2.9332,-2.8831,-2.8327,-2.8104,-2.6766,-2.5725,-2.5248,-2.4438,-2.3858,-2.3624,-2.2958,-2.2214,-2.1348,0.0,0.0,0.0,0.0,0.0,0.0,0.0,0.0,0.0,0.0,0.0,0.0,0.0,0.0,0.0,0.0,0.0,0.0,0.0,0.0,0.0,0.0,0.0,0.0,0.0,0.0,0.0,0.0,0.0,-2.4726,-2.7486,0.0,0.0,0.0,0.0,-2.942,-3.0863,-3.2552,-3.4258,-3.5061,-3.6677,-3.9258,-4.0045,-4.0828,-4.1614,-4.1586,-4.1957,-4.2667,-4.2667,-4.3095,-4.3875,-4.3875,-4.3875,-4.3875,-4.3875,-4.3429,-4.2482,-3.9955,-3.8414,-3.7559,-3.676,-3.6445,-3.6538,-3.7355,-3.7634,-3.7708,-3.8599,-3.8395,-3.7819,-3.8507,-3.7169,-3.5126,-3.4123,-3.2767,0.0,0.0,-3.3287,-3.4086,-3.5014,-3.5813,-3.6408,-3.6482,-3.65,-3.65,-3.65,-3.5906,-3.4383,-3.1039,-3.0426,-2.9823,-2.7834,0.0,-2.7505,-2.6565,-2.728,-2.7956,-2.8067,-2.8831,-2.9351,-2.9407,-2.937,-2.8998,-2.816,-2.7147,-2.6112,-2.5074,-2.4096,-2.3412,-2.3151,-2.3312,-2.2962,-2.1966,-2.0581,0.0,0.0,0.0,0.0,0.0,0.0,0.0,0.0,0.0,0.0,0.0,0.0,0.0,0.0,0.0,0.0,0.0,0.0,0.0,0.0,0.0,0.0,0.0,0.0,0.0,0.0,0.0,0.0,-2.8651,-3.0696,0.0,-3.0077,-3.1953,-3.336,-3.3561,-3.5139,-3.6813,-3.8483,-3.8858,-3.9883,-4.1734,-4.2127,-4.2614,-4.3223,-4.3301,-4.3469,-4.3707,-4.3707,-4.3855,-4.4135,-4.4036,-4.4005,-4.4005,-4.4005,-4.3838,-4.3503,-4.2612,-4.146,-4.0253,-3.9974,-3.9844,-3.9881,-4.0178,-4.0271,-4.0308,-4.0606,-4.0513,-4.0234,-4.0011,-3.8618,-3.6983,-3.6668,-3.5813,-3.4996,-3.5293,-3.559,-3.5869,-3.6185,-3.6482,-3.6686,-3.6686,-3.6686,-3.6686,-3.6686,-3.6463,-3.5757,-3.4067,-3.2878,-3.1593,-2.9894,-2.9659,-2.9588,-2.9228,-2.9474,-2.9909,-3.0408,-3.0318,-3.0188,-3.0248,-2.9746,-2.928,-2.8944,-2.7539,-2.645,-2.5929,-2.4414,-2.3508,-2.336,-2.3453,-2.3328,-2.297,-2.1892,-2.0433,0.0,0.0,0.0,0.0,0.0,0.0,0.0,0.0,0.0,0.0,0.0,0.0,0.0,0.0,0.0,0.0,0.0,0.0,0.0,0.0,0.0,0.0,0.0,0.0,0.0,0.0,-3.0937,-3.1259,-3.3531,-3.4599,-3.3489,-3.5387,-3.6911,-3.7446,-3.8764,-4.0159,-4.1567,-4.1642,-4.2208,-4.3465,-4.3549,-4.3801,-4.4128,-4.4237,-4.4304,-4.4244,-4.4214,-4.4184,-4.4184,-4.4055,-4.4005,-4.4005,-4.4005,-4.4005,-4.4005,-4.4005,-4.3373,-4.2407,-4.2407,-4.2407,-4.2407,-4.2407,-4.2407,-4.2407,-4.2407,-4.2222,-4.1906,-4.1396,-4.0309,-3.9193,-3.9202,-3.883,-3.842,-3.8393,-3.8189,-3.7984,-3.7958,-3.7726,-3.7503,-3.7503,-3.7503,-3.7503,-3.7503,-3.7299,-3.6946,-3.6408,-3.4959,-3.3324,-3.1671,-3.1392,-3.1318,-3.1061,-3.1005,-3.121,-3.1771,-3.1362,-3.1067,-3.1129,-3.0323,-2.976,-2.976,-2.7811,-2.6646,-2.6727,-2.4765,-2.3688,-2.3891,-2.3595,-2.343,-2.343,-2.2313,-2.1001,-1.9479,0.0,0.0,0.0,0.0,0.0,0.0,0.0,0.0,0.0,0.0,0.0,0.0,0.0,0.0,0.0,0.0,0.0,0.0,0.0,0.0,0.0,0.0,0.0,-2.8539,-3.1386,-3.3229,-3.2424,-3.5935,-3.7812,-3.6235,-3.8995,-4.0872,-4.0872,-4.1623,-4.2468,-4.3294,-4.3332,-4.3688,-4.4477,-4.444,-4.4383,-4.4383,-4.4344,-4.4314,-4.4285,-4.4244,-4.4184,-4.4184,-4.4055,-4.4005,-4.4005,-4.4005,-4.4005,-4.4005,-4.4005,-4.4005,-4.4005,-4.4005,-4.4005,-4.4005,-4.4005,-4.4005,-4.4005,-4.4005,-4.3485,-4.2865,-4.2906,-4.2396,-4.1754,-4.182,-4.1829,-4.1782,-4.1716,-4.1139,-4.0514,-4.043,-3.977,-3.9138,-3.912,-3.9101,-3.9101,-3.9101,-3.8488,-3.7931,-3.7894,-3.6656,-3.5058,-3.3361,-3.3045,-3.279,-3.2009,-3.1879,0.0,-3.1986,-3.1968,-3.1971,-3.2014,-3.1139,-3.0528,-3.0491,-2.8029,-2.6745,-2.7338,-2.5028,-2.3979,-2.4694,-2.3851,-2.3348,-2.3348,-2.1848,-2.0388,-1.8968,0.0,0.0,0.0,0.0,0.0,0.0,0.0,0.0,0.0,0.0,0.0,0.0,0.0,0.0,0.0,0.0,0.0,0.0,0.0,0.0,0.0,-2.9609,-3.1844,-3.184,-3.4661,-3.6932,-3.7474,-3.9577,-4.0816,-4.0384,-4.1717,-4.26,-4.26,-4.3369,-4.3933,-4.4158,-4.4177,-4.4243,-4.4411,-4.4411,-4.4383,-4.4344,-4.4373,-4.4344,-4.4285,-4.4285,-4.4244,-4.4184,-4.4055,-4.4005,-4.4005,-4.4005,-4.4005,-4.4005,-4.4005,-4.4005,-4.4005,-4.4005,-4.4005,-4.4005,-4.4005,-4.4005,-4.4005,-4.4005,-4.3906,-4.3818,-4.383,-4.3312,-4.266,-4.266,-4.2277,-4.181,-4.1782,-4.1614,-4.1288,-4.07,-4.0364,-4.0047,-3.945,-3.9229,-3.9183,-3.9183,-3.9016,-3.8681,-3.8104,-3.7653,-3.6833,-3.5113,-3.4338,-3.386,-3.3636,-3.3645,-3.3687,-3.3709,-3.3187,-3.2769,-3.253,-3.1885,-3.1158,-3.0415,-2.9085,-2.7941,-2.7089,-2.5552,-2.482,-2.5114,-2.4743,-2.4505,-2.4449,-2.3468,-2.2156,0.0,0.0,0.0,0.0,0.0,0.0,0.0,0.0,0.0,0.0,0.0,0.0,0.0,0.0,0.0,0.0,0.0,0.0,0.0,0.0,0.0,0.0,-3.2976,-3.5231,-3.5797,-3.748,-3.9126,-4.0312,-4.1683,-4.2543,-4.2543,-4.3313,-4.3801,-4.3801,-4.4252,-4.4515,-4.4515,-4.4515,-4.4487,-4.444,-4.444,-4.4411,-4.4373,-4.4411,-4.4411,-4.4373,-4.4373,-4.4314,-4.4244,-4.4135,-4.4036,-4.4005,-4.4005,-4.4005,-4.4005,-4.4005,-4.4005,-4.4005,0.0,0.0,0.0,0.0,-4.4005,-4.4005,-4.4005,-4.4055,-4.4135,-4.4195,-4.3919,-4.3567,-4.3605,-4.3315,-4.2941,-4.2913,-4.2642,-4.2268,-4.1754,-4.1353,-4.0886,-4.0083,-3.985,-3.9712,-3.9376,-3.9283,-3.9152,-3.8686,-3.832,0.0,-3.6752,-3.564,-3.4899,-3.4899,-3.4605,-3.4427,-3.445,-3.4039,-3.3654,-3.3406,-3.2696,-3.1982,-3.1413,-2.9758,0.0,0.0,0.0,-2.5673,-2.5837,-2.5652,0.0,0.0,0.0,0.0,0.0,-2.3286,0.0,0.0,-2.1162,-2.1233,0.0,0.0,0.0,0.0,0.0,0.0,0.0,0.0,0.0,0.0,0.0,0.0,0.0,0.0,0.0,0.0,-3.6485,-3.8622,-3.9783,-3.9965,-4.0465,-4.167,-4.2745,-4.3398,-4.3426,-4.4083,-4.4515,-4.4515,-4.4515,-4.4515,-4.4515,-4.4515,0.0,0.0,0.0,-4.4646,-4.4646,-4.474,-4.4796,-4.4768,-4.4692,-4.4635,-4.4565,-4.4505,-4.4358,-4.4153,-4.4153,-4.4098,-4.4005,-4.4005,-4.4036,-4.4036,-4.4005,-4.4005,-4.4005,-4.4005,-4.4005,-4.4005,-4.4005,0.0,0.0,-4.4237,-4.4314,-4.4344,-4.4458,-4.4515,-4.4487,-4.4411,-4.3905,-4.3297,-4.3091,-4.2511,-4.1754,-4.095,-4.0689,-4.0427,-3.9698,-3.9474,-3.9418,-3.9418,-3.8782,-3.8259,-3.8259,-3.6913,-3.5829,-3.5736,-3.5063,-3.4562,-3.4514,-3.4517,-3.445,-3.4293,-3.3456,0.0,-3.2779,-3.037,-2.921,-3.0064,-2.7908,-2.6666,-2.6814,-2.6644,-2.6522,-2.6431,-2.641,-2.6381,-2.6349,-2.6535,-2.6626,-2.6548,-2.4096,-2.375,0.0,0.0,0.0,0.0,0.0,0.0,0.0,0.0,0.0,0.0,0.0,0.0,0.0,0.0,0.0,-3.555,-3.7995,-4.02,-4.1742,-4.2305,-4.2693,-4.294,-4.3548,-4.4034,-4.4243,-4.4421,-4.4515,-4.4515,-4.4515,-4.4515,-4.4515,-4.4515,-4.4515,-4.4515,-4.5134,-4.5472,-4.5472,-4.6167,-4.6494,-4.6454,-4.6405,0.0,-4.6209,-4.6153,-4.5786,-4.5121,-4.5077,-4.4705,-4.4153,-4.4153,-4.4195,-4.4226,-4.4067,-4.4005,-4.4005,-4.4005,-4.4005,-4.4005,-4.4005,-4.4116,-4.4255,-4.4285,-4.4373,-4.4458,-4.4487,-4.4515,0.0,-4.4487,-4.4374,-4.4093,-4.3436,-4.3136,-4.2798,-4.1927,-4.1188,-4.0637,-4.0488,-3.9944,-3.9469,-3.9469,-3.9389,-3.9308,-3.9308,-3.789,-3.6536,-3.5876,-3.5679,-3.5368,-3.4655,-3.4561,-3.4473,-3.4173,-3.3901,-3.343,-3.2621,-3.2052,-3.1276,-3.0318,-2.902,-2.8299,-2.8215,-2.8166,-2.7858,-2.7206,-2.7791,-2.7809,-2.7182,-2.8621,-2.9259,-2.9047,-2.7284,-2.6609,0.0,0.0,0.0,0.0,0.0,0.0,0.0,0.0,0.0,0.0,0.0,-3.1675,-3.2794,0.0,-3.7366,-3.8746,-4.0494,-4.1977,-4.2787,-4.3252,-4.3513,-4.3513,-4.3957,-4.4306,-4.4306,-4.4411,-4.4515,-4.4515,-4.4515,-4.4515,-4.4515,-4.489,-4.5097,-4.5097,-4.5923,-4.6354,-4.6354,-4.6786,-4.6982,-4.6952,-4.6952,-4.6904,-4.6794,-4.6782,-4.6477,-4.6035,-4.6022,-4.5556,-4.4804,-4.4412,-4.4255,-4.4285,-4.4177,-4.4147,-4.4147,-4.4147,-4.4147,-4.4147,-4.4147,-4.4226,-4.4314,-4.4344,-4.4401,-4.4458,-4.4487,-4.4515,-4.4515,-4.4515,-4.4515,-4.4421,-4.4008,-4.3895,-4.3688,-4.2862,-4.231,-4.1758,-4.0915,-4.0427,-4.0033,-3.9621,-3.9596,-3.9602,-3.9602,-3.8882,-3.8032,-3.7183,-3.6738,-3.6329,-3.5897,-3.5503,-3.5132,-3.4816,-3.4414,-3.3957,-3.3438,-3.2926,-3.2207,-3.1177,-3.0441,-3.01,-3.0202,-3.0045,-2.9755,-2.938,-2.966,-2.9608,-2.9192,-3.0093,-3.0493,-3.0369,-3.0101,-2.9675,0.0,0.0,0.0,0.0,0.0,0.0,0.0,0.0,-3.0212,-3.2074,-3.3845,-3.5404,-3.6659,-3.8427,-4.0166,-4.1706,-4.2791,-4.3465,-4.3465,-4.37,-4.3809,-4.3712,-4.4079,-4.4306,-4.4199,-4.4364,-4.4515,-4.4515,-4.4646,-4.474,-4.474,-4.551,-4.596,-4.596,-4.6786,-4.7237,-4.7237,-4.7406,-4.75,-4.75,-4.75,-4.747,-4.741,-4.7379,-4.7217,-4.695,-4.68,-4.637,-4.5716,-4.5092,-4.4718,-4.4568,-4.4568,-4.4475,-4.4344,-4.4314,-4.4285,-4.4285,-4.4285,-4.4314,-4.4344,-4.4383,-4.4411,-4.4411,-4.4487,-4.4515,-4.4515,-4.4515,-4.4515,-4.4515,-4.4515,-4.4515,-4.4346,-4.3688,-4.3407,-4.2919,-4.1586,-4.1154,-4.0797,-3.9971,-3.9821,-3.9765,-3.9639,-3.9602,-3.9295,-3.8432,-3.7756,-3.7268,-3.7117,-3.6535,-3.6002,-3.5613,-3.495,-3.446,-3.4264,-3.3488,-3.2839,-3.2348,-3.1857,-3.1697,-3.1991,-3.1581,-3.1371,-3.1371,-3.1344,-3.1337,-3.1337,-3.1555,-3.1628,-3.1592,-3.2617,-3.2436,-2.4837,-2.6357,-2.7863,-2.8971,-3.0122,-3.2034,0.0,0.0,-3.6038,-3.7454,-3.881,-3.9667,-3.9355,-4.1028,-4.2515,-4.2742,-4.3469,-4.399,-4.399,-4.425,-4.4248,-4.3744,-4.3744,-4.3936,-4.4411,-4.4487,-4.4515,-4.4515,-4.5172,-4.5566,-4.5566,-4.6392,-4.6861,-4.6861,-4.7631,-4.8063,-4.8063,-4.8833,-4.9227,-4.9227,-4.9227,-4.9227,-4.9196,-4.9077,-4.8634,-4.7903,-4.7192,-4.6836,-4.6742,-4.6709,-4.6232,-4.5537,-4.5537,-4.5106,-4.4458,-4.4344,-4.4285,-4.4285,-4.4285,-4.4344,-4.4383,-4.4383,-4.444,-4.4487,-4.4515,-4.4515,-4.4515,-4.4515,-4.4515,-4.4515,-4.4515,-4.4515,-4.4496,-4.4402,-4.382,-4.3238,-4.305,-4.2412,-4.1642,-4.0816,-4.0666,-4.044,-3.9733,-3.9602,-3.9295,-3.8432,-3.8225,-3.7906,-3.7174,-3.7005,-3.6686,-3.5931,-3.5562,-3.5002,-3.4104,-3.3931,-3.3857,-3.3765,-3.3038,-3.2631,-3.268,-3.1972,-3.1584,-3.1584,-3.2238,-3.2582,-3.2607,-3.3493,-3.3846,-3.3688,-3.4705,-3.416,-2.8689,0.0,0.0,0.0,-3.4064,-3.5506,-3.8119,-3.8499,-3.8697,-3.9914,-4.1093,-4.1816,-4.16,-4.2686,-4.3636,0.0,-4.4111,-4.4335,-4.4335,-4.4306,-4.4248,-4.417,-4.4048,-4.3999,-4.4248,-4.4411,-4.4515,-4.4515,-4.5247,-4.5697,-4.5697,-4.6974,-4.7706,-4.7706,-4.8514,-4.8964,-4.8964,-4.9321,-4.9509,-4.9509,-4.9509,-4.9509,-4.9509,-4.944,-4.9221,-4.8846,-4.8002,-4.7646,-4.7609,-4.6962,-4.663,-4.6382,-4.5709,-4.5346,-4.5134,-4.4599,-4.443,-4.443,-4.443,-4.4411,-4.4458,-4.4458,-4.4487,-4.4515,-4.4515,-4.4515,-4.4515,-4.4515,-4.4515,-4.4515,-4.4515,-4.4515,-4.4515,-4.4515,-4.4252,-4.3876,-4.3388,-4.3013,-4.2524,-4.1661,-4.1116,-4.0685,-4.0347,-3.9776,-3.9301,-3.9107,-3.9051,-3.8939,-3.8606,-3.8112,-3.7493,-3.6667,-3.6485,-3.6264,-3.5837,-3.5702,-3.5492,-3.5123,-3.4538,-3.4055,-3.3672,-3.3222,-3.3007,-3.3007,-3.3802,-3.4208,-3.4208,-3.5118,-3.5525,-3.5465,-3.6006,-3.5801,-3.0847,0.0,0.0,-3.5709,-3.7343,-3.8777,-4.0053,-4.0656,-4.1143,-4.1913,-4.2746,-4.3312,-4.3245,-4.3759,-4.4258,-4.4487,-4.4515,-4.4468,-4.4411,-4.4277,-4.4258,-4.4383,-4.4277,-4.4199,-4.4199,-4.4383,-4.4562,-4.473,-4.545,-4.6071,-4.6373,-4.7684,-4.8471,-4.8551,-4.9171,-4.9509,-4.9509,-4.9509,-4.9509,-4.9509,-4.9509,-4.9509,-4.9509,-4.9509,-4.9509,-4.9471,-4.8833,-4.8551,-4.8495,-4.7673,-4.7348,-4.7245,-4.6408,-4.6094,-4.5998,-4.5416,-4.4909,-4.4515,-4.4515,-4.4515,-4.4515,-4.4515,-4.4515,-4.4515,-4.4515,-4.4515,-4.4515,-4.4515,-4.4515,-4.4515,-4.4515,-4.4515,-4.4515,-4.4515,-4.4515,-4.4346,-4.3764,-4.3632,-4.3388,-4.2524,-4.1886,-4.1417,-4.1173,-4.0293,-3.9698,-3.989,-3.9727,-3.9602,-3.9602,-3.8845,-3.8075,-3.7493,-3.7211,-3.7099,-3.7099,-3.6962,-3.6718,-3.6273,-3.5901,-3.5529,-3.5072,-3.4915,-3.486,-3.486,-3.5435,-3.5713,-3.5732,-3.637,-3.6668,-3.6668,-3.7044,-3.7206,0.0,0.0,-3.5991,-3.6836,-3.9483,-4.2066,-4.2975,-4.3801,-4.428,-4.4046,-4.425,-4.4374,-4.4102,-4.4288,-4.4487,-4.4515,-4.4515,-4.4411,-4.414,-4.4335,-4.4411,-4.414,-4.4335,-4.4487,0.0,-4.4515,-4.4701,-4.5239,-4.6009,-4.6975,-4.8082,-4.8656,-4.9123,-4.9452,-4.949,-4.9509,-4.9509,-4.9509,-4.9509,-4.9509,-4.9509,-4.9509,-4.9509,-4.9509,-4.9509,-4.9509,-4.9471,-4.9471,-4.9471,-4.9434,-4.8927,-4.8157,-4.8138,-4.765,-4.6974,-4.6936,-4.5904,-4.4515,-4.4515,-4.4515,-4.4515,-4.4515,-4.4515,-4.4515,-4.4515,-4.4515,-4.4515,-4.4515,-4.4515,-4.4515,-4.4515,-4.4515,-4.4515,-4.4515,-4.4515,-4.4496,-4.4477,-4.4477,-4.4233,-4.3426,-4.3238,-4.2956,-4.213,-4.1304,-4.076,-4.076,-4.0084,-3.9602,-3.9602,-3.8845,-3.83,-3.8281,-3.7568,-3.7099,-3.7099,-3.708,-3.708,-3.7042,-3.7042,-3.7042,-3.7024,-3.7005,-3.7024,-3.7024,-3.7042,-3.7042,-3.7042,-3.708,-3.708,-3.7099,-3.7906,-3.8239,0.0,0.0,-3.8676,-4.0027,-4.1623,-4.3088,-4.3914,-4.4327,-4.4468,-4.4364,-4.4008,-4.368,-4.3606,-4.3633,-4.3707,-4.3707,-4.4158,-4.4487,-4.4383,-4.444,-4.4487,-4.4383,-4.444,0.0,0.0,0.0,0.0,-4.5506,-4.6349,-4.7222,-4.8157,-4.8909,-4.9377,-4.9509,-4.9509,-4.9509,-4.9509,-4.9509,-4.9509,-4.9509,-4.9509,-4.9509,-4.9509,-4.9509,-4.9509,-4.9509,-4.9509,-4.9509,-4.949,-4.9262,-4.9126,-4.8971,-4.8234,-4.7872,-4.7725,-4.7199,-4.6655,-4.6092,-4.551,-4.5303,-4.5209,-4.4684,-4.4515,-4.4515,-4.4515,-4.4515,-4.4515,-4.4515,-4.4515,-4.4515,-4.4515,-4.4515,-4.4515,-4.4515,-4.4515,-4.4515,-4.4515,-4.4515,-4.4421,-4.4158,-4.367,-4.32,-4.2919,-4.2061,-4.139,-4.139,-4.0364,-3.9602,-3.9602,-3.9333,-3.9145,-3.9145,-3.8901,-3.8775,-3.8775,-3.8775,-3.8507,-3.7925,-3.7906,-3.7662,-3.7117,-3.7099,-3.7099,-3.7099,-3.7624,-3.7906,-3.7906,-3.8469,-3.8775,-3.8775,-3.9032,-3.9145,0.0,-3.8976,-4.0422,-4.2074,-4.3106,-4.3857,-4.4383,-4.4515,-4.4421,-4.4139,-4.3407,-4.275,-4.2449,-4.2168,-4.2168,-4.275,-4.3275,-4.3839,-4.4439,-4.4515,-4.4627,-4.489,-4.4928,-4.4983,0.0,0.0,0.0,-4.5993,-4.6817,-4.7691,-4.8626,-4.9077,-4.9377,-4.9509,-4.9509,-4.9509,-4.9509,-4.9509,-4.9509,-4.9509,-4.9509,-4.9509,-4.9509,-4.9509,-4.9509,-4.9509,-4.9509,-4.9509,-4.949,-4.9262,-4.9313,-4.9421,-4.8683,-4.849,-4.8607,-4.8082,-4.7894,-4.7725,-4.658,-4.596,-4.5604,-4.5097,-4.474,-4.4515,-4.4515,-4.4515,-4.4515,-4.4515,-4.4515,-4.4515,-4.4515,-4.4515,-4.4515,-4.4515,-4.4515,-4.4515,-4.4515,-4.4515,-4.4515,-4.4515,-4.4083,-4.3726,-4.3726,-4.2922,-4.2184,-4.1838,-4.1038,-4.0347,-4.0065,-3.9765,-3.9602,-3.9602,-3.9602,-3.9602,-3.9602,-3.9602,-3.9352,-3.8807,-3.8751,-3.8525,-3.8,-3.7981,-3.7981,-3.7981,-3.8488,-3.8751,-3.877,-3.9314,-3.9602,-3.9602,-3.9602,-3.9602,-3.9051,-4.0328,-4.136,-4.2956,-4.3951,-4.4515,-4.4515,-4.4477,-4.4214,-4.3351,-4.2449,-4.1567,0.0,0.0,-4.0084,-4.1642,-4.201,-4.2667,-4.4289,-4.4552,-4.4853,0.0,0.0,0.0,0.0,0.0,0.0,-4.6706,0.0,-4.8319,-4.9452,-4.9211,-4.9179,-4.9509,-4.9509,-4.9509,-4.9509,-4.9509,-4.9509,-4.9509,-4.9509,-4.9509,-4.9509,-4.9509,-4.9509,-4.9509,-4.9509,-4.9509,-4.9509,-4.9509,-4.9509,-4.9509,-4.9509,-4.9509,-4.9509,-4.9509,-4.9509,-4.9265,-4.7687,-4.6561,-4.581,-4.5735,-4.519,-4.4552,-4.4515,-4.4515,-4.4515,-4.4515,-4.4515,-4.4515,-4.4515,-4.4515,-4.4515,-4.4515,-4.4515,-4.4515,-4.4515,-4.4515,-4.4515,-4.4515,-4.4515,-4.4515,-4.4515,-4.3876,-4.3088,-4.2262,-4.2085,-4.1773,-4.0966,-4.0196,-3.9733,-3.9733,-3.9733,-3.969,-3.9677,-3.9677,-3.9658,-3.9602,-3.9602,-3.9639,-3.9677,-3.9639,-3.9658,-3.9733,-3.9695,-3.9695,-3.9733,-3.9733,-3.9733,-3.9733,-3.9733,-3.9733,-4.106,-4.2449,-4.367,-4.4102,-4.4364,-4.4515,-4.4515,-4.4045,-4.3182,-4.1736,-4.0272,-3.8807,0.0,0.0,0.0,-4.014,-4.228,0.0,-4.4458,-4.5021,0.0,-4.5679,0.0,-4.6768,-4.6993,-4.7537,0.0,0.0,-4.7972,-4.8509,-4.9452,-4.9427,-4.9409,-4.9509,-4.9509,-4.9509,-4.9509,-4.9509,-4.9509,-4.9509,-4.9509,-4.9509,-4.9509,-4.9509,-4.9509,-4.9509,-4.9509,-4.9509,-4.9509,-4.9509,-4.9509,-4.9509,-4.9509,-4.9509,-4.9509,-4.9509,-4.9509,-4.9434,-4.902,-4.8288,-4.735,-4.611,-4.5566,-4.5284,-4.4684,-4.4515,-4.4515,-4.4515,-4.4515,-4.4515,-4.4515,-4.4515,-4.4515,-4.4515,-4.4515,-4.4515,-4.4515,-4.4515,-4.4515,-4.4515,-4.4515,-4.4515,-4.4515,-4.4346,-4.412,-4.3914,-4.3351,-4.2656,-4.1811,-4.1511,-4.1398,-4.1398,-4.1398,-4.1154,-4.0553,-4.0478,-4.0234,-3.9658,-3.9602,-3.9858,-4.0459,-3.9915,-4.0159,-4.136,-4.0797,-4.0797,-4.1398,-4.1398,-4.1398,-4.1398,-4.1398,-4.1398,-4.2787,-4.3801,-4.4515,-4.4515,-4.4515,-4.4214,-4.3125,-4.2524,-4.1417,-3.8638,-3.7324,0.0,0.0,0.0,0.0,0.0,0.0,0.0,-4.4364,-4.519,-4.5848,0.0,-4.7012,0.0,-4.8063,-4.8514,-4.8776,0.0,-4.8776,-4.8983,-4.9471,-4.9509,-4.9659,-5.0016,-4.9678,-4.9509,-4.9509,-4.9847,-4.9847,-4.9509,-4.9509,-4.9509,-4.9509,-4.9509,-4.9509,-4.9509,-4.9509,-4.9509,-4.9509,-4.9509,-4.9509,-4.9509,-4.9509,-4.9509,-4.9509,-4.9509,-4.9509,-4.9509,-4.9509,-4.9171,-4.8495,-4.6824,-4.6017,-4.5547,-4.474,-4.4515,-4.4515,-4.4515,-4.4515,-4.4515,-4.4515,-4.4515,-4.4515,-4.4515,-4.4515,-4.4515,-4.4515,-4.4515,-4.4515,-4.4515,-4.4515,-4.4515,-4.4515,-4.4515,-4.4515,-4.4515,-4.412,-4.3651,-4.3163,-4.2441,-4.1991,-4.1991,-4.1991,-4.183,-4.1379,-4.1342,-4.1135,-4.0685,-4.0647,-4.0854,-4.1323,-4.0891,-4.1079,-4.1972,-4.1567,-4.1567,-4.1991,-4.1991,-4.1991,-4.1991,-4.1991,-4.1991,-4.412,-4.4515,-4.4515,-4.4515,-4.4421,-4.3726,-4.1342,-4.0553,-3.9164,-3.509,0.0,-3.325,-3.0997,0.0,-3.4883,-3.6779,0.0,-4.168,-4.4158,-4.5284,-4.6148,-4.6918,-4.7819,-4.8664,-4.9434,-4.9509,-4.9509,-4.9509,-4.9509,-4.9509,-4.9509,-4.9509,-4.9809,-5.0504,-4.9865,-4.9509,-4.9509,-5.0185,-5.0185,-4.9509,-4.9509,-4.9509,-4.9509,-4.9509,-4.9509,-4.9509,-4.9509,-4.9509,-4.9509,-4.9509,-4.9509,-4.9509,-4.9509,-4.9509,-4.9509,-4.9509,-4.9509,-4.9509,-4.9509,-4.9509,-4.9246,-4.7669,-4.658,-4.5716,-4.4909,-4.459,-4.4515,-4.4515,-4.4515,-4.4515,-4.4515,-4.4515,-4.4515,-4.4515,-4.4515,-4.4515,-4.4515,-4.4515,-4.4515,-4.4515,-4.4515,-4.4515,-4.4515,-4.4515,-4.4515,-4.4515,-4.4515,-4.4515,-4.4515,-4.3238,-4.231,-4.231,-4.231,-4.2273,-4.2187,-4.2187,-4.2104,-4.1991,-4.1991,-4.2029,-4.2187,-4.2074,-4.2085,-4.231,-4.2216,-4.2216,-4.231,-4.231,-4.231,-4.231,-4.231,-4.231,-4.4448,-4.4515,-4.4515,-4.4515,-4.4008,-4.3031,-4.121,-3.9201,0.0,0.0,0.0,-3.0208,-2.9045,-3.0865,0.0,-3.6592,0.0,0.0,0.0,0.0,-4.6843,0.0,0.0,0.0,0.0,0.0,0.0,0.0,-4.9509,-4.9509,-4.9509,-4.9509,-4.9565,-4.9696,-4.9565,-4.9509,-4.9509,-4.964,-4.964,-4.9509,-4.9509,-4.9509,-4.9509,-4.9509,-4.9509,-4.9509,-4.9509,-4.9509,-4.9509,-4.9509,-4.9509,-4.9509,-4.9509,-4.9509,-4.9509,-4.9509,-4.9509,-4.9509,-4.9509,-4.9509,-4.934,-4.8326,-4.7443,-4.6617,-4.5754,-4.504,-4.4515,-4.4515,-4.4515,-4.4515,-4.4515,-4.4515,-4.4515,-4.4515,-4.4515,-4.4515,-4.4515,-4.4515,-4.4515,-4.4515,-4.4515,-4.4515,-4.4515,-4.4515,-4.4515,-4.4515,-4.4515,-4.4515,-4.4515,-4.4252,-4.4083,-4.4083,-4.4083,-4.3801,-4.3125,-4.3069,-4.2769,-4.2029,-4.1991,-4.2337,-4.3031,-4.2393,-4.2656,-4.4045,-4.3407,-4.3407,-4.4083,-4.4083,-4.4083,-4.4083,-4.4083,-4.4083,-4.4411,-4.4515,-4.4515,-4.4515,-4.3557,-4.198,-3.9445,0.0,0.0,0.0,0.0,-2.7993,-2.6716,0.0,0.0,0.0,0.0,0.0,0.0,0.0,0.0,0.0,0.0,0.0,0.0,0.0,0.0,-4.9509,-4.9509,-4.9509,-4.9509,-4.9903,-4.9922,-4.9509,-5.0316,-5.0353,-4.9509,-4.9922,-4.9903,-4.9509,-4.9509,-4.9509,-4.9509,-4.9509,-4.9509,-4.9509,-4.9509,-4.9509,-4.9509,-4.9509,-4.9509,-4.9509,-4.9509,-4.9509,-4.9509,-4.9509,-4.9509,-4.9509,-4.9509,-4.9509,-4.9434,-4.9002,-4.8025,-4.6843,-4.596,-4.5153,-4.4515,-4.4515,-4.4515,-4.4515,-4.4515,-4.4515,-4.4515,-4.4515,-4.4515,-4.4515,-4.4515,-4.4515,-4.4515,-4.4515,-4.4515,-4.4515,-4.4515,-4.4515,-4.4515,-4.4515,-4.4515,-4.4515,-4.4515,-4.4515,-4.4515,-4.4515,-4.4515,-4.4346,-4.397,-4.3933,-4.3764,-4.3351,-4.3313,-4.3501,-4.3914,-4.3538,-4.3688,-4.4496,-4.412,-4.412,-4.4515,-4.4515,-4.4515,-4.4515,-4.4515,-4.4515,-4.4269,-4.4515,-4.4515,-4.4515,-4.3125,-4.0947,-3.7812,-3.4902,0.0,0.0,0.0,-2.6322,-2.5196,0.0,0.0,0.0,0.0,0.0,0.0,0.0,0.0,0.0,0.0,0.0,0.0,0.0,0.0,-4.9509,-4.9509,-4.9509,-4.9509,-5.0091,-5.0147,-4.9527,-5.0729,-5.0785,-4.9509,-5.0128,-5.0128,-4.9509,-4.9509,-4.9509,-4.9509,-4.9509,-4.9509,-4.9509,-4.9509,-4.9509,-4.9509,-4.9509,-4.9509,-4.9509,-4.9509,-4.9509,-4.9509,-4.9509,-4.9509,-4.9509,-4.9509,-4.9509,-4.9509,-4.9509,-4.8363,-4.688,-4.6186,-4.5303,-4.4515,-4.4515,-4.4515,-4.4515,-4.4515,-4.4515,-4.4515,-4.4515,-4.4515,-4.4515,-4.4515,-4.4515,-4.4515,-4.4515,-4.4515,-4.4515,-4.4515,-4.4515,-4.4515,-4.4515,-4.4515,-4.4515,-4.4515,-4.4515,-4.4515,-4.4515,-4.4515,-4.4515,-4.4515,-4.4515,-4.4515,-4.4515,-4.4515,-4.4515,-4.4515,-4.4515,-4.4515,-4.4515,-4.4515,-4.4515,-4.4515,-4.4515,-4.4515,-4.4515,-4.4515,-4.4515,-4.4154,-4.4515,-4.4515,-4.4515,-4.2693,-4.0234,-3.7662,0.0,0.0,0.0,-2.5984,-2.512,-2.5775,0.0,0.0,0.0,0.0,0.0,0.0,0.0,0.0,0.0,0.0,0.0,0.0,0.0,0.0,-4.9509,-4.9509,-4.9509,-4.9509,-4.9565,-4.9584,-4.9509,-4.964,-4.9659,-4.9509,-4.9565,-4.9565,-4.9509,-4.9509,-4.9509,-4.9509,-4.9509,-4.9509,-4.9509,-4.9509,-4.9509,-4.9509,-4.9509,-4.9509,-4.9509,-4.9509,-4.9509,-4.9509,-4.9509,-4.9509,-4.9509,-4.9509,-4.9509,-4.9509,-4.9509,-4.8363,-4.6993,-4.6899,-4.5772,-4.4515,-4.4515,-4.4515,-4.4515,-4.4515,-4.4515,-4.4515,-4.4515,-4.4515,-4.4515,-4.4515,-4.4515,-4.4515,-4.4515,-4.4515,-4.4515,-4.4515,-4.4515,-4.4515,-4.4515,-4.4515,-4.4515,-4.4515,-4.4515,-4.4515,-4.4515,-4.4515,-4.4515,-4.4515,-4.4515,-4.4515,-4.4515,-4.4515,-4.4515,-4.4515,-4.4515,-4.4515,-4.4515,-4.4515,-4.4515,-4.4515,-4.4515,-4.4515,-4.4515,-4.4515,-4.4515,-4.2596,-4.3745,-4.4383,-4.3895,-4.1905,-3.9427,-3.693,0.0,0.0,-2.7617,-2.5871,-2.482,-2.5139,-2.5662,0.0,0.0,0.0,0.0,0.0,0.0,0.0,0.0,0.0,0.0,0.0,0.0,-4.9509,-4.9509,-4.9509,-4.9509,-4.9509,-4.9509,-4.9509,-4.9509,-4.9509,-4.9509,-4.9509,-4.9509,-4.9509,-4.9509,-4.9509,-4.9509,-4.9509,-4.9509,-4.9509,-4.9509,-4.9509,-4.9509,-4.9509,-4.9509,-4.9509,-4.9509,-4.9509,-4.9509,-4.9509,-4.9509,-4.9509,-4.9509,-4.9509,-4.9509,-4.9509,-4.9509,-4.8363,-4.7012,-4.7012,-4.5829,-4.4515,-4.4515,-4.4515,-4.4515,-4.4515,-4.4515,-4.4515,-4.4515,-4.4515,-4.4515,-4.4515,-4.4515,-4.4515,-4.4515,-4.4515,-4.4515,-4.4515,-4.4515,-4.4515,-4.4515,-4.4515,-4.4515,-4.4515,-4.4515,-4.4515,-4.4515,-4.4515,-4.4515,-4.4515,-4.4515,-4.4515,-4.4515,-4.4515,-4.4515,-4.4515,-4.4515,-4.4515,-4.4515,-4.4515,-4.4515,-4.4515,-4.4515,-4.4515,-4.4515,-4.4515,-4.4515,-4.0809,-4.2344,-4.3332,-4.2994,-4.1041,-3.8563,0.0,0.0,-2.9157,-2.7242,-2.5702,-2.4707,-2.4707,-2.5196,-2.6228,0.0,0.0,0.0,0.0,0.0,0.0,0.0,0.0,0.0,0.0,0.0,-4.9509,-4.9509,-4.9509,-4.9509,-4.9509,-4.9509,-4.9509,-4.9509,-4.9509,-4.9509,-4.9509,-4.9509,-4.9509,-4.9509,-4.9509,-4.9509,-4.9509,-4.9509,-4.9509,-4.9509,-4.9509,-4.9509,-4.9509,-4.9509,-4.9509,-4.9509,-4.9509,-4.9509,-4.9509,-4.9509,-4.9509,-4.9509,-4.9509,-4.9509,-4.9509,-4.9509,-4.8363,-4.7012,-4.7012,-4.5829,-4.4515,-4.4515,-4.4515,-4.4515,-4.4515,-4.4515,-4.4515,-4.4515,-4.4515,-4.4515,-4.4515,-4.4515,-4.4515,-4.4515,-4.4515,-4.4515,-4.4515,-4.4515,-4.4515,-4.4515,-4.4515,-4.4515,-4.4515,-4.4515,-4.4515,-4.4515,-4.4515,-4.4515,-4.4515,-4.4515,-4.4515,-4.4515,-4.4515,-4.4515,-4.4515,-4.4515,-4.4515,-4.4515,-4.4515,-4.4515,-4.4515,-4.4515,-4.4515,-4.4515,-4.4515,-4.4515,-3.898,-4.0325,-4.1022,-4.183,-4.0159,-3.7662,0.0,-3.2048,-2.8988,-2.6526,-2.5308,-2.4707,-2.4707,-2.4707,-2.5533,-2.7994,0.0,0.0,0.0,0.0,0.0,0.0,0.0,0.0,0.0,0.0,-4.9509,-4.9509,-4.9509,-4.9509,-4.9509,-4.9509,-4.9509,-4.9509,-4.9509,-4.9509,-4.9509,-4.9509,-4.9509,-4.9509,-4.9509,-4.9509,-4.9509,-4.9509,-4.9509,-4.9509,-4.9509,-4.9509,-4.9509,-4.9509,-4.9509,-4.9509,-4.9509,-4.9509,-4.9509,-4.9509,-4.9509,-4.9509,-4.9509,-4.9509,-4.9509,-4.9509,-4.8363,-4.7012,-4.7012,-4.5829,-4.4515,-4.4515,-4.4515,-4.4515,-4.4515,-4.4515,-4.4515,-4.4515,-4.4515,-4.4515,-4.4515,-4.4515,-4.4515,-4.4515,-4.4515,-4.4515,-4.4515,-4.4515,-4.4515,-4.4515,-4.4515,-4.4515,-4.4515,-4.4515,-4.4515,-4.4515,-4.4515,-4.4515,-4.4515,-4.4515,-4.4515,-4.4515,-4.4515,-4.4515,-4.4515,-4.4515,-4.4515,-4.4515,-4.4515,-4.4515,-4.4515,-4.4515,-4.4515,-4.4515,-4.4515,-4.4515,-3.4256,-3.596,-3.7249,-3.6348,-3.554,-3.4301,-3.1823,-2.9983,-2.8293,-2.6395,-2.5308,-2.4707,-2.4707,-2.4707,-2.589,-2.9514,-3.0546,0.0,0.0,0.0,0.0,0.0,0.0,0.0,0.0,0.0,-4.9509,-4.9509,-4.9509,-4.9509,-4.9509,-4.9509,-4.9509,-4.9509,-4.9509,-4.9509,-4.9509,-4.9509,-4.9509,-4.9509,-4.9509,-4.9509,-4.9509,-4.9509,-4.9509,-4.9509,-4.9509,-4.9509,-4.9509,-4.9509,-4.9509,-4.9509,-4.9509,-4.9509,-4.9509,-4.9509,-4.9509,-4.9509,-4.9509,-4.9509,-4.9509,-4.9509,-4.8363,-4.7012,-4.7012,-4.5829,-4.4515,-4.4515,-4.4515,-4.4515,-4.4515,-4.4515,-4.4515,-4.4515,-4.4515,-4.4515,-4.4515,-4.4515,-4.4515,-4.4515,-4.4515,-4.4515,-4.4515,-4.4515,-4.4515,-4.4515,-4.4515,-4.4515,-4.4515,-4.4515,-4.4515,-4.4515,-4.4515,-4.4515,-4.4515,-4.4515,-4.4515,-4.4515,-4.4515,-4.4515,-4.4515,-4.4515,-4.4515,-4.4515,-4.4515,-4.4515,-4.4515,-4.4515,-4.4515,-4.4515,-4.4515,-4.4515,0.0,-3.2616,-3.3851,-3.31,-3.2687,-3.1898,-2.972,-2.8556,-2.7486,-2.5853,-2.5083,-2.4707,-2.4707,-2.497,-2.6134,-2.9044,-3.0302,0.0,0.0,0.0,0.0,0.0,0.0,0.0,0.0,-4.9584,-4.994,-4.994,-5.0241,-5.041,-5.041,-5.041,-5.0278,-4.9959,-4.9659,-4.9509,-4.9509,-4.9509,-4.9509,-4.9509,-4.9509,-4.9509,-4.9509,-4.9509,-4.9509,-4.9509,-4.9509,-4.9509,0.0,-4.9509,-4.9509,-4.9509,-4.9509,-4.9509,-4.9509,-4.9509,-4.9509,-4.9509,-4.9509,-4.9509,-4.9509,-4.9509,-4.8363,-4.688,-4.6261,-4.5341,-4.4515,-4.4515,-4.4515,-4.4515,-4.4515,-4.4515,-4.4515,-4.4515,-4.4515,-4.4515,-4.4515,-4.4515,-4.4515,-4.4515,-4.4515,-4.4515,-4.4515,-4.4515,-4.4515,-4.4515,-4.4515,-4.4515,-4.4515,-4.4515,-4.4515,-4.4515,-4.4515,-4.4515,-4.4515,-4.4515,-4.4515,-4.4515,-4.4515,-4.4515,-4.4515,-4.4515,-4.4515,-4.4515,-4.4515,-4.4515,-4.4515,-4.4515,-4.4515,-4.4515,-4.4515,-4.4515,0.0,-3.0035,-3.0734,-3.141,-3.1072,-3.0133,-2.8501,-2.7617,0.0,-2.5027,-2.4707,-2.4764,-2.4933,-2.5533,-2.6414,-2.7617,-2.9758,0.0,0.0,0.0,0.0,0.0,0.0,0.0,-4.8213,-4.9696,-5.0598,-5.0598,-5.1311,-5.1743,-5.1743,-5.1743,-5.1386,-5.0635,-4.9884,-4.9509,-4.9509,-4.9509,-4.9509,-4.9509,-4.9565,-4.9565,-4.9509,-4.9621,-4.9602,-4.9509,-4.9565,-4.9546,-4.9509,-4.9509,-4.9509,-4.9509,-4.9509,-4.9509,-4.9509,-4.9509,-4.9509,-4.9509,-4.9509,-4.9509,-4.9471,-4.9358,-4.8269,-4.6692,-4.5021,-4.4515,-4.4515,-4.4515,-4.4515,-4.4515,-4.4515,-4.4515,-4.4515,-4.4515,-4.4515,-4.4515,-4.4515,-4.4515,-4.4515,-4.4515,-4.4515,-4.4515,-4.4515,-4.4515,-4.4515,-4.4515,-4.4515,-4.4515,-4.4515,-4.4515,-4.4515,-4.4515,-4.4515,-4.4515,-4.4515,-4.4515,-4.4515,-4.4515,-4.4515,-4.4515,-4.4515,-4.4515,-4.4515,-4.4515,-4.4515,-4.4515,-4.4515,-4.4515,-4.4515,-4.4515,-4.4515,-4.4515,-2.5581,0.0,-2.7035,-2.6566,-2.6791,-2.6866,0.0,-2.5946,0.0,0.0,0.0,0.0,0.0,0.0,0.0,0.0,0.0,0.0,0.0,0.0,0.0,0.0,0.0,0.0,-4.9171,-4.9546,-4.9771,-4.9771,-4.9959,-5.0053,-5.0053,-5.0053,-4.9978,-4.979,-4.9602,-4.9509,-4.9509,-4.9509,-4.9509,-4.9509,-5.0109,-5.0091,-4.9546,-5.0767,-5.0673,-4.9527,-5.0147,-5.0072,-4.9509,-4.9509,-4.9509,-4.9509,-4.9509,-4.9509,-4.9509,-4.9509,-4.9509,-4.9509,-4.9509,-4.9509,-4.9283,-4.8007,-4.7331,-4.6692,-4.5021,-4.4515,-4.4515,-4.4515,-4.4515,-4.4515,-4.4515,-4.4515,-4.4515,-4.4515,-4.4515,-4.4515,-4.4515,-4.4515,-4.4515,-4.4515,-4.4515,-4.4515,-4.4515,-4.4515,-4.4515,-4.4515,-4.4515,-4.4515,-4.4515,-4.4515,-4.4515,-4.4515,-4.4515,-4.4515,-4.4515,-4.4515,-4.4515,-4.4515,-4.4515,-4.4515,-4.4515,-4.4515,-4.4515,-4.4515,-4.4515,-4.4515,-4.4515,-4.4515,-4.4515,-4.4515,-4.4515,-4.4515,-2.4031,-2.5061,-2.5981,-2.5871,-2.5909,-2.5981,-2.5871,0.0,0.0,0.0,0.0,0.0,0.0,0.0,0.0,0.0,0.0,0.0,0.0,0.0,0.0,0.0,0.0,-4.9509,0.0,-4.9828,-5.0053,-5.0053,-5.0391,-5.0598,-5.0598,-5.0598,-5.0429,-5.0053,-5.0053,-4.9865,-4.9509,-4.9509,-4.9509,-4.9509,-4.994,-4.9922,-4.9527,-5.041,-5.0316,-4.9527,-4.9959,-4.9903,-4.9509,-4.9509,-4.9509,-4.9509,-4.9509,-4.9509,-4.9509,-4.9509,-4.9509,-4.9509,-4.9509,-4.9509,-4.9227,-4.7537,-4.7012,-4.6692,-4.5021,-4.4515,-4.4515,-4.4515,-4.4515,-4.4515,-4.4515,-4.4515,-4.4515,-4.4515,-4.4515,-4.4515,-4.4515,-4.4515,-4.4515,-4.4515,-4.4515,-4.4515,-4.4515,-4.4515,-4.4515,-4.4515,-4.4515,-4.4515,-4.4515,-4.4515,-4.4515,-4.4515,-4.4515,-4.4515,-4.4515,-4.4515,-4.4515,-4.4515,-4.4515,-4.4515,-4.4515,-4.4515,-4.4515,-4.4515,-4.4515,-4.4515,-4.4515,-4.4515,-4.4515,-4.4515,-4.4515,-4.4515,-2.3596,-2.4911,-2.6301,-2.6716,-2.6491,-2.6338,0.0,0.0,0.0,0.0,0.0,0.0,0.0,0.0,0.0,0.0,0.0,0.0,0.0,0.0,0.0,0.0,0.0,0.0,-4.9509,-5.0109,-5.0504,-5.0504,-5.1142,-5.1536,-5.1536,-5.1536,-5.1217,-5.0522,-5.0504,-5.0185,-4.9509,-4.9509,-4.9509,-4.9509,-4.9621,-4.9621,-4.9509,-4.9753,-4.9734,-4.9509,-4.9621,-4.9602,-4.9509,-4.9509,-4.9509,-4.9509,-4.9509,-4.9509,-4.9509,-4.9509,-4.9509,-4.9509,-4.9509,-4.9415,-4.9058,-4.75,-4.6918,-4.6523,-4.4984,-4.4515,-4.4515,-4.4515,-4.4515,-4.4515,-4.4515,-4.4515,-4.4515,-4.4515,-4.4515,-4.4515,-4.4515,-4.4515,-4.4515,-4.4515,-4.4515,-4.4515,-4.4515,-4.4515,-4.4515,-4.4515,-4.4515,-4.4515,-4.4515,-4.4515,-4.4515,-4.4515,-4.4515,-4.4515,-4.4515,-4.4515,-4.4515,-4.4515,-4.4515,-4.4515,-4.4515,-4.4515,-4.4515,-4.4515,-4.4515,-4.4515,-4.4515,-4.4515,-4.4515,-4.4515,-4.4515,-4.4515,-2.3956,-2.574,-2.6697,-2.5421,-2.6059,-2.6866,0.0,0.0,0.0,0.0,0.0,0.0,0.0,0.0,0.0,0.0,0.0,0.0,0.0,0.0,0.0,0.0,0.0,-4.9509,-4.9509,-4.9602,-4.9678,-4.9678,-4.9809,-4.9865,-4.9865,-4.9865,-4.9809,-4.9696,-4.9678,-4.9621,-4.9509,-4.9509,-4.9509,-4.9509,-5.0185,-5.0147,-4.9546,-5.0917,-5.0785,-4.9546,-5.0222,-5.0128,-4.9509,-4.9509,-4.9509,-4.9509,-4.9509,-4.9509,-4.9509,-4.9509,-4.9509,-4.9509,-4.9509,-4.902,-4.8232,-4.7312,-4.6505,-4.5716,-4.4796,-4.4515,-4.4515,-4.4515,-4.4515,-4.4515,-4.4515,-4.4515,-4.4515,-4.4515,-4.4515,-4.4515,-4.4515,-4.4515,-4.4515,-4.4515,-4.4515,-4.4515,-4.4515,-4.4515,-4.4515,-4.4515,-4.4515,-4.4515,-4.4515,-4.4515,-4.4515,-4.4515,-4.4515,-4.4515,-4.4515,-4.4515,-4.4515,-4.4515,-4.4515,-4.4515,-4.4515,-4.4515,-4.4515,-4.4515,-4.4515,-4.4515,-4.4515,-4.4515,-4.4515,-4.4515,-4.4515,-4.4515,-2.298,-2.4595,-2.589,-2.6022,-2.7636,-2.9101,0.0,0.0,0.0,0.0,0.0,0.0,0.0,0.0,0.0,0.0,0.0,0.0,0.0,0.0,0.0,0.0,0.0,-4.9509,-4.9509,-4.9509,-4.9509,-4.9509,-4.9509,-4.9509,-4.9509,-4.9509,-4.9509,-4.9509,-4.9509,-4.9509,-4.9509,-4.9509,-4.9509,-4.9509,-4.9865,-4.9865,-4.9527,-5.0278,-5.0203,-4.9527,-4.9884,-4.9847,-4.9509,-4.9509,-4.9509,-4.9509,-4.9509,-4.9509,-4.9509,-4.9509,-4.9509,-4.9509,-4.9509,-4.9246,-4.8683,-4.7406,-4.673,-4.6167,-4.489,-4.4515,-4.4515,-4.4515,-4.4515,-4.4515,-4.4515,-4.4515,-4.4515,-4.4515,-4.4515,-4.4515,-4.4515,-4.4515,-4.4515,-4.4515,-4.4515,-4.4515,-4.4515,-4.4515,-4.4515,-4.4515,-4.4515,-4.4515,-4.4515,-4.4515,-4.4515,-4.4515,-4.4515,-4.4515,-4.4515,-4.4515,-4.4515,-4.4515,-4.4515,-4.4515,-4.4515,-4.4515,-4.4515,-4.4515,-4.4515,-4.4515,-4.4515,-4.4515,-4.4515,-4.4515,-4.4578,-4.4551,-2.253,-2.3769,-2.5102,0.0,0.0,0.0,0.0,0.0,0.0,0.0,0.0,0.0,0.0,0.0,0.0,0.0,0.0,0.0,0.0,-4.5772,-4.6711,-4.6711,-4.8007,-4.8908,-4.8908,-4.8908,-4.8908,-4.8908,-4.8908,-4.8908,-4.8908,-4.8908,-4.9002,-4.9189,-4.9208,-4.9283,-4.9509,-4.9509,-4.9509,-4.9509,-4.9509,-4.9509,-4.9509,-4.9509,-4.9509,-4.9509,-4.9509,-4.9509,-4.9509,-4.9509,-4.9509,-4.9509,-4.9509,-4.9509,-4.9509,-4.9509,-4.9509,-4.9509,-4.9509,-4.9246,-4.8701,-4.7425,-4.673,-4.6186,-4.4909,-4.4515,-4.4515,-4.4515,-4.4515,-4.4515,-4.4515,-4.4515,-4.4515,-4.4515,-4.4515,-4.4515,-4.4515,-4.4515,-4.4515,-4.4515,-4.4515,-4.4515,-4.4515,-4.4515,-4.4515,-4.4515,-4.4515,-4.4515,-4.4515,-4.4515,-4.4515,-4.4515,-4.4515,-4.4515,-4.4515,-4.4515,-4.4515,-4.4515,-4.4515,-4.4515,-4.4515,-4.4515,-4.4515,-4.4515,-4.4515,-4.4515,-4.4515,-4.4524,-4.457,-4.4551,-4.4667,-4.4685,-2.3881,-2.4613,-2.5102,-2.6773,0.0,0.0,0.0,0.0,0.0,0.0,0.0,0.0,0.0,0.0,0.0,0.0,0.0,0.0,0.0,0.0,-4.5791,-4.5791,-4.6617,-4.7181,-4.7181,-4.7181,-4.7181,-4.7181,-4.7181,-4.7181,-4.7181,-4.7181,-4.7519,-4.8269,-4.8288,-4.8683,-4.949,-4.9509,-4.9509,-4.9509,-4.9509,-4.9509,-4.9509,-4.9509,-4.9509,-4.9509,-4.9509,-4.9509,-4.9509,-4.9509,-4.9509,-4.9509,-4.9509,-4.9509,-4.9509,-4.9509,-4.9509,-4.9509,-4.9509,-4.8476,-4.7162,-4.7049,-4.596,-4.4665,-4.4552,-4.4515,-4.4515,-4.4515,-4.4515,-4.4515,-4.4515,-4.4515,-4.4515,-4.4515,-4.4515,-4.4515,-4.4515,-4.4515,-4.4515,-4.4515,-4.4515,-4.4515,-4.4515,-4.4515,-4.4515,-4.4515,-4.4515,-4.4515,-4.4515,-4.4515,-4.4515,-4.4515,-4.4515,-4.4515,-4.4515,-4.4515,-4.4515,-4.4515,-4.4515,-4.4515,-4.4515,-4.4515,-4.4515,-4.4515,-4.4515,-4.4515,-4.4515,-4.4632,-4.4685,-4.4685,-4.4821,-4.487,-2.3281,-2.4313,0.0,0.0,0.0,0.0,0.0,0.0,0.0,0.0,0.0,0.0,0.0,0.0,0.0,0.0,0.0,0.0,-4.4515,-4.519,-4.5697,-4.5697,-4.6467,-4.7012,-4.7012,-4.7012,-4.7012,-4.7012,-4.7012,-4.7012,-4.7012,-4.7012,-4.7143,-4.7443,-4.7443,-4.7612,-4.795,-4.795,-4.795,-4.7969,-4.9002,-4.9227,-4.8701,-4.9246,-4.9208,-4.8683,-4.8683,-4.9002,-4.9471,-4.8927,-4.9002,-4.9509,-4.9509,-4.9509,-4.9434,-4.8889,-4.8683,-4.8626,-4.8119,-4.7537,-4.6918,-4.6373,-4.5754,-4.5153,-4.4665,-4.4515,-4.4515,-4.4515,-4.4515,-4.4515,-4.4515,-4.4515,-4.4515,-4.4515,-4.4515,-4.4515,-4.4515,-4.4515,-4.4515,-4.4515,-4.4515,-4.4515,-4.4515,-4.4515,-4.4515,-4.4515,-4.4515,-4.4515,-4.4515,-4.4515,-4.4515,-4.4515,-4.4515,-4.4515,-4.4515,-4.4515,-4.4515,-4.4515,-4.4515,-4.4515,-4.4515,-4.4515,-4.4515,-4.4515,-4.4515,-4.4524,-4.4632,-4.4685,-4.4745,-4.4821,-4.4943,-4.4967,-2.2961,-2.387,0.0,0.0,0.0,0.0,0.0,0.0,0.0,0.0,0.0,0.0,0.0,0.0,0.0,0.0,0.0,-4.4515,-4.4515,-4.4984,-4.5322,-4.5322,-4.5848,-4.6223,-4.6223,-4.6223,-4.6223,-4.6223,-4.6223,-4.6223,-4.6223,-4.6223,-4.6336,-4.658,-4.6599,-4.673,-4.7012,-4.7012,-4.7012,-4.7012,-4.8157,-4.8401,-4.7838,-4.8438,-4.8382,-4.7819,-4.7819,-4.8157,-4.8664,-4.8063,-4.8326,-4.9096,-4.9096,-4.9265,-4.9358,-4.8232,-4.7969,-4.8082,-4.7274,-4.6824,-4.6486,-4.5885,-4.5528,-4.5228,-4.4684,-4.4515,-4.4515,-4.4515,-4.4515,-4.4515,-4.4515,-4.4515,-4.4515,-4.4515,-4.4515,-4.4515,-4.4515,-4.4515,-4.4515,-4.4515,-4.4515,-4.4515,-4.4515,-4.4515,-4.4515,-4.4515,-4.4515,-4.4515,-4.4515,-4.4515,-4.4515,-4.4515,-4.4515,-4.4515,-4.4515,-4.4515,-4.4515,-4.4515,-4.4515,-4.4515,-4.4515,-4.4515,-4.4515,-4.4515,-4.4524,-4.4605,-4.4712,-4.477,-4.487,-4.4967,-4.5103,-4.5125,-2.3214,0.0,0.0,0.0,0.0,0.0,0.0,0.0,0.0,0.0,0.0,0.0,0.0,0.0,0.0,-4.4233,-4.4515,-4.4515,-4.4515,-4.4515,-4.4515,-4.4515,-4.4515,-4.4515,-4.4515,-4.4515,-4.4515,-4.4515,-4.4515,-4.4515,-4.4515,-4.4515,-4.4871,-4.566,-4.5697,-4.6092,-4.6974,-4.6993,-4.6993,-4.6993,-4.6993,-4.6993,-4.6993,-4.7012,-4.7012,-4.6993,-4.6993,-4.6993,-4.7012,-4.7012,-4.7481,-4.8194,-4.8194,-4.872,-4.9265,-4.7612,-4.75,-4.8063,-4.7256,-4.6411,-4.5697,-4.5697,-4.5153,-4.4515,-4.4515,-4.4515,-4.4515,-4.4515,-4.4515,-4.4515,-4.4515,-4.4515,-4.4515,-4.4515,-4.4515,-4.4515,-4.4515,-4.4515,-4.4515,-4.4515,-4.4515,-4.4515,-4.4515,-4.4515,-4.4515,-4.4515,-4.4515,-4.4515,-4.4515,-4.4515,-4.4515,-4.4515,-4.4515,-4.4515,-4.4515,-4.4515,-4.4515,-4.4515,-4.4515,-4.4515,-4.4515,-4.4515,-4.4515,-4.4515,-4.4632,-4.4712,-4.4693,-4.4967,-4.5103,-4.5103,-4.5254,-4.5297,-2.3029,0.0,0.0,0.0,0.0,0.0,0.0,0.0,0.0,0.0,0.0,0.0,0.0,0.0,0.0,-4.4439,-4.4515,-4.4515,-4.4515,-4.4515,-4.4515,-4.4515,-4.4515,-4.4515,-4.4515,-4.4515,-4.4515,-4.4515,-4.4515,-4.4515,-4.4515,-4.4515,-4.4627,-4.4853,-4.4871,-4.4984,-4.5247,-4.5247,-4.5247,-4.5247,-4.5247,-4.5547,-4.611,-4.673,-4.6674,-4.6092,-4.6092,-4.643,-4.7012,-4.7012,-4.7143,-4.7368,-4.7368,-4.7519,-4.7612,-4.6486,-4.6242,-4.6336,-4.5528,-4.5078,-4.4871,-4.4871,-4.4702,-4.4515,-4.4515,-4.4515,-4.4515,-4.4515,-4.4515,-4.4515,-4.4515,-4.4515,-4.4515,-4.4515,-4.4515,-4.4515,-4.4515,-4.4515,-4.4515,-4.4515,-4.4515,-4.4515,-4.4515,-4.4515,-4.4515,-4.4515,-4.4515,-4.4515,-4.4515,-4.4515,-4.4515,-4.4515,-4.4515,-4.4515,-4.4515,-4.4515,-4.4515,-4.4515,-4.4515,-4.4515,-4.4515,-4.4515,-4.4524,-4.4632,-4.4685,-4.4796,-4.4967,-4.5057,-4.5148,-4.5235,-4.5297,-4.5297,0.0,0.0,0.0,0.0,0.0,0.0,0.0,0.0,0.0,0.0,0.0,0.0,0.0,0.0,0.0,-4.4458,-4.4515,-4.4515,-4.4515,-4.4515,-4.4515,-4.4515,-4.4515,-4.4515,-4.4515,-4.4515,-4.4515,-4.4515,-4.4515,-4.4515,-4.4515,-4.4515,-4.4515,-4.4515,-4.4515,-4.4515,-4.4515,-4.4515,-4.4515,-4.4515,-4.4515,-4.4759,-4.5247,-4.5772,-4.5716,-4.5228,-4.5228,-4.5528,-4.6035,-4.6354,-4.6486,-4.6486,-4.6486,-4.6711,-4.6861,-4.566,-4.5435,-4.5585,-4.4796,-4.4515,-4.4515,-4.4515,-4.4515,-4.4515,-4.4515,-4.4515,-4.4515,-4.4515,-4.4515,-4.4515,-4.4515,-4.4515,-4.4515,-4.4515,-4.4515,-4.4515,-4.4515,-4.4515,-4.4515,-4.4515,-4.4515,-4.4515,-4.4515,-4.4515,-4.4515,-4.4515,-4.4515,-4.4515,-4.4515,-4.4515,-4.4515,-4.4515,-4.4515,-4.4515,-4.4515,-4.4515,-4.4515,-4.4515,-4.4515,-4.4515,-4.4515,-4.4515,-4.4551,-4.4712,-4.4745,-4.4889,-4.5103,-4.5148,-4.5213,-4.5297,-4.5297,-4.5297,0.0,0.0,0.0,0.0,0.0,0.0,0.0,0.0,0.0,0.0,0.0,0.0,0.0,-4.3895,-4.3651,-4.4383,-4.4515,-4.4515,-4.4515,-4.4515,-4.4515,-4.4515,-4.4515,-4.4515,-4.4515,-4.4515,-4.4515,-4.4515,-4.4515,-4.4515,-4.4515,-4.4515,-4.4515,-4.4515,-4.4515,-4.4515,-4.4515,-4.4515,-4.4515,-4.4515,-4.4515,-4.4515,-4.4515,-4.4515,-4.4515,-4.4515,-4.4515,-4.4515,-4.4571,-4.5284,-4.5585,-4.5585,-4.5585,-4.6073,-4.6599,-4.5078,-4.4965,-4.5491,-4.4759,-4.4515,-4.4515,-4.4515,-4.4515,-4.4515,-4.4515,-4.4515,-4.4515,-4.4515,-4.4515,-4.4515,-4.4515,-4.4515,-4.4515,-4.4515,-4.4515,-4.4515,-4.4515,-4.4515,-4.4515,-4.4515,-4.4515,-4.4515,-4.4515,-4.4515,-4.4515,-4.4515,-4.4515,-4.4515,-4.4515,-4.4515,-4.4515,-4.4515,-4.4515,-4.4515,-4.4515,-4.4515,-4.4515,-4.4515,-4.4515,-4.4515,-4.4515,-4.4515,-4.4578,-4.4712,-4.4846,-4.4967,-4.5125,-4.5235,-4.5297,-4.5297,-4.5297,-4.5297,0.0,0.0,0.0,0.0,0.0,0.0,0.0,0.0,0.0,0.0,0.0,0.0,-4.4477,-4.4364,-4.4308,-4.4477,-4.4515,-4.4515,-4.4515,-4.4515,-4.4515,-4.4515,-4.4515,-4.4515,-4.4515,-4.4515,-4.4515,-4.4515,-4.4515,-4.4515,-4.4515,-4.4515,-4.4515,-4.4515,-4.4515,-4.4515,-4.4515,-4.4515,-4.4515,-4.4515,-4.4515,-4.4515,-4.4515,-4.4515,-4.4515,-4.4515,-4.4515,-4.4515,-4.4515,-4.4702,-4.4759,-4.4759,-4.4759,-4.4871,-4.5003,-4.4646,-4.4627,-4.474,-4.4571,-4.4515,-4.4515,-4.4515,-4.4515,-4.4515,-4.4515,-4.4515,-4.4515,-4.4515,-4.4515,-4.4515,-4.4515,-4.4515,-4.4515,-4.4515,-4.4515,-4.4515,-4.4515,-4.4515,-4.4515,-4.4515,-4.4515,-4.4515,-4.4515,-4.4515,-4.4515,-4.4515,-4.4515,-4.4515,-4.4515,-4.4515,-4.4515,-4.4515,-4.4515,-4.4515,-4.4515,-4.4515,-4.4515,-4.4515,-4.4515,-4.457,-4.4659,-4.4659,-4.4738,-4.4846,-4.501,-4.5125,-4.5275,-4.5297,-4.5297,-4.5297,-4.5297,-4.5297,0.0,0.0,0.0,0.0,0.0,0.0,0.0,0.0,0.0,0.0,0.0,0.0,-4.4487,-4.4515,-4.4515,-4.4515,-4.4515,-4.4515,-4.4515,-4.4515,-4.4515,-4.4515,-4.4515,-4.4515,-4.4515,-4.4515,-4.4515,-4.4515,-4.4515,-4.4515,-4.4515,-4.4515,-4.4515,-4.4515,-4.4515,-4.4515,-4.4515,-4.4515,-4.4515,-4.4515,-4.4515,-4.4515,-4.4515,-4.4515,-4.4515,-4.4515,-4.4515,-4.4515,-4.4515,-4.4515,-4.4515,-4.4515,-4.4515,-4.4515,-4.4515,-4.4515,-4.4515,-4.4515,-4.4515,-4.4515,-4.4515,-4.4515,-4.4515,-4.4515,-4.4515,-4.4515,-4.4515,-4.4515,-4.4515,-4.4515,-4.4515,-4.4515,-4.4515,-4.4515,-4.4515,-4.4515,-4.4515,-4.4515,-4.4515,-4.4515,-4.4515,-4.4515,-4.4515,-4.4515,-4.4515,-4.4515,-4.4515,-4.4515,-4.4515,-4.4515,-4.4515,-4.4515,-4.4515,-4.4515,-4.4515,-4.4515,-4.4515,-4.4515,-4.4515,-4.4551,-4.4693,-4.4745,-4.4846,-4.4991,-4.5061,-4.517,-4.5297,-4.5297,-4.5297,-4.5297,-4.5297,-4.5297,0.0,0.0,0.0,0.0,0.0,0.0,0.0,0.0,0.0,0.0,0.0,-4.4031,-4.4421,-4.4515,-4.4515,-4.4515,-4.4515,-4.4515,-4.4515,-4.4515,-4.4515,-4.4515,-4.4515,-4.4515,-4.4515,-4.4515,-4.4515,-4.4515,-4.4515,-4.4515,-4.4515,-4.4515,-4.4515,-4.4515,-4.4515,-4.4515,-4.4515,-4.4515,-4.4515,-4.4515,-4.4515,-4.4515,-4.4515,-4.4515,-4.4515,-4.4515,-4.4515,-4.4515,-4.4515,-4.4515,-4.4515,-4.4515,-4.4515,-4.4515,-4.4515,-4.4515,-4.4515,-4.4515,-4.4515,-4.4515,-4.4515,-4.4515,-4.4515,-4.4515,-4.4515,-4.4515,-4.4515,-4.4515,-4.4515,-4.4515,-4.4515,-4.4515,-4.4515,-4.4515,-4.4515,-4.4515,-4.4515,-4.4515,-4.4515,-4.4515,-4.4515,-4.4515,-4.4515,-4.4515,-4.4515,-4.4515,-4.4515,-4.4515,-4.4515,-4.4515,-4.4515,-4.4515,-4.4515,-4.4515,-4.4515,-4.4515,-4.4515,-4.4515,-4.4515,-4.4551,-4.4738,-4.4821,-4.4967,-4.5125,-4.5148,-4.5192,-4.5297,-4.5297,-4.5297,-4.5297,-4.5297,-4.5297,0.0,0.0,0.0,0.0,0.0,0.0,0.0,0.0,0.0,0.0,0.0,-4.3359,-4.4308,-4.4515,-4.4515,-4.4515,-4.4515,-4.4515,-4.4515,-4.4515,-4.4515,-4.4515,-4.4515,-4.4515,-4.4515,-4.4515,-4.4515,-4.4515,-4.4515,-4.4515,-4.4515,-4.4515,-4.4515,-4.4515,-4.4515,-4.4515,-4.4515,-4.4515,-4.4515,-4.4515,-4.4515,-4.4515,-4.4515,-4.4515,-4.4515,-4.4515,-4.4515,-4.4515,-4.4515,-4.4515,-4.4515,-4.4515,-4.4515,-4.4515,-4.4515,-4.4515,-4.4515,-4.4515,-4.4515,-4.4515,-4.4515,-4.4515,-4.4515,-4.4515,-4.4515,-4.4515,-4.4515,-4.4515,-4.4515,-4.4515,-4.4515,-4.4515,-4.4515,-4.4515,-4.4515,-4.4515,-4.4515,-4.4515,-4.4515,-4.4515,-4.4515,-4.4515,-4.4515,-4.4515,-4.4515,-4.4515,-4.4515,-4.4515,-4.4515,-4.4515,-4.4515,-4.4515,-4.4515,-4.4515,-4.4515,-4.4515,-4.4515,-4.4515,-4.4515,-4.4605,-4.4846,-4.4895,-4.5033,-4.5275,-4.5275,-4.5297,-4.5297,-4.5297,-4.5297,-4.5297,-4.5297,-4.5297,0.0,0.0,0.0,0.0,0.0,0.0,0.0,0.0,0.0,0.0,-4.1007,-4.1835,-4.3521,-4.3839,-4.3989,-4.4439,-4.4515,-4.4515,-4.4515,-4.4515,-4.4515,-4.4515,-4.4515,-4.4515,-4.4515,-4.4515,-4.4515,-4.4515,-4.4515,-4.4515,-4.4515,-4.4515,-4.4515,-4.4515,-4.4515,-4.4515,-4.4515,-4.4515,-4.4515,-4.4515,-4.4515,-4.4515,-4.4515,-4.4515,-4.4515,-4.4515,-4.4515,-4.4515,-4.4515,-4.4515,-4.4515,-4.4515,-4.4515,-4.4515,-4.4515,-4.4515,-4.4515,-4.4515,-4.4515,-4.4515,-4.4515,-4.4515,-4.4515,-4.4515,-4.4515,-4.4515,-4.4515,-4.4515,-4.4515,-4.4515,-4.4515,-4.4515,-4.4515,-4.4515,-4.4515,-4.4515,-4.4515,-4.4515,-4.4515,-4.4515,-4.4515,-4.4515,-4.4515,-4.4515,-4.4515,-4.4515,-4.4515,-4.4515,-4.4515,-4.4515,-4.4515,-4.4515,-4.4515,-4.4515,-4.4515,-4.4515,-4.4515,-4.4515,-4.4515,-4.4632,-4.4895,-4.4895,-4.5033,-4.5297,-4.5297,-4.5297,-4.5297,-4.5297,-4.5297,-4.5297,-4.5297,-4.5297,0.0,0.0,0.0,0.0,0.0,0.0,0.0,0.0,0.0,0.0,-3.963,-4.0352,-4.222,-4.2798,-4.3182,-4.3782,-4.4064,-4.4214,-4.4214,-4.4383,-4.4515,-4.4515,-4.4515,-4.4515,-4.4515,-4.4515,-4.4515,-4.4515,-4.4515,-4.4515,-4.4515,-4.4515,-4.4515,-4.4515,-4.4515,-4.4515,-4.4515,-4.4515,-4.4515,-4.4515,-4.4515,-4.4515,-4.4515,-4.4515,-4.4515,-4.4515,-4.4515,-4.4515,-4.4515,-4.4515,-4.4515,-4.4515,-4.4515,-4.4515,-4.4515,-4.4515,-4.4515,-4.4515,-4.4515,-4.4515,-4.4515,-4.4515,-4.4515,-4.4515,-4.4515,-4.4515,-4.4515,-4.4515,-4.4515,-4.4515,-4.4515,-4.4515,-4.4515,-4.4515,-4.4515,-4.4515,-4.4515,-4.4515,-4.4515,-4.4515,-4.4515,-4.4515,-4.4515,-4.4515,-4.4515,-4.4515,-4.4515,-4.4515,-4.4515,-4.4515,-4.4515,-4.4515,-4.4515,-4.4515,-4.4515,-4.4515,-4.4515,-4.4515,-4.4515,-4.4632,-4.4895,-4.4895,-4.5033,-4.5297,-4.5297,-4.5297,-4.5297,-4.5297,-4.5297,-4.5297,-4.5297,-4.5317,0.0,0.0,0.0,0.0,0.0,0.0,0.0,0.0,0.0,0.0,-3.8247,-3.9293,-4.0365,-4.1378,-4.2066,-4.2104,-4.2825,-4.3351,-4.3351,-4.4026,-4.4515,-4.4515,-4.4515,-4.4515,-4.4515,-4.4515,-4.4515,-4.4515,-4.4515,-4.4515,-4.4515,-4.4515,-4.4515,-4.4515,-4.4515,-4.4515,-4.4515,-4.4515,-4.4515,-4.4515,-4.4515,-4.4515,-4.4515,-4.4515,-4.4515,-4.4515,-4.4515,-4.4515,-4.4515,-4.4515,-4.4515,-4.4515,-4.4515,-4.4515,-4.4515,-4.4515,-4.4515,-4.4515,-4.4515,-4.4515,-4.4515,-4.4515,-4.4515,-4.4515,-4.4515,-4.4515,-4.4515,-4.4515,-4.4515,-4.4515,-4.4515,-4.4515,-4.4515,-4.4515,-4.4515,-4.4515,-4.4515,-4.4515,-4.4515,-4.4515,-4.4515,-4.4515,-4.4515,-4.4515,-4.4515,-4.4515,-4.4515,-4.4515,-4.4515,-4.4515,-4.4515,-4.4515,-4.4515,-4.4515,-4.4515,-4.4515,-4.4515,-4.4515,-4.4515,-4.4632,-4.4895,-4.4895,-4.5033,-4.5297,-4.5297,-4.5297,-4.5297,-4.5297,-4.5297,-4.5297,-4.5297,-4.536,0.0,0.0,0.0,0.0,0.0,0.0,0.0,0.0,0.0,-3.5608,-3.7014,-3.8275,-3.8774,-4.0162,-4.1417,-4.1916,-4.228,-4.2487,-4.2487,-4.2712,-4.3106,-4.367,-4.3257,-4.3125,-4.3688,-4.3726,-4.3726,-4.3726,-4.4214,-4.4515,-4.4515,-4.4515,-4.4515,-4.4515,-4.4515,-4.4515,-4.4515,-4.4515,-4.4515,-4.4515,-4.4515,-4.4515,-4.4515,-4.4515,-4.4515,-4.4515,-4.4515,-4.4515,-4.4515,-4.4515,-4.4515,-4.4515,-4.4515,-4.4515,-4.4515,-4.4515,-4.4515,-4.4515,-4.4515,-4.4515,-4.4515,-4.4515,-4.4515,-4.4515,-4.4515,-4.4515,-4.4515,-4.4515,-4.4515,-4.4515,-4.4515,-4.4515,-4.4515,-4.4515,-4.4515,-4.4515,-4.4515,-4.4515,-4.4515,-4.4515,-4.4515,-4.4515,-4.4515,-4.4515,-4.4515,-4.4515,-4.4515,-4.4515,-4.4515,-4.4515,-4.4515,-4.4515,-4.4515,-4.4515,-4.4515,-4.4515,-4.4515,-4.4515,-4.4578,-4.4712,-4.4895,-4.4967,-4.5125,-4.5297,-4.538,-4.538,-4.5297,-4.5297,-4.5339,-4.5438,-4.5438,-4.5495,0.0,0.0,0.0,0.0,0.0,0.0,0.0,0.0,0.0,-3.389,-3.5505,-3.6916,-3.7445,-3.8595,-3.9839,-4.0997,-4.1436,-4.1605,-4.1605,-4.1849,-4.2224,-4.2787,-4.2355,-4.2243,-4.2806,-4.2862,-4.2862,-4.2862,-4.3369,-4.367,-4.367,-4.3951,-4.4233,-4.4496,-4.4515,-4.4515,-4.4515,-4.4515,-4.4515,-4.4515,-4.4515,-4.4515,-4.4515,-4.4515,-4.4515,-4.4515,-4.4515,-4.4515,-4.4515,-4.4515,-4.4515,-4.4515,-4.4515,-4.4515,-4.4515,-4.4515,-4.4515,-4.4515,-4.4515,-4.4515,-4.4515,-4.4515,-4.4515,-4.4515,-4.4515,-4.4515,-4.4515,-4.4515,-4.4515,-4.4515,-4.4515,-4.4515,-4.4515,-4.4515,-4.4515,-4.4515,-4.4515,-4.4515,-4.4515,-4.4515,-4.4515,-4.4515,-4.4515,-4.4515,-4.4515,-4.4515,-4.4515,-4.4515,-4.4515,-4.4515,-4.4515,-4.4515,-4.4515,-4.4515,-4.4515,-4.4515,-4.4515,-4.4515,-4.4632,-4.477,-4.4972,-4.5087,-4.5258,-4.5419,-4.5531,-4.5531,-4.5419,-4.5419,-4.5476,-4.5566,-4.5566,-4.5651,0.0,0.0,0.0,0.0,0.0,0.0,0.0,0.0,-3.1157,-3.2172,-3.3689,-3.5184,-3.6408,-3.6714,-3.7374,-3.9214,-4.0196,-4.0741,-4.076,-4.1454,-4.1935,-4.1954,-4.1935,-4.1935,-4.1954,-4.1954,-4.1954,-4.1954,-4.1972,-4.1991,-4.1991,-4.2806,-4.3613,-4.4402,-4.4458,-4.4477,-4.4477,-4.4496,-4.4515,-4.4515,-4.4515,-4.4515,-4.4515,-4.4515,-4.4515,-4.4515,-4.4515,-4.4515,-4.4515,-4.4515,-4.4515,-4.4515,-4.4515,-4.4515,-4.4515,-4.4515,-4.4515,-4.4515,-4.4515,-4.4515,-4.4515,-4.4515,-4.4515,-4.4515,-4.4515,-4.4515,-4.4515,-4.4515,-4.4515,-4.4515,-4.4515,-4.4515,-4.4515,-4.4515,-4.4515,-4.4515,-4.4515,-4.4515,-4.4515,-4.4515,-4.4515,-4.4515,-4.4515,-4.4515,-4.4515,-4.4515,-4.4515,-4.4515,-4.4515,-4.4515,-4.4515,-4.4515,-4.4515,-4.4515,-4.4515,-4.4515,-4.4496,-4.4496,-4.4632,-4.4827,-4.5096,-4.5243,-4.5438,-4.568,-4.5715,-4.5715,-4.5715,-4.57,-4.57,-4.5715,-4.5715,-4.5776,-1.6715,0.0,0.0,0.0,0.0,0.0,0.0,0.0,0.0,-2.9576,-3.1287,-3.3025,-3.4654,-3.5624,-3.6527,-3.7606,-3.8469,-3.9201,-3.984,-4.0103,-4.0478,-4.106,-4.0609,-4.0478,-4.1079,-4.1135,-4.1135,-4.1135,-4.168,-4.1991,-4.1991,-4.2243,-4.2468,-4.2667,-4.3294,-4.3632,-4.3632,-4.4214,-4.4515,-4.4515,-4.4515,-4.4515,-4.4515,-4.4515,-4.4515,-4.4515,-4.4515,-4.4515,-4.4515,-4.4515,-4.4515,-4.4515,-4.4515,-4.4515,-4.4515,-4.4515,-4.4515,-4.4515,-4.4515,-4.4515,-4.4515,-4.4515,-4.4515,-4.4515,-4.4515,-4.4515,-4.4515,-4.4515,-4.4515,-4.4515,-4.4515,-4.4515,-4.4515,-4.4515,-4.4515,-4.4515,-4.4515,-4.4515,-4.4515,-4.4515,-4.4515,-4.4515,-4.4515,-4.4515,-4.4515,-4.4515,-4.4515,-4.4515,-4.4515,-4.4515,-4.4515,-4.4515,-4.4515,-4.4515,-4.4515,-4.4515,-4.4587,-4.4789,-4.491,-4.5096,-4.5381,-4.5528,-4.5632,-4.57,-4.5791,-4.5833,-4.5833,-4.5746,-4.5746,-4.5852,-4.5893,-4.5941,0.0,0.0,0.0,0.0,0.0,0.0,-2.3976,-2.5045,0.0,0.0,-2.903,-3.0549,-3.2512,-3.3328,-3.4214,-3.5803,-3.6441,-3.7174,-3.8399,-3.8568,-3.8845,-3.9671,-3.9333,-3.937,-4.0215,-4.029,-4.029,-4.029,-4.0722,-4.1154,-4.1492,-4.1511,-4.1661,-4.1972,-4.2506,-4.2769,-4.2769,-4.3576,-4.4008,-4.4008,-4.4346,-4.4515,-4.4515,-4.4515,-4.4515,-4.4515,-4.4515,-4.4515,-4.4515,-4.4515,-4.4515,-4.4515,-4.4515,-4.4515,-4.4515,-4.4515,-4.4515,-4.4515,-4.4515,-4.4515,-4.4515,-4.4515,-4.4515,-4.4515,-4.4515,-4.4515,-4.4515,-4.4515,-4.4515,-4.4515,-4.4515,-4.4515,-4.4515,-4.4515,-4.4515,-4.4515,-4.4515,-4.4515,-4.4515,-4.4515,-4.4515,-4.4515,-4.4515,-4.4515,-4.4515,-4.4515,-4.4515,-4.4515,-4.4515,-4.4515,-4.4515,-4.4515,-4.4515,-4.4524,-4.4621,-4.4621,-4.4758,-4.5007,-4.5142,-4.5323,-4.5522,-4.5692,-4.5805,-4.5808,-4.5893,-4.5937,-4.5937,-4.5867,-4.5867,-4.5949,-4.5975,-4.5997,0.0,0.0,0.0,0.0,0.0,0.0,-2.4447,-2.4809,-2.5208,0.0,-2.7001,-2.8018,-3.0166,-3.0443,-3.1129,-3.3639,-3.4111,-3.4864,-3.6817,-3.7099,-3.7361,-3.8075,-3.8169,-3.8469,-3.9263,-3.9339,-3.9339,-3.9339,-3.9414,-3.9802,-4.0609,-4.0666,-4.0985,-4.1717,-4.183,-4.186,-4.186,-4.2731,-4.3163,-4.3163,-4.3895,-4.4271,-4.4383,-4.4383,-4.4421,-4.4515,-4.4515,-4.4515,-4.4515,-4.4515,-4.4515,-4.4515,-4.4515,-4.4515,-4.4515,-4.4515,-4.4515,-4.4515,-4.4515,-4.4515,-4.4515,-4.4515,-4.4515,-4.4515,-4.4515,-4.4515,-4.4515,-4.4515,-4.4515,-4.4515,-4.4515,-4.4515,-4.4515,-4.4515,-4.4515,-4.4515,-4.4515,-4.4515,-4.4515,-4.4515,-4.4515,-4.4515,-4.4515,-4.4515,-4.4515,-4.4524,-4.4524,-4.4551,-4.456,-4.4578,-4.4578,-4.4578,-4.4578,-4.4648,-4.4843,-4.4849,-4.4943,-4.5223,-4.5361,-4.5505,-4.565,-4.5827,-4.5937,-4.5997,-4.5997,-4.5997,-4.5997,-4.5997,-4.5997,-4.5997,-4.5997,-4.5997,0.0,0.0,0.0,0.0,0.0,0.0,-2.3234,-2.3614,-2.433,0.0,-2.5672,-2.634,-2.8231,-2.8528,-2.894,-3.0295,-3.1044,-3.2788,-3.6573,-3.7099,-3.7155,-3.7305,-3.7324,-3.7399,-3.7549,-3.7587,-3.7587,-3.7587,-3.8188,-3.892,-3.9783,-3.9821,-3.9896,-4.0046,-4.0703,-4.1041,-4.1041,-4.1849,-4.2262,-4.228,-4.2431,-4.2862,-4.3538,-4.3538,-4.3895,-4.4515,-4.4515,-4.4515,-4.4515,-4.4515,-4.4515,-4.4515,-4.4515,-4.4515,-4.4515,-4.4515,-4.4515,-4.4515,-4.4515,-4.4515,-4.4515,-4.4515,-4.4515,-4.4515,-4.4515,-4.4515,-4.4515,-4.4515,-4.4515,-4.4515,-4.4515,-4.4515,-4.4515,-4.4515,-4.4515,-4.4515,-4.4515,-4.4515,-4.4515,-4.4515,-4.4515,-4.4515,-4.4515,-4.4515,-4.456,-4.4714,-4.4745,-4.4819,-4.5049,-4.5071,-4.5071,-4.5071,-4.5071,-4.5094,-4.5118,-4.5118,-4.5225,-4.5522,-4.5555,-4.5665,-4.5902,-4.5964,-4.5986,-4.5997,-4.5997,-4.5997,-4.5997,-4.5997,-4.5997,-4.5997,-4.5997,-4.5997,0.0,0.0,0.0,-2.3343,0.0,0.0,0.0,-2.3813,-2.4094,-2.5098,-2.5032,-2.5335,-2.7117,-2.7214,-2.7438,-2.8727,-2.9644,-3.0957,-3.3118,-3.4095,-3.4771,-3.5202,-3.5597,-3.601,-3.646,-3.6855,-3.7099,-3.7099,-3.7455,-3.8075,-3.8901,-3.8939,-3.9145,-3.9602,-3.9971,-4.0196,-4.0196,-4.1004,-4.1417,-4.1417,-4.1804,-4.2243,-4.2656,-4.2656,-4.3106,-4.3895,-4.3895,-4.4139,-4.4515,-4.4515,-4.4515,-4.4515,-4.4515,-4.4515,-4.4515,-4.4515,-4.4515,-4.4515,-4.4515,-4.4515,-4.4515,-4.4515,-4.4515,-4.4515,-4.4515,-4.4515,-4.4515,-4.4515,-4.4515,-4.4515,-4.4515,-4.4515,-4.4515,-4.4515,-4.4515,-4.4515,-4.4515,-4.4515,-4.4524,-4.4648,-4.4655,-4.4655,-4.4655,-4.4758,-4.4887,-4.4985,-4.5007,-4.5033,-4.5184,-4.5204,-4.5225,-4.5245,-4.5245,-4.5304,-4.54,-4.5399,-4.5488,-4.5733,-4.5775,-4.5861,-4.5994,-4.5997,-4.5997,-4.5997,-4.5997,-4.5997,-4.5997,-4.5997,-4.5997,-4.5997,-4.5997,-4.5997,0.0,0.0,0.0,0.0,0.0,-2.4737,0.0,0.0,0.0,0.0,0.0,0.0,0.0,0.0,0.0,-2.7434,0.0,0.0,0.0,-3.0246,0.0,-3.2574,-3.34,-3.4151,-3.4864,-3.5522,-3.6104,-3.6573,-3.6479,-3.6873,-3.8019,-3.8225,-3.8619,-3.9314,-3.9526,-3.9602,-3.9602,-4.0234,-4.0572,-4.0572,-4.1229,-4.1623,-4.1773,-4.1773,-4.2243,-4.305,-4.3246,-4.3724,-4.4317,-4.4495,-4.4551,-4.4542,-4.4515,-4.4515,-4.4515,-4.4515,-4.4515,-4.4515,-4.4515,-4.4515,-4.4515,-4.4515,-4.4515,-4.4515,-4.4515,-4.4515,-4.4515,-4.4515,-4.4515,-4.4515,-4.4515,-4.4515,-4.4515,-4.4551,-4.456,-4.456,-4.4613,-4.464,-4.4681,-4.4849,-4.4919,-4.4943,-4.4891,-4.5052,-4.5222,-4.5244,-4.5263,-4.5284,-4.5342,-4.5323,-4.5361,-4.5416,-4.5416,-4.5488,-4.5642,-4.5654,-4.5733,-4.5919,-4.5968,-4.6003,-4.6003,-4.6005,-4.5997,-4.5997,-4.5997,-4.5997,-4.5997,-4.5997,-4.5997,-4.5997,-4.5997,-4.5997,0.0,0.0,0.0,0.0,-2.6548,-2.7345,-2.4574,0.0,-2.4683,-2.4088,0.0,0.0,0.0,0.0,0.0,0.0,0.0,0.0,-2.6397,-2.7186,-2.8331,-2.9927,-3.0828,-3.1372,-3.1466,-3.156,-3.2518,-3.4714,-3.4226,-3.4827,-3.7099,-3.7906,-3.8357,-3.845,-3.9183,-3.9602,-3.9602,-3.9695,-3.9727,-3.9727,-3.9821,-4.0253,-4.0947,-4.0947,-4.1379,-4.2205,-4.3088,-4.3542,-4.3693,-4.4493,-4.477,-4.4659,-4.457,-4.4515,-4.4515,-4.4515,-4.4515,-4.4515,-4.4515,-4.4515,-4.4515,-4.4515,-4.4515,-4.4515,-4.4515,-4.4515,-4.4515,-4.4515,-4.4515,-4.4515,-4.4515,-4.4515,-4.4532,-4.4739,-4.477,-4.4843,-4.5071,-4.5115,-4.5118,-4.5145,-4.5361,-4.5418,-4.5201,-4.518,-4.5244,-4.5436,-4.5454,-4.556,-4.5786,-4.5814,-4.5827,-4.5815,-4.5829,-4.5848,-4.5861,-4.5861,-4.5905,-4.598,-4.5991,-4.6003,-4.5997,-4.5997,-4.5997,-4.5997,-4.5997,-4.5997,-4.5997,-4.5997,-4.5997,-4.5997,-4.5997,-4.5997,0.0,0.0,0.0,0.0,-2.6475,-2.6729,-2.49,-2.4393,-2.4339,-2.4465,0.0,0.0,0.0,0.0,0.0,0.0,-2.5271,0.0,0.0,0.0,-2.6378,-2.8049,-2.8969,-2.9833,-3.0809,-3.0884,-3.1335,-3.2367,-3.2142,-3.2837,-3.4846,-3.5728,-3.6817,-3.8263,-3.8729,-3.9161,-3.9602,-3.9656,-3.9656,-3.9602,-3.9602,-3.9765,-4.0103,-4.0139,-4.0621,-4.1469,-4.1912,-4.2375,-4.2924,-4.3791,-4.4107,-4.4115,-4.4556,-4.4632,-4.4515,-4.4515,-4.4551,-4.4605,-4.4605,-4.4605,-4.4605,-4.4542,-4.4515,-4.4496,-4.4578,-4.4551,-4.4515,-4.4578,-4.4551,-4.4515,-4.4515,-4.4587,-4.4707,-4.4795,-4.4919,-4.5052,-4.518,-4.5201,-4.5263,-4.5399,-4.5526,-4.5594,-4.5607,-4.5607,-4.5638,-4.5733,-4.5733,-4.5794,-4.5944,-4.5956,-4.5968,-4.5964,-4.5964,-4.5953,-4.596,-4.5953,-4.5964,-4.5991,-4.5994,-4.6005,-4.5997,-4.5997,-4.5997,-4.5997,-4.5997,-4.5997,-4.5997,-4.5997,-4.5997,-4.5997,-4.5997,-4.5997,-2.7037,-2.7453,-2.7761,-2.6512,-2.6367,-2.6204,-2.4954,-2.4556,-2.4502,-2.4646,-2.4863,0.0,0.0,0.0,0.0,0.0,0.0,-2.5429,0.0,-2.4129,0.0,0.0,0.0,-2.8312,-2.9758,-2.9701,-2.9739,-3.0171,-3.0021,-3.0715,-3.2611,-3.3721,-3.5227,-3.7276,-3.7898,-3.8561,-3.9359,-3.9392,-3.9505,-3.9631,-3.9631,-3.9631,-3.9631,-3.9689,-4.0075,-4.0722,-4.1029,-4.151,-4.2151,-4.3031,-4.3354,-4.3407,-4.426,-4.4455,-4.4285,-4.4511,-4.4685,-4.4745,-4.4745,-4.4745,-4.4719,-4.4605,-4.4551,-4.4578,-4.4685,-4.4632,-4.4578,-4.4726,-4.47,-4.4667,-4.4674,-4.4789,-4.4919,-4.4988,-4.5142,-4.5303,-4.5343,-4.5381,-4.5455,-4.5642,-4.5692,-4.5752,-4.5898,-4.5898,-4.5905,-4.5905,-4.5905,-4.5917,-4.5991,-4.5991,-4.6003,-4.5997,-4.5997,-4.5997,-4.5994,-4.6005,-4.5997,-4.6014,-4.6005,-4.5997,-4.5997,-4.5997,-4.5997,-4.5997,-4.5997,-4.5997,-4.5997,-4.5997,-4.5997,-4.5997,-4.5997,-4.5997,-2.8515,-2.9119,-2.9156,-2.6783,-2.6801,-2.6747,-2.4375,-2.5027,-2.5697,-2.4139,-2.5679,-2.6885,-2.5552,0.0,0.0,0.0,0.0,0.0,0.0,0.0,0.0,0.0,0.0,0.0,-2.7242,-2.6604,-2.6791,-2.8351,-2.7768,-2.8387,-3.0846,-3.2599,-3.3958,-3.4883,-3.6553,-3.7843,-3.8715,-3.8734,-3.9069,-3.9693,-3.9693,-3.9693,-3.9693,-3.9693,-3.98,-4.0006,-4.0912,-4.1315,-4.1392,-4.2409,-4.2751,-4.2702,-4.3523,-4.3738,-4.3715,-4.4567,-4.4895,-4.4895,-4.4895,-4.4895,-4.487,-4.4738,-4.4685,-4.4693,-4.4712,-4.4712,-4.4745,-4.4915,-4.4985,-4.5007,-4.514,-4.518,-4.5243,-4.5436,-4.5472,-4.5541,-4.5737,-4.5833,-4.5874,-4.5893,-4.5949,-4.6003,-4.5997,-4.5933,-4.5905,-4.5905,-4.5905,-4.5917,-4.5991,-4.5991,-4.6003,-4.5997,-4.5997,-4.5997,-4.5997,-4.5997,-4.5997,-4.5997,-4.5997,-4.5997,-4.5997,-4.5997,-4.5997,-4.5997,-4.5997,-4.5997,-4.5997,-4.5997,-4.5997,-4.5997,-4.5997,-4.5997,-2.9617,-3.0375,-3.0516,-2.8474,-2.8195,-2.7711,-2.5179,-2.5425,-2.5751,-2.4121,-2.5298,-2.6136,-2.4605,0.0,0.0,0.0,0.0,0.0,0.0,0.0,0.0,0.0,0.0,0.0,0.0,-2.5815,-2.6,-2.5965,-2.6735,-2.784,-2.9284,-3.1487,-3.3374,-3.4831,-3.6046,-3.7052,-3.7825,-3.8457,-3.8854,-3.905,-3.958,-3.9826,-3.9826,-3.9933,-3.9975,-4.0055,-4.0462,-4.0635,-4.0711,-4.1571,-4.1915,-4.1951,-4.281,-4.3437,-4.3945,-4.4621,-4.4962,-4.5014,-4.5014,-4.5014,-4.4991,-4.4889,-4.4821,-4.4846,-4.4919,-4.4972,-4.5004,-4.5159,-4.5163,-4.5125,-4.5185,-4.5304,-4.5418,-4.5472,-4.561,-4.5723,-4.5847,-4.5874,-4.5919,-4.5949,-4.5991,-4.6003,-4.5997,-4.5986,-4.5975,-4.5975,-4.5975,-4.5975,-4.6005,-4.6005,-4.6005,-4.5997,-4.5997,-4.5997,-4.5997,-4.5997,-4.5997,-4.5997,-4.5997,-4.5997,-4.5997,-4.5997,-4.5997,-4.5997,-4.5997,-4.5997,-4.5997,-4.5997,-4.5997,-4.5997,-4.5997,-4.5997,-2.9879,-3.0643,-3.0936,-2.9477,-2.9348,-2.8861,-2.6216,-2.6461,-2.6772,-2.5168,-2.5786,-2.6568,-2.63,-2.5905,0.0,0.0,0.0,0.0,0.0,-2.1981,0.0,0.0,0.0,0.0,0.0,0.0,-2.5005,-2.4726,-2.5471,-2.6424,-2.7638,-2.9839,-3.1839,-3.358,-3.4826,-3.6005,-3.7072,-3.7681,-3.8252,-3.874,-3.9252,-3.9669,-3.9954,-4.0057,-4.0137,-4.0195,-4.0253,-4.031,-4.0348,-4.0864,-4.1074,-4.1189,-4.2354,-4.3119,-4.3671,-4.4341,-4.4836,-4.517,-4.517,-4.517,-4.5148,-4.5014,-4.4967,-4.501,-4.5061,-4.5132,-4.5182,-4.5362,-4.5418,-4.5433,-4.5432,-4.5555,-4.5638,-4.5638,-4.5733,-4.5854,-4.5887,-4.5932,-4.5944,-4.5991,-4.6003,-4.5994,-4.5997,-4.5997,-4.5997,-4.5997,-4.5997,-4.5997,-4.5997,-4.5997,-4.5997,-4.5997,-4.5997,-4.5997,-4.5997,-4.5997,-4.5997,-4.5997,-4.5997,-4.5997,-4.5997,-4.5997,-4.5997,-4.5997,-4.5997,-4.5997,-4.5997,-4.5997,-4.5997,-4.5997,-4.5997,-4.5997]}]]